Wetterdaten: Samstag, 14.03.2026
Datum Zeit Temp. I. Temp. A. Feuchte I. Feuchte A. Luftdruck Regen Wind Richtung Richtung Sonnenschein Solar Taupunkt Windchill Windböen
14.03.2026 00:00 21,6 °C 12,3 °C 47 % 67 % 1001,0 hPa 0,0 l/m² 16,0 km/h (3 Bft) S-SO 157 ° 0 min 0 W/m² 6,4 °C 7,6 °C 24,1 km/h (4 Bft)
14.03.2026 00:02 21,6 °C 12,3 °C 47 % 67 % 1001,0 hPa 0,0 l/m² 18,5 km/h (3 Bft) SO 139 ° 0 min 0 W/m² 6,4 °C 6,7 °C 22,5 km/h (4 Bft)
14.03.2026 00:04 21,6 °C 12,3 °C 47 % 67 % 1000,9 hPa 0,0 l/m² 18,3 km/h (3 Bft) SO 135 ° 0 min 0 W/m² 6,4 °C 6,8 °C 25,7 km/h (4 Bft)
14.03.2026 00:06 21,6 °C 12,3 °C 47 % 67 % 1000,9 hPa 0,0 l/m² 18,0 km/h (3 Bft) SO 140 ° 0 min 0 W/m² 6,4 °C 6,9 °C 25,7 km/h (4 Bft)
14.03.2026 00:07 21,6 °C 12,3 °C 47 % 67 % 1000,8 hPa 0,0 l/m² 17,3 km/h (3 Bft) SO 134 ° 0 min 0 W/m² 6,4 °C 7,1 °C 20,9 km/h (4 Bft)
14.03.2026 00:08 21,6 °C 12,3 °C 47 % 67 % 1000,8 hPa 0,0 l/m² 17,6 km/h (3 Bft) S-SO 167 ° 0 min 0 W/m² 6,4 °C 7,0 °C 25,7 km/h (4 Bft)
14.03.2026 00:09 21,6 °C 12,3 °C 47 % 67 % 1000,8 hPa 0,0 l/m² 14,9 km/h (3 Bft) S-SO 157 ° 0 min 0 W/m² 6,4 °C 8,0 °C 19,3 km/h (3 Bft)
14.03.2026 00:10 21,6 °C 12,3 °C 47 % 68 % 1000,8 hPa 0,0 l/m² 13,7 km/h (3 Bft) S-SO 154 ° 0 min 0 W/m² 6,6 °C 8,4 °C 17,7 km/h (3 Bft)
14.03.2026 00:12 21,6 °C 12,3 °C 47 % 67 % 1000,8 hPa 0,0 l/m² 16,0 km/h (3 Bft) SO 144 ° 0 min 0 W/m² 6,4 °C 7,6 °C 22,5 km/h (4 Bft)
14.03.2026 00:14 21,6 °C 12,3 °C 47 % 67 % 1000,8 hPa 0,0 l/m² 15,8 km/h (3 Bft) S-SO 149 ° 0 min 0 W/m² 6,4 °C 7,6 °C 20,9 km/h (4 Bft)
14.03.2026 00:15 21,6 °C 12,3 °C 47 % 68 % 1000,8 hPa 0,0 l/m² 18,6 km/h (3 Bft) S-SO 149 ° 0 min 0 W/m² 6,6 °C 6,7 °C 22,5 km/h (4 Bft)
14.03.2026 00:17 21,6 °C 12,3 °C 47 % 68 % 1000,8 hPa 0,0 l/m² 18,2 km/h (3 Bft) S-SO 150 ° 0 min 0 W/m² 6,6 °C 6,8 °C 24,1 km/h (4 Bft)
14.03.2026 00:19 21,6 °C 12,3 °C 47 % 68 % 1000,8 hPa 0,0 l/m² 17,2 km/h (3 Bft) S-SO 153 ° 0 min 0 W/m² 6,6 °C 7,1 °C 22,5 km/h (4 Bft)
14.03.2026 00:21 21,6 °C 12,3 °C 47 % 68 % 1000,8 hPa 0,0 l/m² 17,7 km/h (3 Bft) SO 146 ° 0 min 0 W/m² 6,6 °C 7,0 °C 24,1 km/h (4 Bft)
14.03.2026 00:22 21,6 °C 12,3 °C 47 % 68 % 1000,8 hPa 0,0 l/m² 16,5 km/h (3 Bft) SO 134 ° 0 min 0 W/m² 6,6 °C 7,4 °C 22,5 km/h (4 Bft)
14.03.2026 00:23 21,6 °C 12,3 °C 47 % 68 % 1000,8 hPa 0,0 l/m² 17,6 km/h (3 Bft) S-SO 150 ° 0 min 0 W/m² 6,6 °C 7,0 °C 20,9 km/h (4 Bft)
14.03.2026 00:24 21,6 °C 12,3 °C 47 % 68 % 1000,8 hPa 0,0 l/m² 14,9 km/h (3 Bft) SO 138 ° 0 min 0 W/m² 6,6 °C 8,0 °C 17,7 km/h (3 Bft)
14.03.2026 00:26 21,6 °C 12,3 °C 47 % 68 % 1000,7 hPa 0,0 l/m² 14,0 km/h (3 Bft) S-SO 151 ° 0 min 0 W/m² 6,6 °C 8,3 °C 22,5 km/h (4 Bft)
14.03.2026 00:28 21,6 °C 12,3 °C 47 % 68 % 1000,7 hPa 0,0 l/m² 14,7 km/h (3 Bft) S-SO 159 ° 0 min 0 W/m² 6,6 °C 8,0 °C 20,9 km/h (4 Bft)
14.03.2026 00:30 21,6 °C 12,2 °C 47 % 68 % 1000,7 hPa 0,0 l/m² 16,1 km/h (3 Bft) S 169 ° 0 min 0 W/m² 6,5 °C 7,4 °C 22,5 km/h (4 Bft)
14.03.2026 00:33 21,6 °C 12,2 °C 47 % 69 % 1000,6 hPa 0,0 l/m² 13,6 km/h (3 Bft) S-SO 150 ° 0 min 0 W/m² 6,7 °C 8,4 °C 20,9 km/h (4 Bft)
14.03.2026 00:35 21,6 °C 12,2 °C 47 % 69 % 1000,6 hPa 0,0 l/m² 15,1 km/h (3 Bft) O-SO 121 ° 0 min 0 W/m² 6,7 °C 7,8 °C 19,3 km/h (3 Bft)
14.03.2026 00:37 21,6 °C 12,2 °C 47 % 69 % 1000,6 hPa 0,0 l/m² 13,4 km/h (3 Bft) S-SO 159 ° 0 min 0 W/m² 6,7 °C 8,4 °C 22,5 km/h (4 Bft)
14.03.2026 00:39 21,6 °C 12,1 °C 47 % 69 % 1000,5 hPa 0,0 l/m² 15,9 km/h (3 Bft) SO 142 ° 0 min 0 W/m² 6,6 °C 7,3 °C 22,5 km/h (4 Bft)
14.03.2026 00:41 21,6 °C 12,2 °C 47 % 69 % 1000,5 hPa 0,0 l/m² 15,1 km/h (3 Bft) S-SO 152 ° 0 min 0 W/m² 6,7 °C 7,8 °C 19,3 km/h (3 Bft)
14.03.2026 00:42 21,6 °C 12,1 °C 47 % 69 % 1000,5 hPa 0,0 l/m² 11,9 km/h (2 Bft) SO 138 ° 0 min 0 W/m² 6,6 °C 9,0 °C 17,7 km/h (3 Bft)
14.03.2026 00:43 21,6 °C 12,1 °C 47 % 69 % 1000,5 hPa 0,0 l/m² 11,9 km/h (2 Bft) S-SO 152 ° 0 min 0 W/m² 6,6 °C 9,0 °C 16,1 km/h (3 Bft)
14.03.2026 00:45 21,6 °C 12,1 °C 47 % 69 % 1000,4 hPa 0,0 l/m² 15,2 km/h (3 Bft) SO 146 ° 0 min 0 W/m² 6,6 °C 7,6 °C 20,9 km/h (4 Bft)
14.03.2026 00:46 21,6 °C 12,1 °C 47 % 69 % 1000,4 hPa 0,0 l/m² 16,4 km/h (3 Bft) SO 140 ° 0 min 0 W/m² 6,6 °C 7,2 °C 19,3 km/h (3 Bft)
14.03.2026 00:48 21,6 °C 12,1 °C 47 % 69 % 1000,4 hPa 0,0 l/m² 14,7 km/h (3 Bft) SO 142 ° 0 min 0 W/m² 6,6 °C 7,8 °C 17,7 km/h (3 Bft)
14.03.2026 00:50 21,6 °C 12,1 °C 47 % 69 % 1000,4 hPa 0,0 l/m² 12,2 km/h (2 Bft) O-SO 117 ° 0 min 0 W/m² 6,6 °C 8,8 °C 17,7 km/h (3 Bft)
14.03.2026 00:53 21,6 °C 12,1 °C 47 % 69 % 1000,3 hPa 0,0 l/m² 11,9 km/h (2 Bft) SO 133 ° 0 min 0 W/m² 6,6 °C 9,0 °C 17,7 km/h (3 Bft)
14.03.2026 00:55 21,6 °C 12,1 °C 47 % 69 % 1000,3 hPa 0,0 l/m² 12,1 km/h (2 Bft) SO 124 ° 0 min 0 W/m² 6,6 °C 8,9 °C 16,1 km/h (3 Bft)
14.03.2026 00:57 21,6 °C 12,1 °C 47 % 69 % 1000,2 hPa 0,0 l/m² 16,0 km/h (3 Bft) SO 136 ° 0 min 0 W/m² 6,6 °C 7,3 °C 24,1 km/h (4 Bft)
14.03.2026 00:59 21,5 °C 12,1 °C 47 % 69 % 1000,3 hPa 0,0 l/m² 14,2 km/h (3 Bft) S-SO 154 ° 0 min 0 W/m² 6,6 °C 8,0 °C 20,9 km/h (4 Bft)
14.03.2026 01:01 21,6 °C 12,1 °C 47 % 69 % 1000,3 hPa 0,0 l/m² 12,3 km/h (2 Bft) SO 126 ° 0 min 0 W/m² 6,6 °C 8,8 °C 16,1 km/h (3 Bft)
14.03.2026 01:02 21,6 °C 12,1 °C 47 % 69 % 1000,3 hPa 0,0 l/m² 11,8 km/h (2 Bft) SO 130 ° 0 min 0 W/m² 6,6 °C 9,0 °C 16,1 km/h (3 Bft)
14.03.2026 01:03 21,6 °C 12,1 °C 47 % 69 % 1000,3 hPa 0,0 l/m² 14,2 km/h (3 Bft) SO 128 ° 0 min 0 W/m² 6,6 °C 8,0 °C 19,3 km/h (3 Bft)
14.03.2026 01:05 21,6 °C 12,1 °C 47 % 69 % 1000,2 hPa 0,0 l/m² 15,2 km/h (3 Bft) O-SO 122 ° 0 min 0 W/m² 6,6 °C 7,6 °C 20,9 km/h (4 Bft)
14.03.2026 01:07 21,6 °C 12,1 °C 47 % 69 % 1000,2 hPa 0,0 l/m² 14,2 km/h (3 Bft) SO 129 ° 0 min 0 W/m² 6,6 °C 8,0 °C 17,7 km/h (3 Bft)
14.03.2026 01:09 21,6 °C 12,1 °C 47 % 69 % 1000,2 hPa 0,0 l/m² 15,3 km/h (3 Bft) SO 128 ° 0 min 0 W/m² 6,6 °C 7,6 °C 20,9 km/h (4 Bft)
14.03.2026 01:11 21,6 °C 12,1 °C 47 % 69 % 1000,1 hPa 0,0 l/m² 13,7 km/h (3 Bft) O-SO 121 ° 0 min 0 W/m² 6,6 °C 8,2 °C 19,3 km/h (3 Bft)
14.03.2026 01:12 21,6 °C 12,1 °C 47 % 69 % 1000,1 hPa 0,0 l/m² 13,5 km/h (3 Bft) O-SO 123 ° 0 min 0 W/m² 6,6 °C 8,3 °C 17,7 km/h (3 Bft)
14.03.2026 01:13 21,6 °C 12,1 °C 47 % 69 % 1000,1 hPa 0,0 l/m² 15,4 km/h (3 Bft) SO 129 ° 0 min 0 W/m² 6,6 °C 7,5 °C 17,7 km/h (3 Bft)
14.03.2026 01:14 21,5 °C 12,0 °C 47 % 70 % 1000,1 hPa 0,0 l/m² 13,7 km/h (3 Bft) SO 126 ° 0 min 0 W/m² 6,7 °C 8,1 °C 16,1 km/h (3 Bft)
14.03.2026 01:16 21,6 °C 11,9 °C 47 % 69 % 1000,1 hPa 0,0 l/m² 13,5 km/h (3 Bft) O-SO 123 ° 0 min 0 W/m² 6,4 °C 8,0 °C 19,3 km/h (3 Bft)
14.03.2026 01:18 21,6 °C 11,9 °C 47 % 70 % 1000,1 hPa 0,0 l/m² 15,0 km/h (3 Bft) SO 138 ° 0 min 0 W/m² 6,6 °C 7,4 °C 22,5 km/h (4 Bft)
14.03.2026 01:20 21,6 °C 11,9 °C 47 % 70 % 1000,1 hPa 0,0 l/m² 14,4 km/h (3 Bft) SO 146 ° 0 min 0 W/m² 6,6 °C 7,7 °C 19,3 km/h (3 Bft)
14.03.2026 01:23 21,6 °C 11,9 °C 47 % 70 % 1000,0 hPa 0,0 l/m² 13,9 km/h (3 Bft) S 174 ° 0 min 0 W/m² 6,6 °C 7,9 °C 19,3 km/h (3 Bft)
14.03.2026 01:25 21,6 °C 11,9 °C 47 % 70 % 1000,1 hPa 0,0 l/m² 15,5 km/h (3 Bft) SO 135 ° 0 min 0 W/m² 6,6 °C 7,2 °C 20,9 km/h (4 Bft)
14.03.2026 01:27 21,6 °C 11,9 °C 47 % 70 % 1000,0 hPa 0,0 l/m² 16,5 km/h (3 Bft) SO 140 ° 0 min 0 W/m² 6,6 °C 6,9 °C 22,5 km/h (4 Bft)
14.03.2026 01:29 21,6 °C 11,9 °C 47 % 70 % 1000,0 hPa 0,0 l/m² 15,1 km/h (3 Bft) SO 140 ° 0 min 0 W/m² 6,6 °C 7,4 °C 19,3 km/h (3 Bft)
14.03.2026 01:31 21,5 °C 11,9 °C 47 % 70 % 999,9 hPa 0,0 l/m² 14,5 km/h (3 Bft) SO 144 ° 0 min 0 W/m² 6,6 °C 7,6 °C 20,9 km/h (4 Bft)
14.03.2026 01:32 21,6 °C 11,9 °C 47 % 70 % 1000,0 hPa 0,0 l/m² 12,3 km/h (2 Bft) S-SO 150 ° 0 min 0 W/m² 6,6 °C 8,6 °C 14,5 km/h (3 Bft)
14.03.2026 01:33 21,6 °C 11,9 °C 47 % 70 % 1000,0 hPa 0,0 l/m² 13,3 km/h (3 Bft) SO 141 ° 0 min 0 W/m² 6,6 °C 8,1 °C 16,1 km/h (3 Bft)
14.03.2026 01:35 21,5 °C 11,9 °C 47 % 70 % 999,9 hPa 0,0 l/m² 14,9 km/h (3 Bft) S-SO 157 ° 0 min 0 W/m² 6,6 °C 7,5 °C 20,9 km/h (4 Bft)
14.03.2026 01:36 21,6 °C 11,9 °C 47 % 70 % 999,9 hPa 0,0 l/m² 13,4 km/h (3 Bft) SO 132 ° 0 min 0 W/m² 6,6 °C 8,1 °C 17,7 km/h (3 Bft)
14.03.2026 01:37 21,6 °C 11,9 °C 47 % 70 % 999,9 hPa 0,0 l/m² 12,0 km/h (2 Bft) S-SO 147 ° 0 min 0 W/m² 6,6 °C 8,7 °C 14,5 km/h (3 Bft)
14.03.2026 01:38 21,6 °C 11,9 °C 47 % 70 % 999,9 hPa 0,0 l/m² 12,1 km/h (2 Bft) S-SO 163 ° 0 min 0 W/m² 6,6 °C 8,7 °C 16,1 km/h (3 Bft)
14.03.2026 01:40 21,5 °C 11,9 °C 47 % 70 % 999,8 hPa 0,0 l/m² 10,7 km/h (2 Bft) SO 127 ° 0 min 0 W/m² 6,6 °C 9,3 °C 14,5 km/h (3 Bft)
14.03.2026 01:43 21,5 °C 11,9 °C 47 % 70 % 999,8 hPa 0,0 l/m² 11,6 km/h (2 Bft) SO 136 ° 0 min 0 W/m² 6,6 °C 8,9 °C 17,7 km/h (3 Bft)
14.03.2026 01:45 21,5 °C 11,8 °C 47 % 70 % 999,7 hPa 0,0 l/m² 12,5 km/h (2 Bft) O-SO 122 ° 0 min 0 W/m² 6,5 °C 8,4 °C 19,3 km/h (3 Bft)
14.03.2026 01:47 21,5 °C 11,9 °C 47 % 70 % 999,7 hPa 0,0 l/m² 13,3 km/h (3 Bft) SO 128 ° 0 min 0 W/m² 6,6 °C 8,1 °C 17,7 km/h (3 Bft)
14.03.2026 01:49 21,5 °C 11,9 °C 47 % 70 % 999,7 hPa 0,0 l/m² 12,5 km/h (2 Bft) S-SO 155 ° 0 min 0 W/m² 6,6 °C 8,5 °C 17,7 km/h (3 Bft)
14.03.2026 01:51 21,5 °C 11,8 °C 47 % 70 % 999,6 hPa 0,0 l/m² 12,7 km/h (3 Bft) SO 126 ° 0 min 0 W/m² 6,5 °C 8,3 °C 17,7 km/h (3 Bft)
14.03.2026 01:52 21,5 °C 11,8 °C 47 % 70 % 999,6 hPa 0,0 l/m² 14,3 km/h (3 Bft) S-SO 152 ° 0 min 0 W/m² 6,5 °C 7,6 °C 20,9 km/h (4 Bft)
14.03.2026 01:53 21,5 °C 11,8 °C 47 % 70 % 999,7 hPa 0,0 l/m² 14,3 km/h (3 Bft) SO 137 ° 0 min 0 W/m² 6,5 °C 7,6 °C 16,1 km/h (3 Bft)
14.03.2026 01:55 21,5 °C 11,8 °C 47 % 70 % 999,6 hPa 0,0 l/m² 14,4 km/h (3 Bft) SO 136 ° 0 min 0 W/m² 6,5 °C 7,6 °C 19,3 km/h (3 Bft)
14.03.2026 01:56 21,5 °C 11,8 °C 47 % 70 % 999,5 hPa 0,0 l/m² 13,7 km/h (3 Bft) SO 143 ° 0 min 0 W/m² 6,5 °C 7,8 °C 16,1 km/h (3 Bft)
14.03.2026 01:57 21,4 °C 11,8 °C 47 % 70 % 999,5 hPa 0,0 l/m² 14,8 km/h (3 Bft) S-SO 147 ° 0 min 0 W/m² 6,5 °C 7,4 °C 17,7 km/h (3 Bft)
14.03.2026 01:58 21,4 °C 11,8 °C 47 % 70 % 999,5 hPa 0,0 l/m² 21,7 km/h (4 Bft) SO 142 ° 0 min 0 W/m² 6,5 °C 5,1 °C 29,0 km/h (5 Bft)
14.03.2026 02:00 21,5 °C 11,8 °C 47 % 70 % 999,5 hPa 0,0 l/m² 16,4 km/h (3 Bft) SO 132 ° 0 min 0 W/m² 6,5 °C 6,8 °C 25,7 km/h (4 Bft)
14.03.2026 02:02 21,5 °C 11,8 °C 47 % 70 % 999,4 hPa 0,0 l/m² 16,7 km/h (3 Bft) SO 136 ° 0 min 0 W/m² 6,5 °C 6,7 °C 20,9 km/h (4 Bft)
14.03.2026 02:03 21,5 °C 11,8 °C 47 % 70 % 999,4 hPa 0,0 l/m² 15,2 km/h (3 Bft) SO 136 ° 0 min 0 W/m² 6,5 °C 7,2 °C 17,7 km/h (3 Bft)
14.03.2026 02:04 21,5 °C 11,8 °C 47 % 70 % 999,3 hPa 0,0 l/m² 13,6 km/h (3 Bft) S-SO 150 ° 0 min 0 W/m² 6,5 °C 7,9 °C 16,1 km/h (3 Bft)
14.03.2026 02:06 21,4 °C 11,8 °C 47 % 70 % 999,3 hPa 0,0 l/m² 15,3 km/h (3 Bft) SO 128 ° 0 min 0 W/m² 6,5 °C 7,2 °C 20,9 km/h (4 Bft)
14.03.2026 02:08 21,5 °C 11,8 °C 47 % 70 % 999,3 hPa 0,0 l/m² 15,3 km/h (3 Bft) SO 146 ° 0 min 0 W/m² 6,5 °C 7,2 °C 20,9 km/h (4 Bft)
14.03.2026 02:10 21,4 °C 11,8 °C 47 % 70 % 999,3 hPa 0,0 l/m² 15,7 km/h (3 Bft) SO 134 ° 0 min 0 W/m² 6,5 °C 7,0 °C 22,5 km/h (4 Bft)
14.03.2026 02:12 21,4 °C 11,8 °C 47 % 69 % 999,2 hPa 0,0 l/m² 16,4 km/h (3 Bft) SO 136 ° 0 min 0 W/m² 6,3 °C 6,8 °C 19,3 km/h (3 Bft)
14.03.2026 02:14 21,4 °C 11,8 °C 47 % 69 % 999,2 hPa 0,0 l/m² 14,1 km/h (3 Bft) S-SO 150 ° 0 min 0 W/m² 6,3 °C 7,7 °C 20,9 km/h (4 Bft)
14.03.2026 02:16 21,4 °C 11,8 °C 47 % 69 % 999,1 hPa 0,0 l/m² 16,8 km/h (3 Bft) SO 138 ° 0 min 0 W/m² 6,3 °C 6,7 °C 22,5 km/h (4 Bft)
14.03.2026 02:18 21,5 °C 11,8 °C 47 % 69 % 999,2 hPa 0,0 l/m² 16,1 km/h (3 Bft) SO 140 ° 0 min 0 W/m² 6,3 °C 6,9 °C 22,5 km/h (4 Bft)
14.03.2026 02:20 21,4 °C 11,8 °C 47 % 69 % 999,1 hPa 0,0 l/m² 15,8 km/h (3 Bft) S-SO 152 ° 0 min 0 W/m² 6,3 °C 7,0 °C 20,9 km/h (4 Bft)
14.03.2026 02:23 21,4 °C 11,8 °C 47 % 69 % 999,0 hPa 0,0 l/m² 16,8 km/h (3 Bft) SO 138 ° 0 min 0 W/m² 6,3 °C 6,7 °C 27,4 km/h (5 Bft)
14.03.2026 02:25 21,4 °C 11,8 °C 47 % 69 % 999,0 hPa 0,0 l/m² 17,6 km/h (3 Bft) SO 128 ° 0 min 0 W/m² 6,3 °C 6,4 °C 22,5 km/h (4 Bft)
14.03.2026 02:27 21,4 °C 11,8 °C 47 % 68 % 998,9 hPa 0,0 l/m² 17,0 km/h (3 Bft) SO 136 ° 0 min 0 W/m² 6,1 °C 6,6 °C 25,7 km/h (4 Bft)
14.03.2026 02:29 21,4 °C 11,8 °C 47 % 68 % 999,0 hPa 0,0 l/m² 16,7 km/h (3 Bft) SO 140 ° 0 min 0 W/m² 6,1 °C 6,7 °C 22,5 km/h (4 Bft)
14.03.2026 02:31 21,4 °C 11,8 °C 47 % 68 % 998,8 hPa 0,0 l/m² 16,1 km/h (3 Bft) S-SO 159 ° 0 min 0 W/m² 6,1 °C 6,9 °C 20,9 km/h (4 Bft)
14.03.2026 02:34 21,4 °C 11,8 °C 47 % 68 % 998,9 hPa 0,0 l/m² 17,7 km/h (3 Bft) S-SO 159 ° 0 min 0 W/m² 6,1 °C 6,3 °C 27,4 km/h (5 Bft)
14.03.2026 02:36 21,4 °C 11,8 °C 47 % 68 % 998,8 hPa 0,0 l/m² 18,8 km/h (3 Bft) SO 144 ° 0 min 0 W/m² 6,1 °C 6,0 °C 24,1 km/h (4 Bft)
14.03.2026 02:38 21,4 °C 11,9 °C 47 % 68 % 998,7 hPa 0,0 l/m² 18,6 km/h (3 Bft) SO 130 ° 0 min 0 W/m² 6,2 °C 6,2 °C 27,4 km/h (5 Bft)
14.03.2026 02:40 21,4 °C 11,9 °C 47 % 68 % 998,7 hPa 0,0 l/m² 14,6 km/h (3 Bft) S-SO 153 ° 0 min 0 W/m² 6,2 °C 7,6 °C 22,5 km/h (4 Bft)
14.03.2026 02:43 21,4 °C 11,9 °C 47 % 68 % 998,7 hPa 0,0 l/m² 16,8 km/h (3 Bft) SO 142 ° 0 min 0 W/m² 6,2 °C 6,8 °C 27,4 km/h (5 Bft)
14.03.2026 02:45 21,4 °C 11,9 °C 47 % 68 % 998,6 hPa 0,0 l/m² 16,2 km/h (3 Bft) SO 145 ° 0 min 0 W/m² 6,2 °C 7,0 °C 24,1 km/h (4 Bft)
14.03.2026 02:47 21,4 °C 11,9 °C 47 % 68 % 998,5 hPa 0,0 l/m² 16,8 km/h (3 Bft) SO 130 ° 0 min 0 W/m² 6,2 °C 6,8 °C 25,7 km/h (4 Bft)
14.03.2026 02:49 21,4 °C 11,9 °C 47 % 68 % 998,6 hPa 0,0 l/m² 17,5 km/h (3 Bft) SO 144 ° 0 min 0 W/m² 6,2 °C 6,5 °C 22,5 km/h (4 Bft)
14.03.2026 02:51 21,4 °C 11,9 °C 47 % 68 % 998,6 hPa 0,0 l/m² 15,0 km/h (3 Bft) S-SO 157 ° 0 min 0 W/m² 6,2 °C 7,4 °C 20,9 km/h (4 Bft)
14.03.2026 02:52 21,4 °C 11,9 °C 47 % 68 % 998,5 hPa 0,0 l/m² 15,5 km/h (3 Bft) SO 128 ° 0 min 0 W/m² 6,2 °C 7,2 °C 20,9 km/h (4 Bft)
14.03.2026 02:53 21,4 °C 11,9 °C 47 % 68 % 998,5 hPa 0,0 l/m² 17,1 km/h (3 Bft) SO 126 ° 0 min 0 W/m² 6,2 °C 6,7 °C 20,9 km/h (4 Bft)
14.03.2026 02:55 21,4 °C 11,9 °C 47 % 67 % 998,5 hPa 0,0 l/m² 14,9 km/h (3 Bft) S-SO 159 ° 0 min 0 W/m² 6,0 °C 7,5 °C 19,3 km/h (3 Bft)
14.03.2026 02:57 21,4 °C 11,9 °C 47 % 67 % 998,4 hPa 0,0 l/m² 14,7 km/h (3 Bft) S-SO 148 ° 0 min 0 W/m² 6,0 °C 7,6 °C 24,1 km/h (4 Bft)
14.03.2026 02:59 21,4 °C 11,9 °C 47 % 67 % 998,4 hPa 0,0 l/m² 15,0 km/h (3 Bft) SO 138 ° 0 min 0 W/m² 6,0 °C 7,4 °C 22,5 km/h (4 Bft)
14.03.2026 03:01 21,4 °C 11,9 °C 47 % 67 % 998,3 hPa 0,0 l/m² 16,5 km/h (3 Bft) SO 132 ° 0 min 0 W/m² 6,0 °C 6,9 °C 19,3 km/h (3 Bft)
14.03.2026 03:02 21,4 °C 11,9 °C 47 % 67 % 998,2 hPa 0,0 l/m² 17,3 km/h (3 Bft) O-SO 122 ° 0 min 0 W/m² 6,0 °C 6,6 °C 20,9 km/h (4 Bft)
14.03.2026 03:03 21,4 °C 11,9 °C 47 % 67 % 998,2 hPa 0,0 l/m² 14,9 km/h (3 Bft) O-SO 123 ° 0 min 0 W/m² 6,0 °C 7,5 °C 17,7 km/h (3 Bft)
14.03.2026 03:05 21,4 °C 11,9 °C 47 % 67 % 998,2 hPa 0,0 l/m² 18,9 km/h (3 Bft) SO 132 ° 0 min 0 W/m² 6,0 °C 6,1 °C 24,1 km/h (4 Bft)
14.03.2026 03:06 21,4 °C 11,9 °C 47 % 67 % 998,2 hPa 0,0 l/m² 16,9 km/h (3 Bft) SO 146 ° 0 min 0 W/m² 6,0 °C 6,7 °C 22,5 km/h (4 Bft)
14.03.2026 03:07 21,4 °C 11,9 °C 47 % 67 % 998,1 hPa 0,0 l/m² 17,7 km/h (3 Bft) O-SO 118 ° 0 min 0 W/m² 6,0 °C 6,5 °C 22,5 km/h (4 Bft)
14.03.2026 03:08 21,4 °C 11,9 °C 47 % 67 % 998,1 hPa 0,0 l/m² 13,9 km/h (3 Bft) SO 142 ° 0 min 0 W/m² 6,0 °C 7,9 °C 17,7 km/h (3 Bft)
14.03.2026 03:10 21,4 °C 11,9 °C 47 % 67 % 998,1 hPa 0,0 l/m² 16,2 km/h (3 Bft) O-SO 123 ° 0 min 0 W/m² 6,0 °C 7,0 °C 20,9 km/h (4 Bft)
14.03.2026 03:13 21,4 °C 11,9 °C 47 % 67 % 998,0 hPa 0,0 l/m² 14,7 km/h (3 Bft) SO 141 ° 0 min 0 W/m² 6,0 °C 7,6 °C 20,9 km/h (4 Bft)
14.03.2026 03:15 21,4 °C 11,9 °C 47 % 67 % 998,0 hPa 0,0 l/m² 17,1 km/h (3 Bft) O-SO 113 ° 0 min 0 W/m² 6,0 °C 6,7 °C 22,5 km/h (4 Bft)
14.03.2026 03:17 21,4 °C 11,9 °C 47 % 66 % 997,9 hPa 0,0 l/m² 17,7 km/h (3 Bft) SO 136 ° 0 min 0 W/m² 5,8 °C 6,5 °C 24,1 km/h (4 Bft)
14.03.2026 03:19 21,4 °C 11,9 °C 47 % 66 % 997,8 hPa 0,0 l/m² 18,0 km/h (3 Bft) SO 133 ° 0 min 0 W/m² 5,8 °C 6,4 °C 24,1 km/h (4 Bft)
14.03.2026 03:21 21,4 °C 11,9 °C 47 % 66 % 997,8 hPa 0,0 l/m² 18,2 km/h (3 Bft) O-SO 119 ° 0 min 0 W/m² 5,8 °C 6,3 °C 24,1 km/h (4 Bft)
14.03.2026 03:22 21,4 °C 11,9 °C 47 % 66 % 997,8 hPa 0,0 l/m² 16,7 km/h (3 Bft) SO 132 ° 0 min 0 W/m² 5,8 °C 6,8 °C 20,9 km/h (4 Bft)
14.03.2026 03:23 21,4 °C 11,9 °C 47 % 66 % 997,8 hPa 0,0 l/m² 15,7 km/h (3 Bft) SO 124 ° 0 min 0 W/m² 5,8 °C 7,2 °C 19,3 km/h (3 Bft)
14.03.2026 03:25 21,4 °C 11,9 °C 47 % 66 % 997,8 hPa 0,0 l/m² 16,8 km/h (3 Bft) SO 137 ° 0 min 0 W/m² 5,8 °C 6,8 °C 19,3 km/h (3 Bft)
14.03.2026 03:26 21,4 °C 11,9 °C 47 % 66 % 997,8 hPa 0,0 l/m² 15,6 km/h (3 Bft) SO 142 ° 0 min 0 W/m² 5,8 °C 7,2 °C 20,9 km/h (4 Bft)
14.03.2026 03:27 21,4 °C 11,9 °C 47 % 66 % 997,8 hPa 0,0 l/m² 17,3 km/h (3 Bft) SO 128 ° 0 min 0 W/m² 5,8 °C 6,6 °C 19,3 km/h (3 Bft)
14.03.2026 03:28 21,4 °C 11,9 °C 47 % 66 % 997,8 hPa 0,0 l/m² 17,6 km/h (3 Bft) SO 127 ° 0 min 0 W/m² 5,8 °C 6,5 °C 20,9 km/h (4 Bft)
14.03.2026 03:30 21,4 °C 11,9 °C 47 % 66 % 997,8 hPa 0,0 l/m² 21,1 km/h (4 Bft) SO 125 ° 0 min 0 W/m² 5,8 °C 5,4 °C 27,4 km/h (5 Bft)
14.03.2026 03:33 21,4 °C 11,9 °C 47 % 66 % 997,7 hPa 0,0 l/m² 16,5 km/h (3 Bft) SO 131 ° 0 min 0 W/m² 5,8 °C 6,9 °C 24,1 km/h (4 Bft)
14.03.2026 03:35 21,4 °C 11,9 °C 47 % 66 % 997,8 hPa 0,0 l/m² 20,3 km/h (4 Bft) O-SO 115 ° 0 min 0 W/m² 5,8 °C 5,7 °C 29,0 km/h (5 Bft)
14.03.2026 03:37 21,4 °C 11,9 °C 47 % 66 % 997,7 hPa 0,0 l/m² 20,4 km/h (4 Bft) SO 130 ° 0 min 0 W/m² 5,8 °C 5,6 °C 24,1 km/h (4 Bft)
14.03.2026 03:39 21,3 °C 11,9 °C 47 % 66 % 997,7 hPa 0,0 l/m² 17,0 km/h (3 Bft) S-SO 149 ° 0 min 0 W/m² 5,8 °C 6,7 °C 22,5 km/h (4 Bft)
14.03.2026 03:41 21,4 °C 12,0 °C 47 % 66 % 997,6 hPa 0,0 l/m² 18,3 km/h (3 Bft) SO 136 ° 0 min 0 W/m² 5,8 °C 6,4 °C 25,7 km/h (4 Bft)
14.03.2026 03:42 21,3 °C 11,9 °C 47 % 66 % 997,7 hPa 0,0 l/m² 14,2 km/h (3 Bft) SO 136 ° 0 min 0 W/m² 5,8 °C 7,8 °C 20,9 km/h (4 Bft)
14.03.2026 03:43 21,3 °C 11,9 °C 47 % 66 % 997,7 hPa 0,0 l/m² 17,6 km/h (3 Bft) SO 129 ° 0 min 0 W/m² 5,8 °C 6,5 °C 27,4 km/h (5 Bft)
14.03.2026 03:45 21,4 °C 11,9 °C 47 % 66 % 997,6 hPa 0,0 l/m² 18,7 km/h (3 Bft) O-SO 111 ° 0 min 0 W/m² 5,8 °C 6,1 °C 29,0 km/h (5 Bft)
14.03.2026 03:46 21,4 °C 11,9 °C 47 % 66 % 997,5 hPa 0,0 l/m² 14,2 km/h (3 Bft) SO 144 ° 0 min 0 W/m² 5,8 °C 7,8 °C 22,5 km/h (4 Bft)
14.03.2026 03:47 21,4 °C 11,9 °C 47 % 66 % 997,5 hPa 0,0 l/m² 15,1 km/h (3 Bft) SO 131 ° 0 min 0 W/m² 5,8 °C 7,4 °C 20,9 km/h (4 Bft)
14.03.2026 03:48 21,4 °C 11,9 °C 47 % 66 % 997,5 hPa 0,0 l/m² 18,4 km/h (3 Bft) SO 130 ° 0 min 0 W/m² 5,8 °C 6,2 °C 20,9 km/h (4 Bft)
14.03.2026 03:50 21,4 °C 11,9 °C 47 % 66 % 997,5 hPa 0,0 l/m² 16,8 km/h (3 Bft) SO 145 ° 0 min 0 W/m² 5,8 °C 6,8 °C 25,7 km/h (4 Bft)
14.03.2026 03:53 21,4 °C 11,9 °C 47 % 66 % 997,6 hPa 0,0 l/m² 15,4 km/h (3 Bft) SO 142 ° 0 min 0 W/m² 5,8 °C 7,3 °C 20,9 km/h (4 Bft)
14.03.2026 03:55 21,4 °C 11,9 °C 47 % 66 % 997,5 hPa 0,0 l/m² 16,0 km/h (3 Bft) SO 136 ° 0 min 0 W/m² 5,8 °C 7,1 °C 22,5 km/h (4 Bft)
14.03.2026 03:57 21,4 °C 11,9 °C 47 % 67 % 997,5 hPa 0,0 l/m² 15,8 km/h (3 Bft) SO 130 ° 0 min 0 W/m² 6,0 °C 7,1 °C 22,5 km/h (4 Bft)
14.03.2026 03:59 21,4 °C 11,9 °C 47 % 67 % 997,5 hPa 0,0 l/m² 16,7 km/h (3 Bft) SO 139 ° 0 min 0 W/m² 6,0 °C 6,8 °C 22,5 km/h (4 Bft)
14.03.2026 04:01 21,4 °C 11,8 °C 47 % 67 % 997,4 hPa 0,0 l/m² 15,4 km/h (3 Bft) O-SO 111 ° 0 min 0 W/m² 5,9 °C 7,2 °C 20,9 km/h (4 Bft)
14.03.2026 04:02 21,4 °C 11,8 °C 47 % 67 % 997,5 hPa 0,0 l/m² 13,9 km/h (3 Bft) SO 126 ° 0 min 0 W/m² 5,9 °C 7,8 °C 17,7 km/h (3 Bft)
14.03.2026 04:03 21,4 °C 11,9 °C 47 % 67 % 997,4 hPa 0,0 l/m² 17,9 km/h (3 Bft) SO 142 ° 0 min 0 W/m² 6,0 °C 6,4 °C 20,9 km/h (4 Bft)
14.03.2026 04:05 21,4 °C 11,8 °C 47 % 67 % 997,4 hPa 0,0 l/m² 16,7 km/h (3 Bft) SO 134 ° 0 min 0 W/m² 5,9 °C 6,7 °C 20,9 km/h (4 Bft)
14.03.2026 04:07 21,4 °C 11,8 °C 47 % 67 % 997,4 hPa 0,0 l/m² 16,6 km/h (3 Bft) SO 128 ° 0 min 0 W/m² 5,9 °C 6,7 °C 22,5 km/h (4 Bft)
14.03.2026 04:09 21,4 °C 11,8 °C 47 % 67 % 997,4 hPa 0,0 l/m² 17,9 km/h (3 Bft) SO 124 ° 0 min 0 W/m² 5,9 °C 6,3 °C 25,7 km/h (4 Bft)
14.03.2026 04:11 21,4 °C 11,8 °C 47 % 68 % 997,3 hPa 0,0 l/m² 15,9 km/h (3 Bft) O-SO 114 ° 0 min 0 W/m² 6,1 °C 7,0 °C 24,1 km/h (4 Bft)
14.03.2026 04:12 21,4 °C 11,7 °C 47 % 68 % 997,4 hPa 0,0 l/m² 13,6 km/h (3 Bft) SO 133 ° 0 min 0 W/m² 6,0 °C 7,8 °C 17,7 km/h (3 Bft)
14.03.2026 04:13 21,4 °C 11,7 °C 47 % 68 % 997,4 hPa 0,0 l/m² 18,6 km/h (3 Bft) O-SO 107 ° 0 min 0 W/m² 6,0 °C 5,9 °C 20,9 km/h (4 Bft)
14.03.2026 04:15 21,4 °C 11,7 °C 47 % 68 % 997,4 hPa 0,0 l/m² 15,5 km/h (3 Bft) O-SO 105 ° 0 min 0 W/m² 6,0 °C 7,0 °C 22,5 km/h (4 Bft)
14.03.2026 04:17 21,4 °C 11,7 °C 47 % 68 % 997,5 hPa 0,0 l/m² 19,8 km/h (3 Bft) SO 130 ° 0 min 0 W/m² 6,0 °C 5,5 °C 27,4 km/h (5 Bft)
14.03.2026 04:19 21,4 °C 11,7 °C 47 % 68 % 997,4 hPa 0,0 l/m² 17,7 km/h (3 Bft) SO 128 ° 0 min 0 W/m² 6,0 °C 6,2 °C 25,7 km/h (4 Bft)
14.03.2026 04:21 21,4 °C 11,6 °C 47 % 68 % 997,4 hPa 0,0 l/m² 15,8 km/h (3 Bft) SO 141 ° 0 min 0 W/m² 5,9 °C 6,8 °C 27,4 km/h (5 Bft)
14.03.2026 04:22 21,4 °C 11,6 °C 47 % 68 % 997,4 hPa 0,0 l/m² 17,2 km/h (3 Bft) O-SO 121 ° 0 min 0 W/m² 5,9 °C 6,3 °C 22,5 km/h (4 Bft)
14.03.2026 04:23 21,4 °C 11,6 °C 47 % 69 % 997,4 hPa 0,0 l/m² 17,6 km/h (3 Bft) O-SO 123 ° 0 min 0 W/m² 6,1 °C 6,1 °C 22,5 km/h (4 Bft)
14.03.2026 04:25 21,4 °C 11,6 °C 47 % 69 % 997,4 hPa 0,0 l/m² 19,1 km/h (3 Bft) SO 138 ° 0 min 0 W/m² 6,1 °C 5,6 °C 29,0 km/h (5 Bft)
14.03.2026 04:27 21,4 °C 11,6 °C 47 % 69 % 997,4 hPa 0,0 l/m² 20,7 km/h (4 Bft) O-SO 118 ° 0 min 0 W/m² 6,1 °C 5,1 °C 25,7 km/h (4 Bft)
14.03.2026 04:29 21,4 °C 11,6 °C 47 % 69 % 997,4 hPa 0,0 l/m² 17,4 km/h (3 Bft) O-SO 122 ° 0 min 0 W/m² 6,1 °C 6,2 °C 25,7 km/h (4 Bft)
14.03.2026 04:31 21,4 °C 11,5 °C 47 % 69 % 997,3 hPa 0,0 l/m² 19,3 km/h (3 Bft) SO 130 ° 0 min 0 W/m² 6,0 °C 5,4 °C 25,7 km/h (4 Bft)
14.03.2026 04:32 21,4 °C 11,6 °C 47 % 69 % 997,3 hPa 0,0 l/m² 17,4 km/h (3 Bft) SO 128 ° 0 min 0 W/m² 6,1 °C 6,2 °C 22,5 km/h (4 Bft)
14.03.2026 04:33 21,4 °C 11,5 °C 47 % 69 % 997,3 hPa 0,0 l/m² 17,8 km/h (3 Bft) O-SO 109 ° 0 min 0 W/m² 6,0 °C 5,9 °C 22,5 km/h (4 Bft)
14.03.2026 04:35 21,4 °C 11,4 °C 47 % 70 % 997,3 hPa 0,0 l/m² 18,0 km/h (3 Bft) O-SO 122 ° 0 min 0 W/m² 6,1 °C 5,7 °C 25,7 km/h (4 Bft)
14.03.2026 04:37 21,4 °C 11,4 °C 47 % 70 % 997,3 hPa 0,0 l/m² 16,6 km/h (3 Bft) SO 136 ° 0 min 0 W/m² 6,1 °C 6,2 °C 22,5 km/h (4 Bft)
14.03.2026 04:39 21,4 °C 11,3 °C 47 % 70 % 997,2 hPa 0,0 l/m² 17,6 km/h (3 Bft) O-SO 119 ° 0 min 0 W/m² 6,0 °C 5,7 °C 22,5 km/h (4 Bft)
14.03.2026 04:41 21,4 °C 11,3 °C 47 % 71 % 997,3 hPa 0,0 l/m² 17,4 km/h (3 Bft) SO 128 ° 0 min 0 W/m² 6,2 °C 5,8 °C 22,5 km/h (4 Bft)
14.03.2026 04:42 21,4 °C 11,3 °C 47 % 71 % 997,2 hPa 0,0 l/m² 14,9 km/h (3 Bft) O-SO 123 ° 0 min 0 W/m² 6,2 °C 6,7 °C 19,3 km/h (3 Bft)
14.03.2026 04:43 21,4 °C 11,3 °C 47 % 71 % 997,2 hPa 0,0 l/m² 16,0 km/h (3 Bft) O-SO 120 ° 0 min 0 W/m² 6,2 °C 6,3 °C 19,3 km/h (3 Bft)
14.03.2026 04:45 21,4 °C 11,2 °C 47 % 71 % 997,3 hPa 0,0 l/m² 15,1 km/h (3 Bft) SO 129 ° 0 min 0 W/m² 6,1 °C 6,5 °C 19,3 km/h (3 Bft)
14.03.2026 04:47 21,4 °C 11,2 °C 47 % 72 % 997,2 hPa 0,0 l/m² 15,7 km/h (3 Bft) SO 129 ° 0 min 0 W/m² 6,3 °C 6,3 °C 20,9 km/h (4 Bft)
14.03.2026 04:49 21,4 °C 11,2 °C 47 % 72 % 997,2 hPa 0,0 l/m² 14,1 km/h (3 Bft) SO 131 ° 0 min 0 W/m² 6,3 °C 7,0 °C 20,9 km/h (4 Bft)
14.03.2026 04:51 21,4 °C 11,1 °C 47 % 72 % 997,1 hPa 0,0 l/m² 12,5 km/h (2 Bft) O-SO 123 ° 0 min 0 W/m² 6,2 °C 7,5 °C 16,1 km/h (3 Bft)
14.03.2026 04:52 21,4 °C 11,1 °C 47 % 72 % 997,2 hPa 0,0 l/m² 13,2 km/h (3 Bft) O-SO 115 ° 0 min 0 W/m² 6,2 °C 7,2 °C 16,1 km/h (3 Bft)
14.03.2026 04:53 21,4 °C 11,1 °C 47 % 72 % 997,2 hPa 0,0 l/m² 14,3 km/h (3 Bft) SO 142 ° 0 min 0 W/m² 6,2 °C 6,8 °C 17,7 km/h (3 Bft)
14.03.2026 04:55 21,4 °C 11,1 °C 47 % 73 % 997,2 hPa 0,0 l/m² 14,9 km/h (3 Bft) O-SO 119 ° 0 min 0 W/m² 6,4 °C 6,5 °C 19,3 km/h (3 Bft)
14.03.2026 04:57 21,4 °C 11,0 °C 47 % 73 % 997,1 hPa 0,0 l/m² 12,7 km/h (3 Bft) O-SO 118 ° 0 min 0 W/m² 6,4 °C 7,3 °C 17,7 km/h (3 Bft)
14.03.2026 04:59 21,4 °C 10,9 °C 47 % 73 % 997,1 hPa 0,0 l/m² 13,2 km/h (3 Bft) SO 126 ° 0 min 0 W/m² 6,3 °C 7,0 °C 19,3 km/h (3 Bft)
14.03.2026 05:01 21,4 °C 10,9 °C 47 % 73 % 997,1 hPa 0,0 l/m² 12,9 km/h (3 Bft) O-SO 117 ° 0 min 0 W/m² 6,3 °C 7,1 °C 17,7 km/h (3 Bft)
14.03.2026 05:02 21,4 °C 10,9 °C 47 % 73 % 997,1 hPa 0,0 l/m² 10,8 km/h (2 Bft) SO 134 ° 0 min 0 W/m² 6,3 °C 8,2 °C 12,9 km/h (3 Bft)
14.03.2026 05:03 21,4 °C 10,9 °C 47 % 73 % 997,1 hPa 0,0 l/m² 13,9 km/h (3 Bft) SO 129 ° 0 min 0 W/m² 6,3 °C 6,7 °C 17,7 km/h (3 Bft)
14.03.2026 05:05 21,4 °C 10,9 °C 47 % 73 % 997,1 hPa 0,0 l/m² 14,0 km/h (3 Bft) SO 134 ° 0 min 0 W/m² 6,3 °C 6,6 °C 17,7 km/h (3 Bft)
14.03.2026 05:06 21,4 °C 10,8 °C 47 % 73 % 997,1 hPa 0,0 l/m² 13,5 km/h (3 Bft) O-SO 117 ° 0 min 0 W/m² 6,2 °C 6,7 °C 17,7 km/h (3 Bft)
14.03.2026 05:07 21,4 °C 10,8 °C 47 % 73 % 997,0 hPa 0,0 l/m² 14,0 km/h (3 Bft) O-SO 112 ° 0 min 0 W/m² 6,2 °C 6,5 °C 17,7 km/h (3 Bft)
14.03.2026 05:08 21,4 °C 10,8 °C 47 % 73 % 997,0 hPa 0,0 l/m² 15,7 km/h (3 Bft) SO 138 ° 0 min 0 W/m² 6,2 °C 5,8 °C 19,3 km/h (3 Bft)
14.03.2026 05:10 21,4 °C 10,8 °C 47 % 73 % 997,0 hPa 0,0 l/m² 14,4 km/h (3 Bft) SO 132 ° 0 min 0 W/m² 6,2 °C 6,4 °C 17,7 km/h (3 Bft)
14.03.2026 05:13 21,4 °C 10,8 °C 47 % 73 % 997,0 hPa 0,0 l/m² 14,9 km/h (3 Bft) O-SO 121 ° 0 min 0 W/m² 6,2 °C 6,1 °C 24,1 km/h (4 Bft)
14.03.2026 05:15 21,4 °C 10,8 °C 47 % 73 % 997,0 hPa 0,0 l/m² 16,7 km/h (3 Bft) SO 128 ° 0 min 0 W/m² 6,2 °C 5,4 °C 22,5 km/h (4 Bft)
14.03.2026 05:17 21,4 °C 10,8 °C 47 % 73 % 996,9 hPa 0,0 l/m² 15,2 km/h (3 Bft) SO 128 ° 0 min 0 W/m² 6,2 °C 6,0 °C 24,1 km/h (4 Bft)
14.03.2026 05:19 21,4 °C 10,8 °C 47 % 73 % 996,9 hPa 0,0 l/m² 17,3 km/h (3 Bft) SO 126 ° 0 min 0 W/m² 6,2 °C 5,2 °C 24,1 km/h (4 Bft)
14.03.2026 05:21 21,4 °C 10,8 °C 47 % 72 % 996,8 hPa 0,0 l/m² 16,6 km/h (3 Bft) O-SO 116 ° 0 min 0 W/m² 6,0 °C 5,5 °C 24,1 km/h (4 Bft)
14.03.2026 05:22 21,4 °C 10,8 °C 47 % 73 % 996,8 hPa 0,0 l/m² 18,0 km/h (3 Bft) O-SO 121 ° 0 min 0 W/m² 6,2 °C 5,0 °C 20,9 km/h (4 Bft)
14.03.2026 05:23 21,4 °C 10,8 °C 47 % 73 % 996,8 hPa 0,0 l/m² 16,7 km/h (3 Bft) SO 132 ° 0 min 0 W/m² 6,2 °C 5,4 °C 19,3 km/h (3 Bft)
14.03.2026 05:25 21,4 °C 10,8 °C 47 % 72 % 996,9 hPa 0,0 l/m² 17,5 km/h (3 Bft) SO 128 ° 0 min 0 W/m² 6,0 °C 5,2 °C 20,9 km/h (4 Bft)
14.03.2026 05:26 21,4 °C 10,8 °C 47 % 72 % 996,8 hPa 0,0 l/m² 15,2 km/h (3 Bft) O-SO 118 ° 0 min 0 W/m² 6,0 °C 6,0 °C 19,3 km/h (3 Bft)
14.03.2026 05:27 21,4 °C 10,8 °C 47 % 72 % 996,8 hPa 0,0 l/m² 16,2 km/h (3 Bft) O-SO 121 ° 0 min 0 W/m² 6,0 °C 5,6 °C 22,5 km/h (4 Bft)
14.03.2026 05:28 21,4 °C 10,8 °C 47 % 72 % 996,9 hPa 0,0 l/m² 15,2 km/h (3 Bft) SO 127 ° 0 min 0 W/m² 6,0 °C 6,0 °C 20,9 km/h (4 Bft)
14.03.2026 05:30 21,4 °C 10,8 °C 47 % 72 % 996,9 hPa 0,0 l/m² 16,4 km/h (3 Bft) O-SO 114 ° 0 min 0 W/m² 6,0 °C 5,6 °C 20,9 km/h (4 Bft)
14.03.2026 05:33 21,4 °C 10,8 °C 47 % 72 % 996,9 hPa 0,0 l/m² 15,9 km/h (3 Bft) O-SO 122 ° 0 min 0 W/m² 6,0 °C 5,7 °C 20,9 km/h (4 Bft)
14.03.2026 05:35 21,4 °C 10,8 °C 47 % 71 % 997,0 hPa 0,0 l/m² 16,1 km/h (3 Bft) SO 142 ° 0 min 0 W/m² 5,8 °C 5,7 °C 22,5 km/h (4 Bft)
14.03.2026 05:37 21,4 °C 10,8 °C 47 % 71 % 997,0 hPa 0,0 l/m² 14,1 km/h (3 Bft) SO 140 ° 0 min 0 W/m² 5,8 °C 6,5 °C 20,9 km/h (4 Bft)
14.03.2026 05:39 21,4 °C 10,8 °C 47 % 71 % 997,0 hPa 0,0 l/m² 13,5 km/h (3 Bft) S-SO 153 ° 0 min 0 W/m² 5,8 °C 6,7 °C 20,9 km/h (4 Bft)
14.03.2026 05:41 21,4 °C 10,8 °C 47 % 71 % 997,0 hPa 0,0 l/m² 15,3 km/h (3 Bft) O-SO 121 ° 0 min 0 W/m² 5,8 °C 6,0 °C 20,9 km/h (4 Bft)
14.03.2026 05:42 21,4 °C 10,8 °C 47 % 71 % 997,0 hPa 0,0 l/m² 15,2 km/h (3 Bft) SO 140 ° 0 min 0 W/m² 5,8 °C 6,0 °C 19,3 km/h (3 Bft)
14.03.2026 05:43 21,4 °C 10,8 °C 47 % 70 % 996,9 hPa 0,0 l/m² 12,3 km/h (2 Bft) S-SO 147 ° 0 min 0 W/m² 5,6 °C 7,3 °C 16,1 km/h (3 Bft)
14.03.2026 05:45 21,4 °C 10,8 °C 47 % 70 % 996,9 hPa 0,0 l/m² 14,4 km/h (3 Bft) SO 142 ° 0 min 0 W/m² 5,6 °C 6,4 °C 19,3 km/h (3 Bft)
14.03.2026 05:47 21,4 °C 10,9 °C 47 % 70 % 997,0 hPa 0,0 l/m² 11,0 km/h (2 Bft) SO 124 ° 0 min 0 W/m² 5,6 °C 8,1 °C 16,1 km/h (3 Bft)
14.03.2026 05:49 21,4 °C 10,8 °C 47 % 70 % 996,9 hPa 0,0 l/m² 14,1 km/h (3 Bft) SO 135 ° 0 min 0 W/m² 5,6 °C 6,5 °C 17,7 km/h (3 Bft)
14.03.2026 05:51 21,4 °C 10,9 °C 47 % 70 % 996,9 hPa 0,0 l/m² 14,4 km/h (3 Bft) SO 137 ° 0 min 0 W/m² 5,6 °C 6,5 °C 20,9 km/h (4 Bft)
14.03.2026 05:52 21,4 °C 10,8 °C 47 % 70 % 996,9 hPa 0,0 l/m² 15,5 km/h (3 Bft) O-SO 123 ° 0 min 0 W/m² 5,6 °C 5,9 °C 19,3 km/h (3 Bft)
14.03.2026 05:53 21,4 °C 10,9 °C 47 % 70 % 996,9 hPa 0,0 l/m² 12,4 km/h (2 Bft) SO 132 ° 0 min 0 W/m² 5,6 °C 7,4 °C 16,1 km/h (3 Bft)
14.03.2026 05:55 21,4 °C 10,9 °C 47 % 69 % 996,9 hPa 0,0 l/m² 13,9 km/h (3 Bft) O-SO 122 ° 0 min 0 W/m² 5,4 °C 6,7 °C 19,3 km/h (3 Bft)
14.03.2026 05:56 21,4 °C 10,9 °C 47 % 69 % 996,9 hPa 0,0 l/m² 12,2 km/h (2 Bft) SO 130 ° 0 min 0 W/m² 5,4 °C 7,5 °C 14,5 km/h (3 Bft)
14.03.2026 05:57 21,4 °C 10,9 °C 47 % 69 % 996,9 hPa 0,0 l/m² 12,1 km/h (2 Bft) SO 138 ° 0 min 0 W/m² 5,4 °C 7,5 °C 17,7 km/h (3 Bft)
14.03.2026 05:58 21,4 °C 10,9 °C 47 % 69 % 996,9 hPa 0,0 l/m² 11,3 km/h (2 Bft) O-SO 119 ° 0 min 0 W/m² 5,4 °C 7,9 °C 14,5 km/h (3 Bft)
14.03.2026 06:00 21,4 °C 10,9 °C 47 % 69 % 996,9 hPa 0,0 l/m² 12,4 km/h (2 Bft) SO 131 ° 0 min 0 W/m² 5,4 °C 7,4 °C 17,7 km/h (3 Bft)
14.03.2026 06:02 21,4 °C 10,9 °C 47 % 69 % 997,0 hPa 0,0 l/m² 10,7 km/h (2 Bft) SO 140 ° 0 min 0 W/m² 5,4 °C 8,2 °C 14,5 km/h (3 Bft)
14.03.2026 06:03 21,4 °C 10,9 °C 47 % 69 % 996,9 hPa 0,0 l/m² 11,7 km/h (2 Bft) SO 126 ° 0 min 0 W/m² 5,4 °C 7,7 °C 14,5 km/h (3 Bft)
14.03.2026 06:04 21,4 °C 10,9 °C 47 % 69 % 996,9 hPa 0,0 l/m² 8,8 km/h (2 Bft) O-SO 121 ° 0 min 0 W/m² 5,4 °C 9,3 °C 11,3 km/h (2 Bft)
14.03.2026 06:06 21,4 °C 10,9 °C 47 % 69 % 997,0 hPa 0,0 l/m² 9,9 km/h (2 Bft) SO 127 ° 0 min 0 W/m² 5,4 °C 8,6 °C 14,5 km/h (3 Bft)
14.03.2026 06:08 21,4 °C 10,9 °C 47 % 69 % 996,9 hPa 0,0 l/m² 9,1 km/h (2 Bft) O-SO 115 ° 0 min 0 W/m² 5,4 °C 9,1 °C 12,9 km/h (3 Bft)
14.03.2026 06:09 21,4 °C 10,9 °C 47 % 69 % 996,9 hPa 0,0 l/m² 12,6 km/h (3 Bft) O-SO 111 ° 0 min 0 W/m² 5,4 °C 7,3 °C 14,5 km/h (3 Bft)
14.03.2026 06:10 21,4 °C 10,9 °C 47 % 69 % 996,9 hPa 0,0 l/m² 9,5 km/h (2 Bft) SO 127 ° 0 min 0 W/m² 5,4 °C 8,9 °C 12,9 km/h (3 Bft)
14.03.2026 06:13 21,4 °C 10,9 °C 47 % 69 % 996,9 hPa 0,0 l/m² 10,9 km/h (2 Bft) SO 132 ° 0 min 0 W/m² 5,4 °C 8,1 °C 16,1 km/h (3 Bft)
14.03.2026 06:15 21,4 °C 10,8 °C 47 % 69 % 997,0 hPa 0,0 l/m² 11,2 km/h (2 Bft) O-SO 119 ° 0 min 0 W/m² 5,3 °C 7,8 °C 14,5 km/h (3 Bft)
14.03.2026 06:17 21,4 °C 10,8 °C 47 % 69 % 996,9 hPa 0,0 l/m² 10,6 km/h (2 Bft) SO 129 ° 0 min 0 W/m² 5,3 °C 8,2 °C 14,5 km/h (3 Bft)
14.03.2026 06:19 21,4 °C 10,8 °C 47 % 69 % 997,0 hPa 0,0 l/m² 11,2 km/h (2 Bft) O-SO 119 ° 0 min 0 W/m² 5,3 °C 7,8 °C 16,1 km/h (3 Bft)
14.03.2026 06:21 21,4 °C 10,8 °C 47 % 69 % 997,0 hPa 0,0 l/m² 7,5 km/h (2 Bft) O-SO 115 ° 0 min 0 W/m² 5,3 °C 10,0 °C 12,9 km/h (3 Bft)
14.03.2026 06:22 21,4 °C 10,9 °C 47 % 69 % 997,0 hPa 0,0 l/m² 7,5 km/h (2 Bft) SO 127 ° 0 min 0 W/m² 5,4 °C 10,1 °C 12,9 km/h (3 Bft)
14.03.2026 06:23 21,4 °C 10,8 °C 47 % 69 % 997,0 hPa 0,0 l/m² 5,8 km/h (2 Bft) SO 136 ° 0 min 0 W/m² 5,3 °C 10,8 °C 9,7 km/h (2 Bft)
14.03.2026 06:25 21,4 °C 10,9 °C 47 % 69 % 997,0 hPa 0,0 l/m² 5,3 km/h (1 Bft) O-SO 103 ° 0 min 0 W/m² 5,4 °C 10,9 °C 9,7 km/h (2 Bft)
14.03.2026 06:26 21,4 °C 10,8 °C 47 % 69 % 997,1 hPa 0,0 l/m² 5,9 km/h (2 Bft) O-SO 105 ° 0 min 0 W/m² 5,3 °C 10,8 °C 11,3 km/h (2 Bft)
14.03.2026 06:27 21,4 °C 10,8 °C 47 % 69 % 997,1 hPa 0,0 l/m² 7,8 km/h (2 Bft) O-SO 113 ° 0 min 0 W/m² 5,3 °C 9,8 °C 16,1 km/h (3 Bft)
14.03.2026 06:28 21,4 °C 10,8 °C 47 % 69 % 997,1 hPa 0,0 l/m² 7,4 km/h (2 Bft) O-SO 121 ° 0 min 0 W/m² 5,3 °C 10,1 °C 12,9 km/h (3 Bft)
14.03.2026 06:30 21,4 °C 10,8 °C 47 % 69 % 997,1 hPa 0,0 l/m² 6,2 km/h (2 Bft) SO 134 ° 0 min 0 W/m² 5,3 °C 10,8 °C 11,3 km/h (2 Bft)
14.03.2026 06:33 21,4 °C 10,8 °C 47 % 69 % 997,0 hPa 0,0 l/m² 5,6 km/h (2 Bft) SO 132 ° 0 min 0 W/m² 5,3 °C 10,8 °C 8,0 km/h (2 Bft)
14.03.2026 06:35 21,4 °C 10,9 °C 47 % 69 % 997,1 hPa 0,0 l/m² 4,9 km/h (1 Bft) SO 142 ° 0 min 0 W/m² 5,4 °C 10,9 °C 8,0 km/h (2 Bft)
14.03.2026 06:37 21,4 °C 10,8 °C 47 % 69 % 997,1 hPa 0,0 l/m² 4,0 km/h (1 Bft) SO 143 ° 0 min 0 W/m² 5,3 °C 10,8 °C 6,4 km/h (2 Bft)
14.03.2026 06:39 21,4 °C 10,8 °C 47 % 70 % 997,0 hPa 0,0 l/m² 3,3 km/h (1 Bft) SO 144 ° 0 min 0 W/m² 5,6 °C 10,8 °C 4,8 km/h (1 Bft)
14.03.2026 06:41 21,4 °C 10,8 °C 47 % 70 % 996,9 hPa 0,0 l/m² 2,4 km/h (1 Bft) SO 133 ° 0 min 0 W/m² 5,6 °C 10,8 °C 4,8 km/h (1 Bft)
14.03.2026 06:42 21,4 °C 10,8 °C 47 % 70 % 997,0 hPa 0,0 l/m² 3,1 km/h (1 Bft) SO 132 ° 0 min 0 W/m² 5,6 °C 10,8 °C 4,8 km/h (1 Bft)
14.03.2026 06:43 21,4 °C 10,8 °C 47 % 70 % 997,0 hPa 0,0 l/m² 3,2 km/h (1 Bft) SO 137 ° 0 min 0 W/m² 5,6 °C 10,8 °C 4,8 km/h (1 Bft)
14.03.2026 06:45 21,4 °C 10,8 °C 47 % 70 % 997,0 hPa 0,0 l/m² 4,8 km/h (1 Bft) S 169 ° 0 min 0 W/m² 5,6 °C 10,8 °C 9,7 km/h (2 Bft)
14.03.2026 06:46 21,4 °C 10,8 °C 47 % 70 % 997,1 hPa 0,0 l/m² 3,8 km/h (1 Bft) S-SO 157 ° 0 min 0 W/m² 5,6 °C 10,8 °C 6,4 km/h (2 Bft)
14.03.2026 06:48 21,4 °C 10,8 °C 47 % 70 % 997,0 hPa 0,0 l/m² 5,0 km/h (1 Bft) S 173 ° 0 min 0 W/m² 5,6 °C 10,8 °C 9,7 km/h (2 Bft)
14.03.2026 06:49 21,4 °C 10,8 °C 47 % 71 % 996,9 hPa 0,0 l/m² 4,1 km/h (1 Bft) S 177 ° 0 min 0 W/m² 5,8 °C 10,8 °C 6,4 km/h (2 Bft)
14.03.2026 06:51 21,4 °C 10,8 °C 47 % 71 % 997,0 hPa 0,0 l/m² 5,6 km/h (2 Bft) S-SW 202 ° 0 min 5 W/m² 5,8 °C 10,8 °C 11,3 km/h (2 Bft)
14.03.2026 06:52 21,4 °C 10,8 °C 47 % 71 % 997,1 hPa 0,0 l/m² 9,5 km/h (2 Bft) S-SW 193 ° 0 min 5 W/m² 5,8 °C 8,8 °C 11,3 km/h (2 Bft)
14.03.2026 06:53 21,4 °C 10,8 °C 47 % 71 % 997,1 hPa 0,0 l/m² 7,3 km/h (2 Bft) S-SW 205 ° 0 min 5 W/m² 5,8 °C 10,2 °C 9,7 km/h (2 Bft)
14.03.2026 06:55 21,4 °C 10,8 °C 47 % 71 % 996,9 hPa 0,0 l/m² 9,0 km/h (2 Bft) S-SW 208 ° 0 min 5 W/m² 5,8 °C 9,1 °C 11,3 km/h (2 Bft)
14.03.2026 06:56 21,4 °C 10,8 °C 47 % 72 % 997,1 hPa 0,0 l/m² 7,4 km/h (2 Bft) S-SW 202 ° 0 min 5 W/m² 6,0 °C 10,1 °C 9,7 km/h (2 Bft)
14.03.2026 06:57 21,4 °C 10,8 °C 47 % 72 % 997,0 hPa 0,0 l/m² 9,7 km/h (2 Bft) S-SW 205 ° 0 min 5 W/m² 6,0 °C 8,6 °C 12,9 km/h (3 Bft)
14.03.2026 06:58 21,4 °C 10,8 °C 47 % 72 % 997,0 hPa 0,0 l/m² 8,8 km/h (2 Bft) S-SW 208 ° 0 min 7 W/m² 6,0 °C 9,2 °C 11,3 km/h (2 Bft)
14.03.2026 07:00 21,4 °C 10,8 °C 47 % 72 % 997,0 hPa 0,0 l/m² 10,3 km/h (2 Bft) S-SW 211 ° 0 min 9 W/m² 6,0 °C 8,3 °C 14,5 km/h (3 Bft)
14.03.2026 07:03 21,4 °C 10,8 °C 47 % 72 % 997,0 hPa 0,0 l/m² 10,9 km/h (2 Bft) S-SW 199 ° 0 min 12 W/m² 6,0 °C 8,0 °C 14,5 km/h (3 Bft)
14.03.2026 07:05 21,4 °C 10,8 °C 47 % 72 % 997,0 hPa 0,0 l/m² 12,2 km/h (2 Bft) S-SW 203 ° 0 min 12 W/m² 6,0 °C 7,3 °C 16,1 km/h (3 Bft)
14.03.2026 07:07 21,4 °C 10,8 °C 47 % 72 % 997,1 hPa 0,0 l/m² 15,3 km/h (3 Bft) S-SW 204 ° 0 min 12 W/m² 6,0 °C 6,0 °C 19,3 km/h (3 Bft)
14.03.2026 07:09 21,4 °C 10,8 °C 47 % 72 % 997,1 hPa 0,0 l/m² 15,3 km/h (3 Bft) S-SW 193 ° 0 min 16 W/m² 6,0 °C 6,0 °C 19,3 km/h (3 Bft)
14.03.2026 07:11 21,3 °C 10,8 °C 47 % 73 % 997,1 hPa 0,0 l/m² 14,1 km/h (3 Bft) S-SW 198 ° 0 min 14 W/m² 6,2 °C 6,5 °C 17,7 km/h (3 Bft)
14.03.2026 07:12 21,4 °C 10,8 °C 47 % 73 % 997,1 hPa 0,0 l/m² 13,6 km/h (3 Bft) S-SW 198 ° 0 min 14 W/m² 6,2 °C 6,7 °C 17,7 km/h (3 Bft)
14.03.2026 07:13 21,4 °C 10,8 °C 47 % 73 % 997,1 hPa 0,0 l/m² 13,8 km/h (3 Bft) S-SW 198 ° 0 min 16 W/m² 6,2 °C 6,6 °C 16,1 km/h (3 Bft)
14.03.2026 07:15 21,4 °C 10,9 °C 47 % 73 % 997,1 hPa 0,0 l/m² 14,9 km/h (3 Bft) S-SW 210 ° 0 min 23 W/m² 6,3 °C 6,3 °C 19,3 km/h (3 Bft)
14.03.2026 07:16 21,3 °C 10,9 °C 47 % 73 % 997,2 hPa 0,0 l/m² 14,3 km/h (3 Bft) S-SW 205 ° 0 min 23 W/m² 6,3 °C 6,5 °C 17,7 km/h (3 Bft)
14.03.2026 07:18 21,4 °C 10,9 °C 47 % 73 % 997,2 hPa 0,0 l/m² 15,7 km/h (3 Bft) S-SW 196 ° 0 min 18 W/m² 6,3 °C 5,9 °C 17,7 km/h (3 Bft)
14.03.2026 07:20 21,4 °C 11,0 °C 47 % 73 % 997,2 hPa 0,0 l/m² 14,1 km/h (3 Bft) S-SW 198 ° 0 min 18 W/m² 6,4 °C 6,7 °C 19,3 km/h (3 Bft)
14.03.2026 07:23 21,4 °C 11,1 °C 47 % 73 % 997,2 hPa 0,0 l/m² 13,9 km/h (3 Bft) S-SW 203 ° 0 min 21 W/m² 6,4 °C 6,9 °C 17,7 km/h (3 Bft)
14.03.2026 07:25 21,3 °C 11,1 °C 47 % 73 % 997,3 hPa 0,0 l/m² 14,9 km/h (3 Bft) S-SW 213 ° 0 min 18 W/m² 6,4 °C 6,5 °C 19,3 km/h (3 Bft)
14.03.2026 07:27 21,3 °C 11,1 °C 47 % 73 % 997,3 hPa 0,0 l/m² 14,0 km/h (3 Bft) S-SW 208 ° 0 min 16 W/m² 6,4 °C 6,9 °C 17,7 km/h (3 Bft)
14.03.2026 07:29 21,3 °C 11,2 °C 47 % 73 % 997,3 hPa 0,0 l/m² 14,3 km/h (3 Bft) S-SW 210 ° 0 min 18 W/m² 6,5 °C 6,9 °C 16,1 km/h (3 Bft)
14.03.2026 07:31 21,4 °C 11,2 °C 47 % 73 % 997,4 hPa 0,0 l/m² 11,4 km/h (2 Bft) SW 223 ° 0 min 18 W/m² 6,5 °C 8,2 °C 16,1 km/h (3 Bft)
14.03.2026 07:32 21,3 °C 11,2 °C 47 % 73 % 997,3 hPa 0,0 l/m² 13,8 km/h (3 Bft) SW 221 ° 0 min 16 W/m² 6,5 °C 7,1 °C 17,7 km/h (3 Bft)
14.03.2026 07:33 21,4 °C 11,2 °C 47 % 73 % 997,3 hPa 0,0 l/m² 11,6 km/h (2 Bft) SW 221 ° 0 min 12 W/m² 6,5 °C 8,1 °C 14,5 km/h (3 Bft)
14.03.2026 07:35 21,3 °C 11,2 °C 47 % 73 % 997,4 hPa 0,0 l/m² 12,7 km/h (3 Bft) SW 224 ° 0 min 11 W/m² 6,5 °C 7,6 °C 17,7 km/h (3 Bft)
14.03.2026 07:37 21,3 °C 11,2 °C 47 % 73 % 997,4 hPa 0,0 l/m² 12,2 km/h (2 Bft) SW 215 ° 0 min 11 W/m² 6,5 °C 7,8 °C 16,1 km/h (3 Bft)
14.03.2026 07:39 21,3 °C 11,2 °C 47 % 73 % 997,5 hPa 0,0 l/m² 10,9 km/h (2 Bft) W-SW 246 ° 0 min 9 W/m² 6,5 °C 8,4 °C 14,5 km/h (3 Bft)
14.03.2026 07:41 21,3 °C 11,2 °C 47 % 73 % 997,6 hPa 0,0 l/m² 13,1 km/h (3 Bft) W 281 ° 0 min 9 W/m² 6,5 °C 7,4 °C 20,9 km/h (4 Bft)
14.03.2026 07:42 21,4 °C 11,1 °C 47 % 73 % 997,7 hPa 0,0 l/m² 12,9 km/h (3 Bft) W-NW 296 ° 0 min 9 W/m² 6,4 °C 7,4 °C 20,9 km/h (4 Bft)
14.03.2026 07:43 21,3 °C 11,0 °C 47 % 73 % 997,6 hPa 0,0 l/m² 5,9 km/h (2 Bft) NW 314 ° 0 min 11 W/m² 6,4 °C 11,0 °C 12,9 km/h (3 Bft)
14.03.2026 07:45 21,3 °C 10,8 °C 47 % 73 % 997,6 hPa 0,0 l/m² 18,4 km/h (3 Bft) NW 323 ° 0 min 12 W/m² 6,2 °C 4,8 °C 29,0 km/h (5 Bft)
14.03.2026 07:46 21,3 °C 10,6 °C 47 % 73 % 997,7 hPa 0,0 l/m² 19,7 km/h (3 Bft) NW 317 ° 0 min 12 W/m² 6,0 °C 4,2 °C 24,1 km/h (4 Bft)
14.03.2026 07:47 21,3 °C 10,5 °C 47 % 73 % 997,7 hPa 0,0 l/m² 16,4 km/h (3 Bft) N-NO 16 ° 0 min 12 W/m² 5,9 °C 5,2 °C 22,5 km/h (4 Bft)
14.03.2026 07:48 21,3 °C 10,3 °C 47 % 73 % 997,7 hPa 0,0 l/m² 18,5 km/h (3 Bft) W-NW 298 ° 0 min 12 W/m² 5,7 °C 4,2 °C 22,5 km/h (4 Bft)
14.03.2026 07:50 21,4 °C 10,0 °C 47 % 74 % 997,7 hPa 0,0 l/m² 20,7 km/h (4 Bft) N-NW 338 ° 0 min 12 W/m² 5,6 °C 3,1 °C 30,6 km/h (5 Bft)
14.03.2026 07:53 21,3 °C 9,4 °C 48 % 75 % 997,7 hPa 0,0 l/m² 19,3 km/h (3 Bft) NW 319 ° 0 min 12 W/m² 5,2 °C 2,7 °C 30,6 km/h (5 Bft)
14.03.2026 07:55 21,3 °C 9,1 °C 48 % 76 % 997,7 hPa 0,0 l/m² 18,9 km/h (3 Bft) N-NW 332 ° 0 min 14 W/m² 5,1 °C 2,5 °C 29,0 km/h (5 Bft)
14.03.2026 07:57 21,3 °C 8,8 °C 48 % 77 % 997,9 hPa 0,0 l/m² 11,9 km/h (2 Bft) W-NW 302 ° 0 min 14 W/m² 5,0 °C 5,2 °C 24,1 km/h (4 Bft)
14.03.2026 07:59 21,3 °C 8,6 °C 48 % 78 % 997,9 hPa 0,0 l/m² 11,9 km/h (2 Bft) W-NW 296 ° 0 min 14 W/m² 5,0 °C 5,0 °C 24,1 km/h (4 Bft)
14.03.2026 08:01 21,3 °C 8,4 °C 48 % 79 % 998,1 hPa 0,0 l/m² 14,8 km/h (3 Bft) NW 308 ° 0 min 16 W/m² 5,0 °C 3,3 °C 20,9 km/h (4 Bft)
14.03.2026 08:02 21,3 °C 8,3 °C 48 % 79 % 998,2 hPa 0,0 l/m² 14,5 km/h (3 Bft) N-NW 331 ° 0 min 19 W/m² 4,9 °C 3,3 °C 20,9 km/h (4 Bft)
14.03.2026 08:03 21,3 °C 8,2 °C 48 % 80 % 998,2 hPa 0,0 l/m² 12,2 km/h (2 Bft) NW 319 ° 0 min 19 W/m² 5,0 °C 4,3 °C 16,1 km/h (3 Bft)
14.03.2026 08:05 21,4 °C 8,0 °C 48 % 80 % 998,3 hPa 0,0 l/m² 14,0 km/h (3 Bft) NW 319 ° 0 min 26 W/m² 4,8 °C 3,2 °C 22,5 km/h (4 Bft)
14.03.2026 08:06 21,4 °C 7,9 °C 48 % 80 % 998,3 hPa 0,0 l/m² 8,7 km/h (2 Bft) W-NW 292 ° 0 min 26 W/m² 4,7 °C 6,1 °C 16,1 km/h (3 Bft)
14.03.2026 08:07 21,4 °C 7,9 °C 48 % 81 % 998,4 hPa 0,0 l/m² 8,0 km/h (2 Bft) NW 315 ° 0 min 23 W/m² 4,8 °C 6,6 °C 14,5 km/h (3 Bft)
14.03.2026 08:08 21,4 °C 7,9 °C 48 % 81 % 998,4 hPa 0,0 l/m² 8,3 km/h (2 Bft) W 277 ° 0 min 25 W/m² 4,8 °C 6,4 °C 12,9 km/h (3 Bft)
14.03.2026 08:10 21,4 °C 7,8 °C 48 % 81 % 998,3 hPa 0,0 l/m² 8,6 km/h (2 Bft) W-NW 286 ° 0 min 26 W/m² 4,7 °C 6,1 °C 17,7 km/h (3 Bft)
14.03.2026 08:13 21,4 °C 7,6 °C 48 % 82 % 998,4 hPa 0,0 l/m² 8,7 km/h (2 Bft) W-SW 248 ° 0 min 28 W/m² 4,7 °C 5,8 °C 17,7 km/h (3 Bft)
14.03.2026 08:15 21,3 °C 7,5 °C 48 % 82 % 998,4 hPa 0,0 l/m² 9,5 km/h (2 Bft) NW 316 ° 0 min 32 W/m² 4,6 °C 5,2 °C 16,1 km/h (3 Bft)
14.03.2026 08:17 21,4 °C 7,4 °C 48 % 83 % 998,4 hPa 0,0 l/m² 10,8 km/h (2 Bft) NW 305 ° 0 min 30 W/m² 4,7 °C 4,2 °C 17,7 km/h (3 Bft)
14.03.2026 08:19 21,4 °C 7,4 °C 49 % 83 % 998,5 hPa 0,0 l/m² 7,3 km/h (2 Bft) W-SW 244 ° 0 min 28 W/m² 4,7 °C 6,7 °C 12,9 km/h (3 Bft)
14.03.2026 08:21 21,4 °C 7,3 °C 49 % 83 % 998,6 hPa 0,0 l/m² 6,4 km/h (2 Bft) W-NW 295 ° 0 min 30 W/m² 4,6 °C 7,3 °C 16,1 km/h (3 Bft)
14.03.2026 08:22 21,4 °C 7,2 °C 49 % 84 % 998,6 hPa 0,0 l/m² 2,3 km/h (1 Bft) W 268 ° 0 min 32 W/m² 4,7 °C 7,2 °C 4,8 km/h (1 Bft)
14.03.2026 08:23 21,4 °C 7,2 °C 49 % 84 % 998,6 hPa 0,0 l/m² 8,2 km/h (2 Bft) W-NW 294 ° 0 min 32 W/m² 4,7 °C 5,8 °C 12,9 km/h (3 Bft)
14.03.2026 08:25 21,4 °C 7,2 °C 49 % 84 % 998,8 hPa 0,2 l/m² 4,5 km/h (1 Bft) W 274 ° 0 min 32 W/m² 4,7 °C 7,2 °C 9,7 km/h (2 Bft)
14.03.2026 08:26 21,4 °C 7,2 °C 49 % 84 % 998,9 hPa 0,0 l/m² 2,0 km/h (1 Bft) W 281 ° 0 min 33 W/m² 4,7 °C 7,2 °C 3,2 km/h (1 Bft)
14.03.2026 08:27 21,4 °C 7,1 °C 49 % 84 % 998,9 hPa 0,0 l/m² 3,6 km/h (1 Bft) N-NW 331 ° 0 min 33 W/m² 4,6 °C 7,1 °C 8,0 km/h (2 Bft)
14.03.2026 08:28 21,4 °C 7,1 °C 49 % 84 % 999,0 hPa 0,0 l/m² 5,8 km/h (2 Bft) N-NW 339 ° 0 min 33 W/m² 4,6 °C 7,1 °C 9,7 km/h (2 Bft)
14.03.2026 08:30 21,4 °C 7,1 °C 49 % 85 % 999,0 hPa 0,0 l/m² 4,6 km/h (1 Bft) N 5 ° 0 min 33 W/m² 4,8 °C 7,1 °C 9,7 km/h (2 Bft)
14.03.2026 08:33 21,4 °C 7,1 °C 50 % 85 % 999,0 hPa 0,0 l/m² 2,3 km/h (1 Bft) N-NW 346 ° 0 min 25 W/m² 4,8 °C 7,1 °C 9,7 km/h (2 Bft)
14.03.2026 08:35 21,4 °C 7,0 °C 50 % 85 % 999,0 hPa 0,0 l/m² 5,1 km/h (1 Bft) NW 320 ° 0 min 25 W/m² 4,7 °C 7,0 °C 8,0 km/h (2 Bft)
14.03.2026 08:37 21,4 °C 7,0 °C 50 % 85 % 999,1 hPa 0,0 l/m² 4,9 km/h (1 Bft) N-NW 334 ° 0 min 23 W/m² 4,7 °C 7,0 °C 8,0 km/h (2 Bft)
14.03.2026 08:39 21,4 °C 6,9 °C 50 % 85 % 999,0 hPa 0,0 l/m² 2,7 km/h (1 Bft) N-NW 335 ° 0 min 23 W/m² 4,6 °C 6,9 °C 4,8 km/h (1 Bft)
14.03.2026 08:41 21,4 °C 6,9 °C 50 % 86 % 999,1 hPa 0,0 l/m² 3,0 km/h (1 Bft) NW 315 ° 0 min 28 W/m² 4,7 °C 6,9 °C 9,7 km/h (2 Bft)
14.03.2026 08:42 21,4 °C 6,9 °C 50 % 86 % 999,2 hPa 0,0 l/m² 8,6 km/h (2 Bft) W-NW 298 ° 0 min 28 W/m² 4,7 °C 5,1 °C 11,3 km/h (2 Bft)
14.03.2026 08:43 21,4 °C 6,9 °C 50 % 86 % 999,2 hPa 0,0 l/m² 4,3 km/h (1 Bft) NW 325 ° 0 min 26 W/m² 4,7 °C 6,9 °C 6,4 km/h (2 Bft)
14.03.2026 08:45 21,4 °C 6,9 °C 50 % 86 % 999,1 hPa 0,0 l/m² 2,5 km/h (1 Bft) NW 313 ° 0 min 30 W/m² 4,7 °C 6,9 °C 4,8 km/h (1 Bft)
14.03.2026 08:46 21,4 °C 6,9 °C 50 % 86 % 999,1 hPa 0,0 l/m² 0,3 km/h (0 Bft) NW 314 ° 0 min 32 W/m² 4,7 °C 6,9 °C 1,6 km/h (1 Bft)
14.03.2026 08:47 21,4 °C 6,9 °C 50 % 86 % 999,2 hPa 0,0 l/m² 1,1 km/h (1 Bft) NW 314 ° 0 min 33 W/m² 4,7 °C 6,9 °C 3,2 km/h (1 Bft)
14.03.2026 08:48 21,4 °C 6,9 °C 50 % 86 % 999,2 hPa 0,0 l/m² 0,1 km/h (0 Bft) NW 313 ° 0 min 33 W/m² 4,7 °C 6,9 °C 1,6 km/h (1 Bft)
14.03.2026 08:50 21,4 °C 6,8 °C 50 % 86 % 999,1 hPa 0,0 l/m² 0,8 km/h (0 Bft) NW 312 ° 0 min 32 W/m² 4,6 °C 6,8 °C 3,2 km/h (1 Bft)
14.03.2026 08:53 21,4 °C 6,9 °C 49 % 86 % 999,1 hPa 0,0 l/m² 2,6 km/h (1 Bft) NW 325 ° 0 min 35 W/m² 4,7 °C 6,9 °C 12,9 km/h (3 Bft)
14.03.2026 08:55 21,5 °C 6,8 °C 50 % 86 % 999,2 hPa 0,0 l/m² 5,0 km/h (1 Bft) NW 320 ° 0 min 30 W/m² 4,6 °C 6,8 °C 8,0 km/h (2 Bft)
14.03.2026 08:57 21,4 °C 6,8 °C 50 % 86 % 999,2 hPa 0,0 l/m² 7,8 km/h (2 Bft) NW 320 ° 0 min 33 W/m² 4,6 °C 5,6 °C 14,5 km/h (3 Bft)
14.03.2026 08:59 21,4 °C 6,8 °C 50 % 87 % 999,2 hPa 0,0 l/m² 3,1 km/h (1 Bft) W-NW 301 ° 0 min 35 W/m² 4,8 °C 6,8 °C 6,4 km/h (2 Bft)
14.03.2026 09:01 21,5 °C 6,8 °C 50 % 87 % 999,2 hPa 0,0 l/m² 3,7 km/h (1 Bft) N-NW 329 ° 0 min 35 W/m² 4,8 °C 6,8 °C 6,4 km/h (2 Bft)
14.03.2026 09:02 21,5 °C 6,8 °C 50 % 87 % 999,2 hPa 0,0 l/m² 6,8 km/h (2 Bft) W-NW 297 ° 0 min 39 W/m² 4,8 °C 6,5 °C 11,3 km/h (2 Bft)
14.03.2026 09:03 21,5 °C 6,8 °C 50 % 87 % 999,2 hPa 0,0 l/m² 7,8 km/h (2 Bft) NW 312 ° 0 min 40 W/m² 4,8 °C 5,6 °C 12,9 km/h (3 Bft)
14.03.2026 09:05 21,5 °C 6,8 °C 50 % 87 % 999,2 hPa 0,0 l/m² 3,6 km/h (1 Bft) W-NW 301 ° 0 min 39 W/m² 4,8 °C 6,8 °C 9,7 km/h (2 Bft)
14.03.2026 09:07 21,5 °C 6,8 °C 50 % 87 % 999,3 hPa 0,0 l/m² 2,0 km/h (1 Bft) NW 313 ° 0 min 35 W/m² 4,8 °C 6,8 °C 6,4 km/h (2 Bft)
14.03.2026 09:09 21,5 °C 6,8 °C 50 % 87 % 999,3 hPa 0,0 l/m² 4,8 km/h (1 Bft) W-NW 286 ° 0 min 33 W/m² 4,8 °C 6,8 °C 9,7 km/h (2 Bft)
14.03.2026 09:11 21,5 °C 6,8 °C 50 % 87 % 999,3 hPa 0,0 l/m² 1,6 km/h (1 Bft) W-NW 290 ° 0 min 35 W/m² 4,8 °C 6,8 °C 4,8 km/h (1 Bft)
14.03.2026 09:12 21,5 °C 6,8 °C 50 % 87 % 999,3 hPa 0,0 l/m² 0,4 km/h (0 Bft) W-NW 290 ° 0 min 35 W/m² 4,8 °C 6,8 °C 1,6 km/h (1 Bft)
14.03.2026 09:13 21,5 °C 6,8 °C 50 % 87 % 999,4 hPa 0,0 l/m² 1,4 km/h (1 Bft) W-NW 290 ° 0 min 35 W/m² 4,8 °C 6,8 °C 4,8 km/h (1 Bft)
14.03.2026 09:15 21,5 °C 6,8 °C 50 % 87 % 999,4 hPa 0,0 l/m² 1,9 km/h (1 Bft) W-NW 294 ° 0 min 33 W/m² 4,8 °C 6,8 °C 4,8 km/h (1 Bft)
14.03.2026 09:16 21,5 °C 6,8 °C 50 % 87 % 999,4 hPa 0,0 l/m² 2,7 km/h (1 Bft) W 267 ° 0 min 35 W/m² 4,8 °C 6,8 °C 6,4 km/h (2 Bft)
14.03.2026 09:17 21,6 °C 6,8 °C 50 % 87 % 999,4 hPa 0,0 l/m² 3,4 km/h (1 Bft) W-NW 296 ° 0 min 39 W/m² 4,8 °C 6,8 °C 4,8 km/h (1 Bft)
14.03.2026 09:18 21,6 °C 6,8 °C 50 % 87 % 999,4 hPa 0,0 l/m² 1,0 km/h (0 Bft) W-NW 297 ° 0 min 42 W/m² 4,8 °C 6,8 °C 3,2 km/h (1 Bft)
14.03.2026 09:20 21,5 °C 6,7 °C 50 % 87 % 999,3 hPa 0,0 l/m² 5,4 km/h (2 Bft) NW 309 ° 2 min 53 W/m² 4,7 °C 6,7 °C 9,7 km/h (2 Bft)
14.03.2026 09:23 21,6 °C 6,7 °C 50 % 87 % 999,4 hPa 0,0 l/m² 3,8 km/h (1 Bft) W 277 ° 3 min 67 W/m² 4,7 °C 6,7 °C 8,0 km/h (2 Bft)
14.03.2026 09:25 21,5 °C 6,7 °C 50 % 87 % 999,4 hPa 0,0 l/m² 3,1 km/h (1 Bft) W 279 ° 2 min 88 W/m² 4,7 °C 6,7 °C 9,7 km/h (2 Bft)
14.03.2026 09:27 21,5 °C 6,7 °C 50 % 87 % 999,4 hPa 0,0 l/m² 8,3 km/h (2 Bft) W-NW 293 ° 2 min 97 W/m² 4,7 °C 5,2 °C 12,9 km/h (3 Bft)
14.03.2026 09:29 21,6 °C 6,7 °C 50 % 87 % 999,2 hPa 0,0 l/m² 6,2 km/h (2 Bft) W-NW 296 ° 2 min 98 W/m² 4,7 °C 6,7 °C 11,3 km/h (2 Bft)
14.03.2026 09:31 21,6 °C 6,7 °C 50 % 88 % 999,0 hPa 0,0 l/m² 6,7 km/h (2 Bft) W 277 ° 2 min 113 W/m² 4,9 °C 6,5 °C 14,5 km/h (3 Bft)
14.03.2026 09:32 21,6 °C 6,7 °C 50 % 88 % 999,1 hPa 0,0 l/m² 9,6 km/h (2 Bft) NW 323 ° 1 min 114 W/m² 4,9 °C 4,2 °C 16,1 km/h (3 Bft)
14.03.2026 09:33 21,5 °C 6,7 °C 50 % 88 % 999,2 hPa 0,0 l/m² 10,4 km/h (2 Bft) W-NW 300 ° 1 min 114 W/m² 4,9 °C 3,7 °C 14,5 km/h (3 Bft)
14.03.2026 09:35 21,6 °C 6,7 °C 50 % 88 % 999,2 hPa 0,0 l/m² 10,8 km/h (2 Bft) W 271 ° 2 min 109 W/m² 4,9 °C 3,4 °C 17,7 km/h (3 Bft)
14.03.2026 09:36 21,6 °C 6,7 °C 50 % 88 % 999,3 hPa 0,0 l/m² 10,8 km/h (2 Bft) W 279 ° 1 min 100 W/m² 4,9 °C 3,4 °C 16,1 km/h (3 Bft)
14.03.2026 09:37 21,6 °C 6,7 °C 50 % 88 % 999,3 hPa 0,0 l/m² 11,2 km/h (2 Bft) W 274 ° 1 min 105 W/m² 4,9 °C 3,2 °C 14,5 km/h (3 Bft)
14.03.2026 09:38 21,6 °C 6,7 °C 50 % 88 % 999,3 hPa 0,0 l/m² 8,0 km/h (2 Bft) W-NW 296 ° 1 min 113 W/m² 4,9 °C 5,4 °C 14,5 km/h (3 Bft)
14.03.2026 09:40 21,6 °C 6,6 °C 49 % 88 % 999,3 hPa 0,0 l/m² 7,3 km/h (2 Bft) W 275 ° 2 min 123 W/m² 4,8 °C 5,8 °C 16,1 km/h (3 Bft)
14.03.2026 09:43 21,6 °C 6,6 °C 49 % 88 % 999,5 hPa 0,0 l/m² 2,5 km/h (1 Bft) W-NW 285 ° 3 min 118 W/m² 4,8 °C 6,6 °C 6,4 km/h (2 Bft)
14.03.2026 09:46 21,6 °C 6,7 °C 49 % 88 % 999,5 hPa 0,0 l/m² 4,7 km/h (1 Bft) NW 319 ° 3 min 132 W/m² 4,9 °C 6,7 °C 14,5 km/h (3 Bft)
14.03.2026 09:48 21,6 °C 6,7 °C 49 % 88 % 999,5 hPa 0,0 l/m² 9,9 km/h (2 Bft) NW 306 ° 2 min 135 W/m² 4,9 °C 4,0 °C 17,7 km/h (3 Bft)
14.03.2026 09:50 21,6 °C 6,7 °C 49 % 88 % 999,4 hPa 0,0 l/m² 8,5 km/h (2 Bft) W-NW 284 ° 2 min 137 W/m² 4,9 °C 5,0 °C 14,5 km/h (3 Bft)
14.03.2026 09:53 21,6 °C 6,7 °C 49 % 88 % 999,4 hPa 0,0 l/m² 7,0 km/h (2 Bft) W-NW 285 ° 3 min 178 W/m² 4,9 °C 6,2 °C 14,5 km/h (3 Bft)
14.03.2026 09:55 21,6 °C 6,7 °C 49 % 88 % 999,4 hPa 0,0 l/m² 9,8 km/h (2 Bft) W 262 ° 2 min 193 W/m² 4,9 °C 4,1 °C 20,9 km/h (4 Bft)
14.03.2026 09:57 21,6 °C 6,7 °C 49 % 88 % 999,4 hPa 0,0 l/m² 8,1 km/h (2 Bft) NW 305 ° 2 min 193 W/m² 4,9 °C 5,3 °C 17,7 km/h (3 Bft)
14.03.2026 09:59 21,6 °C 6,7 °C 49 % 88 % 999,5 hPa 0,0 l/m² 5,1 km/h (1 Bft) W-SW 252 ° 2 min 223 W/m² 4,9 °C 6,7 °C 11,3 km/h (2 Bft)
14.03.2026 10:01 21,6 °C 6,7 °C 49 % 88 % 999,5 hPa 0,0 l/m² 10,3 km/h (2 Bft) W 275 ° 2 min 199 W/m² 4,9 °C 3,8 °C 16,1 km/h (3 Bft)
14.03.2026 10:02 21,6 °C 6,7 °C 49 % 88 % 999,6 hPa 0,0 l/m² 4,8 km/h (1 Bft) W-NW 285 ° 1 min 199 W/m² 4,9 °C 6,7 °C 9,7 km/h (2 Bft)
14.03.2026 10:03 21,6 °C 6,7 °C 49 % 88 % 999,6 hPa 0,0 l/m² 5,2 km/h (1 Bft) W 266 ° 1 min 197 W/m² 4,9 °C 6,7 °C 9,7 km/h (2 Bft)
14.03.2026 10:05 21,6 °C 6,7 °C 49 % 88 % 999,6 hPa 0,0 l/m² 7,3 km/h (2 Bft) W 278 ° 2 min 211 W/m² 4,9 °C 6,0 °C 12,9 km/h (3 Bft)
14.03.2026 10:06 21,6 °C 6,7 °C 49 % 88 % 999,6 hPa 0,0 l/m² 8,4 km/h (2 Bft) NW 312 ° 1 min 216 W/m² 4,9 °C 5,1 °C 16,1 km/h (3 Bft)
14.03.2026 10:07 21,6 °C 6,8 °C 49 % 88 % 999,5 hPa 0,0 l/m² 7,6 km/h (2 Bft) NW 309 ° 1 min 223 W/m² 5,0 °C 5,8 °C 12,9 km/h (3 Bft)
14.03.2026 10:08 21,6 °C 6,7 °C 49 % 88 % 999,5 hPa 0,0 l/m² 5,0 km/h (1 Bft) W 261 ° 1 min 234 W/m² 4,9 °C 6,7 °C 9,7 km/h (2 Bft)
14.03.2026 10:10 21,6 °C 6,8 °C 49 % 88 % 999,6 hPa 0,0 l/m² 4,8 km/h (1 Bft) NW 306 ° 2 min 241 W/m² 5,0 °C 6,8 °C 12,9 km/h (3 Bft)
14.03.2026 10:13 21,6 °C 6,9 °C 49 % 88 % 999,6 hPa 0,0 l/m² 10,9 km/h (2 Bft) NW 317 ° 3 min 229 W/m² 5,1 °C 3,6 °C 17,7 km/h (3 Bft)
14.03.2026 10:15 21,6 °C 6,9 °C 49 % 88 % 999,6 hPa 0,0 l/m² 8,9 km/h (2 Bft) W-NW 287 ° 2 min 214 W/m² 5,1 °C 4,9 °C 14,5 km/h (3 Bft)
14.03.2026 10:17 21,6 °C 6,9 °C 49 % 87 % 999,6 hPa 0,0 l/m² 7,9 km/h (2 Bft) NW 313 ° 2 min 183 W/m² 4,9 °C 5,7 °C 16,1 km/h (3 Bft)
14.03.2026 10:19 21,6 °C 6,9 °C 49 % 88 % 999,6 hPa 0,0 l/m² 10,3 km/h (2 Bft) N-NW 327 ° 2 min 178 W/m² 5,1 °C 4,0 °C 16,1 km/h (3 Bft)
14.03.2026 10:21 21,6 °C 7,0 °C 49 % 88 % 999,7 hPa 0,0 l/m² 5,0 km/h (1 Bft) NW 306 ° 2 min 151 W/m² 5,2 °C 7,0 °C 9,7 km/h (2 Bft)
14.03.2026 10:22 21,6 °C 7,1 °C 49 % 88 % 999,7 hPa 0,0 l/m² 4,5 km/h (1 Bft) NW 307 ° 1 min 151 W/m² 5,2 °C 7,1 °C 6,4 km/h (2 Bft)
14.03.2026 10:23 21,6 °C 7,1 °C 49 % 88 % 999,7 hPa 0,0 l/m² 7,0 km/h (2 Bft) NW 318 ° 1 min 155 W/m² 5,2 °C 6,6 °C 14,5 km/h (3 Bft)
14.03.2026 10:25 21,6 °C 7,1 °C 49 % 88 % 999,6 hPa 0,0 l/m² 5,0 km/h (1 Bft) NW 306 ° 2 min 148 W/m² 5,2 °C 7,1 °C 12,9 km/h (3 Bft)
14.03.2026 10:27 21,6 °C 7,2 °C 49 % 87 % 999,7 hPa 0,0 l/m² 7,2 km/h (2 Bft) N-NW 335 ° 2 min 125 W/m² 5,2 °C 6,5 °C 14,5 km/h (3 Bft)
14.03.2026 10:29 21,6 °C 7,2 °C 49 % 87 % 999,7 hPa 0,0 l/m² 6,4 km/h (2 Bft) W-NW 300 ° 2 min 144 W/m² 5,2 °C 7,2 °C 14,5 km/h (3 Bft)
14.03.2026 10:31 21,6 °C 7,2 °C 49 % 87 % 999,6 hPa 0,0 l/m² 3,8 km/h (1 Bft) W-NW 286 ° 2 min 167 W/m² 5,2 °C 7,2 °C 11,3 km/h (2 Bft)
14.03.2026 10:32 21,6 °C 7,2 °C 49 % 87 % 999,7 hPa 0,0 l/m² 4,3 km/h (1 Bft) N-NW 342 ° 1 min 165 W/m² 5,2 °C 7,2 °C 8,0 km/h (2 Bft)
14.03.2026 10:33 21,6 °C 7,2 °C 49 % 87 % 999,7 hPa 0,0 l/m² 7,8 km/h (2 Bft) W-NW 302 ° 1 min 163 W/m² 5,2 °C 6,1 °C 11,3 km/h (2 Bft)
14.03.2026 10:35 21,6 °C 7,2 °C 49 % 87 % 999,8 hPa 0,0 l/m² 3,1 km/h (1 Bft) NW 322 ° 2 min 158 W/m² 5,2 °C 7,2 °C 4,8 km/h (1 Bft)
14.03.2026 10:37 21,6 °C 7,3 °C 49 % 87 % 999,7 hPa 0,0 l/m² 6,7 km/h (2 Bft) NW 306 ° 2 min 163 W/m² 5,3 °C 7,1 °C 12,9 km/h (3 Bft)
14.03.2026 10:39 21,6 °C 7,3 °C 49 % 87 % 999,7 hPa 0,0 l/m² 6,7 km/h (2 Bft) NW 326 ° 2 min 146 W/m² 5,3 °C 7,1 °C 11,3 km/h (2 Bft)
14.03.2026 10:41 21,6 °C 7,3 °C 49 % 87 % 999,9 hPa 0,0 l/m² 6,2 km/h (2 Bft) N-NW 327 ° 2 min 107 W/m² 5,3 °C 7,3 °C 11,3 km/h (2 Bft)
14.03.2026 10:42 21,6 °C 7,3 °C 49 % 87 % 999,8 hPa 0,0 l/m² 2,6 km/h (1 Bft) W-NW 302 ° 1 min 97 W/m² 5,3 °C 7,3 °C 6,4 km/h (2 Bft)
14.03.2026 10:43 21,6 °C 7,3 °C 49 % 87 % 999,8 hPa 0,0 l/m² 5,4 km/h (2 Bft) N-NW 331 ° 1 min 95 W/m² 5,3 °C 7,3 °C 8,0 km/h (2 Bft)
14.03.2026 10:45 21,6 °C 7,3 °C 49 % 86 % 999,9 hPa 0,0 l/m² 7,6 km/h (2 Bft) NW 321 ° 2 min 93 W/m² 5,1 °C 6,3 °C 12,9 km/h (3 Bft)
14.03.2026 10:47 21,6 °C 7,3 °C 49 % 86 % 999,9 hPa 0,0 l/m² 3,8 km/h (1 Bft) NW 319 ° 2 min 84 W/m² 5,1 °C 7,3 °C 8,0 km/h (2 Bft)
14.03.2026 10:49 21,6 °C 7,3 °C 49 % 86 % 1000,0 hPa 0,0 l/m² 4,8 km/h (1 Bft) N 350 ° 2 min 84 W/m² 5,1 °C 7,3 °C 8,0 km/h (2 Bft)
14.03.2026 10:51 21,6 °C 7,3 °C 49 % 86 % 999,9 hPa 0,0 l/m² 7,5 km/h (2 Bft) N 355 ° 2 min 98 W/m² 5,1 °C 6,4 °C 14,5 km/h (3 Bft)
14.03.2026 10:52 21,6 °C 7,3 °C 49 % 86 % 999,9 hPa 0,0 l/m² 4,8 km/h (1 Bft) N-NW 327 ° 1 min 98 W/m² 5,1 °C 7,3 °C 8,0 km/h (2 Bft)
14.03.2026 10:53 21,6 °C 7,3 °C 49 % 86 % 999,9 hPa 0,0 l/m² 7,1 km/h (2 Bft) NW 323 ° 1 min 98 W/m² 5,1 °C 6,7 °C 12,9 km/h (3 Bft)
14.03.2026 10:55 21,6 °C 7,3 °C 49 % 86 % 1000,0 hPa 0,0 l/m² 7,9 km/h (2 Bft) N 355 ° 2 min 97 W/m² 5,1 °C 6,1 °C 12,9 km/h (3 Bft)
14.03.2026 10:57 21,5 °C 7,3 °C 48 % 86 % 1000,0 hPa 0,0 l/m² 7,4 km/h (2 Bft) NW 322 ° 2 min 90 W/m² 5,1 °C 6,5 °C 12,9 km/h (3 Bft)
14.03.2026 10:59 21,5 °C 7,3 °C 48 % 86 % 1000,0 hPa 0,0 l/m² 6,2 km/h (2 Bft) N-NW 336 ° 2 min 79 W/m² 5,1 °C 7,3 °C 12,9 km/h (3 Bft)
14.03.2026 11:01 21,5 °C 7,3 °C 48 % 86 % 1000,0 hPa 0,0 l/m² 8,8 km/h (2 Bft) N-NW 342 ° 2 min 76 W/m² 5,1 °C 5,4 °C 14,5 km/h (3 Bft)
14.03.2026 11:02 21,5 °C 7,3 °C 48 % 85 % 1000,0 hPa 0,0 l/m² 8,3 km/h (2 Bft) N 351 ° 1 min 74 W/m² 4,9 °C 5,8 °C 12,9 km/h (3 Bft)
14.03.2026 11:03 21,5 °C 7,2 °C 48 % 85 % 1000,0 hPa 0,0 l/m² 8,3 km/h (2 Bft) N-NW 337 ° 1 min 76 W/m² 4,9 °C 5,7 °C 12,9 km/h (3 Bft)
14.03.2026 11:05 21,5 °C 7,2 °C 48 % 85 % 1000,2 hPa 0,0 l/m² 7,8 km/h (2 Bft) N-NW 340 ° 2 min 83 W/m² 4,9 °C 6,1 °C 12,9 km/h (3 Bft)
14.03.2026 11:07 21,5 °C 7,2 °C 48 % 85 % 1000,2 hPa 0,0 l/m² 7,4 km/h (2 Bft) N-NW 340 ° 2 min 83 W/m² 4,9 °C 6,4 °C 9,7 km/h (2 Bft)
14.03.2026 11:09 21,5 °C 7,2 °C 48 % 85 % 1000,1 hPa 0,0 l/m² 6,3 km/h (2 Bft) NW 317 ° 2 min 95 W/m² 4,9 °C 7,2 °C 8,0 km/h (2 Bft)
14.03.2026 11:11 21,5 °C 7,2 °C 48 % 85 % 1000,2 hPa 0,0 l/m² 7,7 km/h (2 Bft) N-NW 346 ° 2 min 104 W/m² 4,9 °C 6,1 °C 12,9 km/h (3 Bft)
14.03.2026 11:12 21,5 °C 7,1 °C 48 % 85 % 1000,2 hPa 0,0 l/m² 6,6 km/h (2 Bft) N-NW 348 ° 1 min 107 W/m² 4,8 °C 7,0 °C 9,7 km/h (2 Bft)
14.03.2026 11:13 21,5 °C 7,2 °C 48 % 85 % 1000,2 hPa 0,0 l/m² 8,3 km/h (2 Bft) N-NW 342 ° 1 min 113 W/m² 4,9 °C 5,7 °C 11,3 km/h (2 Bft)
14.03.2026 11:15 21,5 °C 7,2 °C 48 % 85 % 1000,2 hPa 0,0 l/m² 6,0 km/h (2 Bft) N-NW 347 ° 2 min 114 W/m² 4,9 °C 7,2 °C 8,0 km/h (2 Bft)
14.03.2026 11:17 21,5 °C 7,1 °C 48 % 85 % 1000,3 hPa 0,0 l/m² 4,9 km/h (1 Bft) N-NW 348 ° 2 min 109 W/m² 4,8 °C 7,1 °C 8,0 km/h (2 Bft)
14.03.2026 11:19 21,4 °C 7,2 °C 48 % 85 % 1000,2 hPa 0,0 l/m² 5,2 km/h (1 Bft) NW 312 ° 2 min 111 W/m² 4,9 °C 7,2 °C 11,3 km/h (2 Bft)
14.03.2026 11:21 21,5 °C 7,2 °C 48 % 85 % 1000,2 hPa 0,0 l/m² 6,0 km/h (2 Bft) N 355 ° 2 min 118 W/m² 4,9 °C 7,2 °C 9,7 km/h (2 Bft)
14.03.2026 11:22 21,5 °C 7,2 °C 48 % 85 % 1000,3 hPa 0,0 l/m² 5,0 km/h (1 Bft) NW 321 ° 1 min 114 W/m² 4,9 °C 7,2 °C 6,4 km/h (2 Bft)
14.03.2026 11:23 21,5 °C 7,2 °C 48 % 85 % 1000,3 hPa 0,0 l/m² 4,9 km/h (1 Bft) NW 313 ° 1 min 107 W/m² 4,9 °C 7,2 °C 8,0 km/h (2 Bft)
14.03.2026 11:25 21,5 °C 7,2 °C 48 % 85 % 1000,3 hPa 0,0 l/m² 3,0 km/h (1 Bft) N-NW 328 ° 2 min 95 W/m² 4,9 °C 7,2 °C 6,4 km/h (2 Bft)
14.03.2026 11:27 21,5 °C 7,2 °C 48 % 85 % 1000,4 hPa 0,0 l/m² 2,6 km/h (1 Bft) W-NW 282 ° 2 min 86 W/m² 4,9 °C 7,2 °C 4,8 km/h (1 Bft)
14.03.2026 11:29 21,5 °C 7,2 °C 48 % 85 % 1000,4 hPa 0,0 l/m² 1,9 km/h (1 Bft) W 276 ° 2 min 88 W/m² 4,9 °C 7,2 °C 4,8 km/h (1 Bft)
14.03.2026 11:31 21,5 °C 7,2 °C 48 % 85 % 1000,4 hPa 0,0 l/m² 2,2 km/h (1 Bft) NW 317 ° 2 min 98 W/m² 4,9 °C 7,2 °C 8,0 km/h (2 Bft)
14.03.2026 11:32 21,5 °C 7,2 °C 48 % 85 % 1000,4 hPa 0,0 l/m² 6,7 km/h (2 Bft) N-NW 327 ° 1 min 100 W/m² 4,9 °C 7,0 °C 8,0 km/h (2 Bft)
14.03.2026 11:33 21,5 °C 7,2 °C 48 % 85 % 1000,4 hPa 0,0 l/m² 7,7 km/h (2 Bft) N-NW 344 ° 1 min 98 W/m² 4,9 °C 6,1 °C 9,7 km/h (2 Bft)
14.03.2026 11:35 21,5 °C 7,2 °C 49 % 85 % 1000,4 hPa 0,0 l/m² 4,3 km/h (1 Bft) N-NW 329 ° 2 min 90 W/m² 4,9 °C 7,2 °C 6,4 km/h (2 Bft)
14.03.2026 11:37 21,6 °C 7,2 °C 49 % 85 % 1000,4 hPa 0,0 l/m² 2,9 km/h (1 Bft) N-NW 342 ° 2 min 84 W/m² 4,9 °C 7,2 °C 6,4 km/h (2 Bft)
14.03.2026 11:39 21,5 °C 7,2 °C 48 % 85 % 1000,4 hPa 0,0 l/m² 4,2 km/h (1 Bft) NW 312 ° 2 min 88 W/m² 4,9 °C 7,2 °C 6,4 km/h (2 Bft)
14.03.2026 11:41 21,5 °C 7,2 °C 49 % 85 % 1000,4 hPa 0,0 l/m² 5,1 km/h (1 Bft) NW 323 ° 2 min 91 W/m² 4,9 °C 7,2 °C 8,0 km/h (2 Bft)
14.03.2026 11:42 21,5 °C 7,2 °C 48 % 85 % 1000,5 hPa 0,0 l/m² 4,5 km/h (1 Bft) NW 321 ° 1 min 91 W/m² 4,9 °C 7,2 °C 6,4 km/h (2 Bft)
14.03.2026 11:43 21,5 °C 7,2 °C 48 % 85 % 1000,5 hPa 0,0 l/m² 2,8 km/h (1 Bft) NW 320 ° 1 min 88 W/m² 4,9 °C 7,2 °C 6,4 km/h (2 Bft)
14.03.2026 11:45 21,5 °C 7,2 °C 49 % 85 % 1000,5 hPa 0,0 l/m² 1,1 km/h (1 Bft) NW 310 ° 2 min 88 W/m² 4,9 °C 7,2 °C 3,2 km/h (1 Bft)
14.03.2026 11:47 21,5 °C 7,2 °C 49 % 85 % 1000,5 hPa 0,0 l/m² 3,4 km/h (1 Bft) N 355 ° 2 min 90 W/m² 4,9 °C 7,2 °C 6,4 km/h (2 Bft)
14.03.2026 11:49 21,5 °C 7,2 °C 49 % 85 % 1000,5 hPa 0,0 l/m² 3,5 km/h (1 Bft) NW 321 ° 2 min 102 W/m² 4,9 °C 7,2 °C 6,4 km/h (2 Bft)
14.03.2026 11:51 21,5 °C 7,3 °C 49 % 85 % 1000,4 hPa 0,0 l/m² 5,6 km/h (2 Bft) N 350 ° 2 min 120 W/m² 4,9 °C 7,3 °C 8,0 km/h (2 Bft)
14.03.2026 11:52 21,6 °C 7,3 °C 49 % 85 % 1000,4 hPa 0,0 l/m² 5,4 km/h (2 Bft) N-NW 327 ° 1 min 118 W/m² 4,9 °C 7,3 °C 8,0 km/h (2 Bft)
14.03.2026 11:53 21,6 °C 7,3 °C 49 % 85 % 1000,4 hPa 0,0 l/m² 3,3 km/h (1 Bft) NW 321 ° 1 min 113 W/m² 4,9 °C 7,3 °C 6,4 km/h (2 Bft)
14.03.2026 11:55 21,5 °C 7,3 °C 49 % 85 % 1000,4 hPa 0,0 l/m² 3,3 km/h (1 Bft) NW 311 ° 2 min 111 W/m² 4,9 °C 7,3 °C 6,4 km/h (2 Bft)
14.03.2026 11:57 21,5 °C 7,3 °C 49 % 85 % 1000,4 hPa 0,0 l/m² 3,5 km/h (1 Bft) NW 321 ° 2 min 125 W/m² 4,9 °C 7,3 °C 8,0 km/h (2 Bft)
14.03.2026 11:59 21,5 °C 7,3 °C 49 % 85 % 1000,4 hPa 0,0 l/m² 6,1 km/h (2 Bft) N-NW 329 ° 2 min 135 W/m² 4,9 °C 7,3 °C 8,0 km/h (2 Bft)
14.03.2026 12:00 21,5 °C 7,3 °C 49 % 85 % 1000,5 hPa 0,0 l/m² 8,0 km/h (2 Bft) NW 315 ° 1 min 141 W/m² 4,9 °C 6,0 °C 12,9 km/h (3 Bft)
14.03.2026 12:01 21,6 °C 7,3 °C 49 % 85 % 1000,4 hPa 0,0 l/m² 6,4 km/h (2 Bft) NW 315 ° 1 min 141 W/m² 4,9 °C 7,3 °C 12,9 km/h (3 Bft)
14.03.2026 12:06 21,5 °C 7,3 °C 49 % 85 % 1000,5 hPa 0,0 l/m² 11,9 km/h (2 Bft) W-NW 292 ° 5 min 132 W/m² 4,9 °C 3,5 °C 14,5 km/h (3 Bft)
14.03.2026 12:08 21,5 °C 7,3 °C 49 % 85 % 1000,6 hPa 0,0 l/m² 8,8 km/h (2 Bft) W 279 ° 2 min 139 W/m² 4,9 °C 5,4 °C 12,9 km/h (3 Bft)
14.03.2026 12:09 21,5 °C 7,3 °C 49 % 85 % 1000,6 hPa 0,0 l/m² 8,6 km/h (2 Bft) W-NW 288 ° 1 min 144 W/m² 4,9 °C 5,6 °C 12,9 km/h (3 Bft)
14.03.2026 12:11 21,5 °C 7,3 °C 49 % 84 % 1000,6 hPa 0,0 l/m² 7,2 km/h (2 Bft) W-SW 257 ° 2 min 149 W/m² 4,8 °C 6,7 °C 14,5 km/h (3 Bft)
14.03.2026 12:13 21,5 °C 7,2 °C 49 % 84 % 1000,6 hPa 0,0 l/m² 6,6 km/h (2 Bft) W-NW 290 ° 2 min 139 W/m² 4,7 °C 7,1 °C 11,3 km/h (2 Bft)
14.03.2026 12:14 21,5 °C 7,2 °C 49 % 84 % 1000,6 hPa 0,0 l/m² 7,8 km/h (2 Bft) W-NW 297 ° 1 min 141 W/m² 4,7 °C 6,1 °C 11,3 km/h (2 Bft)
14.03.2026 12:16 21,5 °C 7,2 °C 49 % 84 % 1000,6 hPa 0,0 l/m² 7,9 km/h (2 Bft) W 277 ° 2 min 155 W/m² 4,7 °C 6,0 °C 12,9 km/h (3 Bft)
14.03.2026 12:17 21,5 °C 7,2 °C 49 % 84 % 1000,6 hPa 0,0 l/m² 9,6 km/h (2 Bft) W 270 ° 1 min 162 W/m² 4,7 °C 4,8 °C 12,9 km/h (3 Bft)
14.03.2026 12:19 21,6 °C 7,2 °C 49 % 84 % 1000,6 hPa 0,0 l/m² 9,3 km/h (2 Bft) W 259 ° 2 min 178 W/m² 4,7 °C 5,0 °C 12,9 km/h (3 Bft)
14.03.2026 12:20 21,5 °C 7,2 °C 49 % 85 % 1000,6 hPa 0,0 l/m² 11,5 km/h (2 Bft) W-NW 287 ° 1 min 192 W/m² 4,9 °C 3,6 °C 16,1 km/h (3 Bft)
14.03.2026 12:21 21,5 °C 7,2 °C 49 % 85 % 1000,6 hPa 0,0 l/m² 4,3 km/h (1 Bft) W 280 ° 1 min 195 W/m² 4,9 °C 7,2 °C 8,0 km/h (2 Bft)
14.03.2026 12:22 21,5 °C 7,2 °C 49 % 85 % 1000,6 hPa 0,0 l/m² 2,4 km/h (1 Bft) W-NW 283 ° 1 min 197 W/m² 4,9 °C 7,2 °C 3,2 km/h (1 Bft)
14.03.2026 12:24 21,5 °C 7,2 °C 49 % 85 % 1000,6 hPa 0,0 l/m² 4,7 km/h (1 Bft) W 265 ° 2 min 186 W/m² 4,9 °C 7,2 °C 12,9 km/h (3 Bft)
14.03.2026 12:26 21,6 °C 7,2 °C 49 % 85 % 1000,5 hPa 0,0 l/m² 7,3 km/h (2 Bft) W 281 ° 2 min 190 W/m² 4,9 °C 6,5 °C 11,3 km/h (2 Bft)
14.03.2026 12:28 21,5 °C 7,2 °C 49 % 85 % 1000,6 hPa 0,0 l/m² 10,6 km/h (2 Bft) W-NW 286 ° 2 min 197 W/m² 4,9 °C 4,1 °C 14,5 km/h (3 Bft)
14.03.2026 12:30 21,5 °C 7,2 °C 49 % 85 % 1000,6 hPa 0,0 l/m² 6,6 km/h (2 Bft) W 259 ° 2 min 211 W/m² 4,9 °C 7,1 °C 14,5 km/h (3 Bft)
14.03.2026 12:33 21,5 °C 7,2 °C 49 % 85 % 1000,6 hPa 0,0 l/m² 3,4 km/h (1 Bft) W-NW 282 ° 3 min 202 W/m² 4,9 °C 7,2 °C 6,4 km/h (2 Bft)
14.03.2026 12:35 21,5 °C 7,2 °C 49 % 85 % 1000,6 hPa 0,0 l/m² 3,4 km/h (1 Bft) W-NW 294 ° 2 min 197 W/m² 4,9 °C 7,2 °C 6,4 km/h (2 Bft)
14.03.2026 12:37 21,5 °C 7,3 °C 49 % 85 % 1000,7 hPa 0,0 l/m² 4,0 km/h (1 Bft) N 5 ° 2 min 186 W/m² 4,9 °C 7,3 °C 8,0 km/h (2 Bft)
14.03.2026 12:39 21,5 °C 7,3 °C 49 % 85 % 1000,6 hPa 0,0 l/m² 4,6 km/h (1 Bft) W-NW 296 ° 2 min 176 W/m² 4,9 °C 7,3 °C 8,0 km/h (2 Bft)
14.03.2026 12:42 21,5 °C 7,3 °C 49 % 85 % 1000,6 hPa 0,0 l/m² 3,1 km/h (1 Bft) W 281 ° 3 min 155 W/m² 4,9 °C 7,3 °C 8,0 km/h (2 Bft)
14.03.2026 12:45 21,5 °C 7,3 °C 49 % 85 % 1000,6 hPa 0,0 l/m² 4,8 km/h (1 Bft) W-NW 290 ° 3 min 169 W/m² 4,9 °C 7,3 °C 12,9 km/h (3 Bft)
14.03.2026 12:48 21,5 °C 7,4 °C 49 % 84 % 1000,7 hPa 0,0 l/m² 4,5 km/h (1 Bft) NW 307 ° 3 min 193 W/m² 4,9 °C 7,4 °C 9,7 km/h (2 Bft)
14.03.2026 12:50 21,5 °C 7,4 °C 49 % 85 % 1000,7 hPa 0,0 l/m² 3,6 km/h (1 Bft) W 263 ° 2 min 213 W/m² 5,0 °C 7,4 °C 9,7 km/h (2 Bft)
14.03.2026 12:53 21,5 °C 7,4 °C 48 % 85 % 1000,8 hPa 0,0 l/m² 4,0 km/h (1 Bft) NW 314 ° 3 min 229 W/m² 5,0 °C 7,4 °C 8,0 km/h (2 Bft)
14.03.2026 12:55 21,5 °C 7,5 °C 49 % 85 % 1000,8 hPa 0,0 l/m² 0,2 km/h (0 Bft) NW 305 ° 2 min 227 W/m² 5,1 °C 7,5 °C 1,6 km/h (1 Bft)
14.03.2026 12:57 21,5 °C 7,6 °C 49 % 85 % 1000,8 hPa 0,0 l/m² 1,0 km/h (0 Bft) NW 305 ° 2 min 202 W/m² 5,2 °C 7,6 °C 4,8 km/h (1 Bft)
14.03.2026 12:59 21,5 °C 7,6 °C 49 % 85 % 1000,8 hPa 0,0 l/m² 4,9 km/h (1 Bft) W-NW 285 ° 2 min 186 W/m² 5,2 °C 7,6 °C 9,7 km/h (2 Bft)
14.03.2026 13:01 21,6 °C 7,6 °C 49 % 85 % 1000,8 hPa 0,0 l/m² 4,8 km/h (1 Bft) W 268 ° 2 min 181 W/m² 5,2 °C 7,6 °C 6,4 km/h (2 Bft)
14.03.2026 13:02 21,6 °C 7,6 °C 49 % 85 % 1000,9 hPa 0,0 l/m² 3,7 km/h (1 Bft) W-NW 286 ° 1 min 185 W/m² 5,2 °C 7,6 °C 9,7 km/h (2 Bft)
14.03.2026 13:03 21,6 °C 7,6 °C 49 % 85 % 1000,9 hPa 0,0 l/m² 4,4 km/h (1 Bft) NW 309 ° 1 min 185 W/m² 5,2 °C 7,6 °C 8,0 km/h (2 Bft)
14.03.2026 13:05 21,6 °C 7,6 °C 49 % 84 % 1000,8 hPa 0,0 l/m² 2,0 km/h (1 Bft) W-NW 284 ° 2 min 176 W/m² 5,1 °C 7,6 °C 6,4 km/h (2 Bft)
14.03.2026 13:06 21,6 °C 7,7 °C 49 % 84 % 1000,8 hPa 0,0 l/m² 3,1 km/h (1 Bft) W-NW 302 ° 1 min 172 W/m² 5,2 °C 7,7 °C 8,0 km/h (2 Bft)
14.03.2026 13:07 21,6 °C 7,7 °C 49 % 84 % 1000,8 hPa 0,0 l/m² 3,7 km/h (1 Bft) W-SW 254 ° 1 min 163 W/m² 5,2 °C 7,7 °C 6,4 km/h (2 Bft)
14.03.2026 13:08 21,6 °C 7,7 °C 49 % 84 % 1000,8 hPa 0,0 l/m² 4,6 km/h (1 Bft) W-NW 299 ° 1 min 160 W/m² 5,2 °C 7,7 °C 11,3 km/h (2 Bft)
14.03.2026 13:10 21,6 °C 7,7 °C 49 % 84 % 1000,7 hPa 0,0 l/m² 5,7 km/h (2 Bft) W-NW 300 ° 2 min 153 W/m² 5,2 °C 7,7 °C 11,3 km/h (2 Bft)
14.03.2026 13:13 21,6 °C 7,7 °C 49 % 84 % 1000,8 hPa 0,0 l/m² 3,0 km/h (1 Bft) W-NW 284 ° 3 min 151 W/m² 5,2 °C 7,7 °C 8,0 km/h (2 Bft)
14.03.2026 13:15 21,6 °C 7,7 °C 49 % 84 % 1000,8 hPa 0,0 l/m² 3,0 km/h (1 Bft) W 281 ° 2 min 156 W/m² 5,2 °C 7,7 °C 12,9 km/h (3 Bft)
14.03.2026 13:17 21,6 °C 7,7 °C 49 % 84 % 1000,8 hPa 0,0 l/m² 9,1 km/h (2 Bft) W-NW 292 ° 2 min 167 W/m² 5,2 °C 5,6 °C 14,5 km/h (3 Bft)
14.03.2026 13:19 21,6 °C 7,7 °C 49 % 84 % 1000,9 hPa 0,0 l/m² 5,7 km/h (2 Bft) W 269 ° 2 min 185 W/m² 5,2 °C 7,7 °C 11,3 km/h (2 Bft)
14.03.2026 13:21 21,6 °C 7,7 °C 49 % 84 % 1001,0 hPa 0,0 l/m² 6,9 km/h (2 Bft) W 273 ° 2 min 199 W/m² 5,2 °C 7,3 °C 11,3 km/h (2 Bft)
14.03.2026 13:22 21,6 °C 7,7 °C 49 % 84 % 1000,9 hPa 0,0 l/m² 9,4 km/h (2 Bft) W-NW 290 ° 1 min 207 W/m² 5,2 °C 5,4 °C 14,5 km/h (3 Bft)
14.03.2026 13:23 21,6 °C 7,7 °C 49 % 84 % 1000,9 hPa 0,0 l/m² 6,9 km/h (2 Bft) W 265 ° 1 min 214 W/m² 5,2 °C 7,3 °C 11,3 km/h (2 Bft)
14.03.2026 13:25 21,6 °C 7,7 °C 49 % 84 % 1001,0 hPa 0,0 l/m² 5,4 km/h (2 Bft) W-SW 253 ° 2 min 229 W/m² 5,2 °C 7,7 °C 9,7 km/h (2 Bft)
14.03.2026 13:26 21,6 °C 7,7 °C 49 % 84 % 1001,1 hPa 0,0 l/m² 7,8 km/h (2 Bft) W 277 ° 1 min 227 W/m² 5,2 °C 6,6 °C 11,3 km/h (2 Bft)
14.03.2026 13:27 21,6 °C 7,7 °C 49 % 84 % 1001,1 hPa 0,0 l/m² 4,8 km/h (1 Bft) W 267 ° 1 min 221 W/m² 5,2 °C 7,7 °C 11,3 km/h (2 Bft)
14.03.2026 13:28 21,6 °C 7,7 °C 49 % 84 % 1001,1 hPa 0,0 l/m² 6,1 km/h (2 Bft) NW 319 ° 1 min 214 W/m² 5,2 °C 7,7 °C 11,3 km/h (2 Bft)
14.03.2026 13:30 21,6 °C 7,7 °C 49 % 84 % 1001,2 hPa 0,0 l/m² 4,4 km/h (1 Bft) W-SW 247 ° 2 min 197 W/m² 5,2 °C 7,7 °C 8,0 km/h (2 Bft)
14.03.2026 13:33 21,6 °C 7,7 °C 49 % 85 % 1001,3 hPa 0,0 l/m² 4,1 km/h (1 Bft) W 269 ° 3 min 178 W/m² 5,3 °C 7,7 °C 9,7 km/h (2 Bft)
14.03.2026 13:35 21,6 °C 7,7 °C 49 % 85 % 1001,3 hPa 0,0 l/m² 7,9 km/h (2 Bft) NW 317 ° 2 min 179 W/m² 5,3 °C 6,5 °C 12,9 km/h (3 Bft)
14.03.2026 13:37 21,6 °C 7,7 °C 49 % 85 % 1001,2 hPa 0,0 l/m² 6,2 km/h (2 Bft) W-NW 292 ° 2 min 195 W/m² 5,3 °C 7,7 °C 11,3 km/h (2 Bft)
14.03.2026 13:39 21,6 °C 7,6 °C 49 % 85 % 1001,2 hPa 0,0 l/m² 3,9 km/h (1 Bft) W-NW 291 ° 2 min 197 W/m² 5,2 °C 7,6 °C 6,4 km/h (2 Bft)
14.03.2026 13:41 21,6 °C 7,7 °C 49 % 85 % 1001,2 hPa 0,0 l/m² 2,5 km/h (1 Bft) W 269 ° 2 min 193 W/m² 5,3 °C 7,7 °C 6,4 km/h (2 Bft)
14.03.2026 13:42 21,6 °C 7,7 °C 49 % 85 % 1001,2 hPa 0,0 l/m² 4,0 km/h (1 Bft) W 278 ° 1 min 192 W/m² 5,3 °C 7,7 °C 9,7 km/h (2 Bft)
14.03.2026 13:43 21,6 °C 7,7 °C 49 % 85 % 1001,2 hPa 0,0 l/m² 3,9 km/h (1 Bft) W-NW 290 ° 1 min 188 W/m² 5,3 °C 7,7 °C 6,4 km/h (2 Bft)
14.03.2026 13:45 21,6 °C 7,7 °C 49 % 85 % 1001,2 hPa 0,0 l/m² 3,2 km/h (1 Bft) W 280 ° 2 min 183 W/m² 5,3 °C 7,7 °C 8,0 km/h (2 Bft)
14.03.2026 13:46 21,6 °C 7,7 °C 49 % 85 % 1001,2 hPa 0,0 l/m² 3,0 km/h (1 Bft) NW 306 ° 1 min 179 W/m² 5,3 °C 7,7 °C 11,3 km/h (2 Bft)
14.03.2026 13:47 21,6 °C 7,7 °C 49 % 85 % 1001,2 hPa 0,0 l/m² 7,1 km/h (2 Bft) NW 323 ° 1 min 178 W/m² 5,3 °C 7,1 °C 9,7 km/h (2 Bft)
14.03.2026 13:48 21,6 °C 7,7 °C 49 % 85 % 1001,2 hPa 0,0 l/m² 10,2 km/h (2 Bft) NW 309 ° 1 min 174 W/m² 5,3 °C 4,9 °C 12,9 km/h (3 Bft)
14.03.2026 13:50 21,6 °C 7,7 °C 49 % 85 % 1001,1 hPa 0,0 l/m² 6,2 km/h (2 Bft) W-NW 301 ° 2 min 167 W/m² 5,3 °C 7,7 °C 11,3 km/h (2 Bft)
14.03.2026 13:53 21,6 °C 7,7 °C 49 % 85 % 1001,1 hPa 0,0 l/m² 1,3 km/h (1 Bft) N-NW 333 ° 3 min 169 W/m² 5,3 °C 7,7 °C 6,4 km/h (2 Bft)
14.03.2026 13:55 21,6 °C 7,7 °C 49 % 85 % 1001,0 hPa 0,0 l/m² 4,0 km/h (1 Bft) N-NW 333 ° 2 min 169 W/m² 5,3 °C 7,7 °C 8,0 km/h (2 Bft)
14.03.2026 13:57 21,6 °C 7,7 °C 49 % 85 % 1001,0 hPa 0,0 l/m² 3,9 km/h (1 Bft) NW 322 ° 2 min 162 W/m² 5,3 °C 7,7 °C 8,0 km/h (2 Bft)
14.03.2026 13:59 21,6 °C 7,7 °C 49 % 85 % 1000,9 hPa 0,0 l/m² 5,1 km/h (1 Bft) NW 312 ° 2 min 146 W/m² 5,3 °C 7,7 °C 8,0 km/h (2 Bft)
14.03.2026 14:01 21,6 °C 7,8 °C 49 % 85 % 1000,9 hPa 0,0 l/m² 2,0 km/h (1 Bft) N-NW 338 ° 2 min 141 W/m² 5,4 °C 7,8 °C 4,8 km/h (1 Bft)
14.03.2026 14:02 21,6 °C 7,7 °C 49 % 85 % 1000,8 hPa 0,0 l/m² 3,1 km/h (1 Bft) N-NW 333 ° 1 min 141 W/m² 5,3 °C 7,7 °C 6,4 km/h (2 Bft)
14.03.2026 14:03 21,6 °C 7,7 °C 49 % 85 % 1000,8 hPa 0,0 l/m² 4,4 km/h (1 Bft) W-NW 290 ° 1 min 141 W/m² 5,3 °C 7,7 °C 6,4 km/h (2 Bft)
14.03.2026 14:05 21,6 °C 7,7 °C 49 % 85 % 1000,8 hPa 0,0 l/m² 4,3 km/h (1 Bft) NW 304 ° 2 min 137 W/m² 5,3 °C 7,7 °C 8,0 km/h (2 Bft)
14.03.2026 14:06 21,6 °C 7,7 °C 49 % 85 % 1000,9 hPa 0,0 l/m² 5,0 km/h (1 Bft) NW 324 ° 1 min 139 W/m² 5,3 °C 7,7 °C 8,0 km/h (2 Bft)
14.03.2026 14:07 21,6 °C 7,7 °C 49 % 85 % 1000,9 hPa 0,0 l/m² 4,9 km/h (1 Bft) W-NW 300 ° 1 min 139 W/m² 5,3 °C 7,7 °C 6,4 km/h (2 Bft)
14.03.2026 14:08 21,6 °C 7,7 °C 49 % 85 % 1000,9 hPa 0,0 l/m² 2,5 km/h (1 Bft) W 263 ° 1 min 137 W/m² 5,3 °C 7,7 °C 4,8 km/h (1 Bft)
14.03.2026 14:10 21,6 °C 7,7 °C 49 % 85 % 1000,9 hPa 0,0 l/m² 9,1 km/h (2 Bft) W 269 ° 2 min 128 W/m² 5,3 °C 5,6 °C 14,5 km/h (3 Bft)
14.03.2026 14:12 21,6 °C 7,6 °C 49 % 85 % 1001,0 hPa 0,0 l/m² 7,4 km/h (2 Bft) W 278 ° 2 min 121 W/m² 5,2 °C 6,8 °C 11,3 km/h (2 Bft)
14.03.2026 14:13 21,6 °C 7,6 °C 49 % 85 % 1001,0 hPa 0,0 l/m² 4,9 km/h (1 Bft) NW 306 ° 1 min 121 W/m² 5,2 °C 7,6 °C 9,7 km/h (2 Bft)
14.03.2026 14:15 21,6 °C 7,6 °C 49 % 85 % 1001,0 hPa 0,0 l/m² 4,9 km/h (1 Bft) W-NW 300 ° 2 min 127 W/m² 5,2 °C 7,6 °C 9,7 km/h (2 Bft)
14.03.2026 14:16 21,6 °C 7,6 °C 49 % 85 % 1001,1 hPa 0,0 l/m² 8,4 km/h (2 Bft) W 275 ° 1 min 127 W/m² 5,2 °C 6,0 °C 12,9 km/h (3 Bft)
14.03.2026 14:17 21,6 °C 7,6 °C 49 % 85 % 1001,1 hPa 0,0 l/m² 6,9 km/h (2 Bft) W 270 ° 1 min 127 W/m² 5,2 °C 7,2 °C 12,9 km/h (3 Bft)
14.03.2026 14:19 21,6 °C 7,6 °C 49 % 85 % 1001,1 hPa 0,0 l/m² 7,9 km/h (2 Bft) W-NW 283 ° 2 min 121 W/m² 5,2 °C 6,4 °C 14,5 km/h (3 Bft)
14.03.2026 14:21 21,6 °C 7,6 °C 49 % 85 % 1001,2 hPa 0,0 l/m² 4,6 km/h (1 Bft) W-NW 287 ° 2 min 116 W/m² 5,2 °C 7,6 °C 12,9 km/h (3 Bft)
14.03.2026 14:22 21,6 °C 7,5 °C 49 % 85 % 1001,1 hPa 0,0 l/m² 5,0 km/h (1 Bft) NW 311 ° 1 min 114 W/m² 5,1 °C 7,5 °C 11,3 km/h (2 Bft)
14.03.2026 14:23 21,6 °C 7,6 °C 49 % 85 % 1001,1 hPa 0,0 l/m² 2,1 km/h (1 Bft) W-NW 293 ° 1 min 111 W/m² 5,2 °C 7,6 °C 4,8 km/h (1 Bft)
14.03.2026 14:25 21,6 °C 7,6 °C 49 % 85 % 1001,2 hPa 0,0 l/m² 4,0 km/h (1 Bft) NW 323 ° 2 min 107 W/m² 5,2 °C 7,6 °C 11,3 km/h (2 Bft)
14.03.2026 14:27 21,6 °C 7,5 °C 49 % 85 % 1001,3 hPa 0,0 l/m² 3,5 km/h (1 Bft) W 279 ° 2 min 111 W/m² 5,1 °C 7,5 °C 8,0 km/h (2 Bft)
14.03.2026 14:29 21,6 °C 7,6 °C 49 % 85 % 1001,3 hPa 0,0 l/m² 4,1 km/h (1 Bft) W 278 ° 2 min 107 W/m² 5,2 °C 7,6 °C 11,3 km/h (2 Bft)
14.03.2026 14:31 21,6 °C 7,6 °C 49 % 85 % 1001,3 hPa 0,0 l/m² 5,0 km/h (1 Bft) W 276 ° 2 min 113 W/m² 5,2 °C 7,6 °C 9,7 km/h (2 Bft)
14.03.2026 14:32 21,6 °C 7,6 °C 49 % 85 % 1001,3 hPa 0,0 l/m² 4,0 km/h (1 Bft) W-NW 290 ° 1 min 116 W/m² 5,2 °C 7,6 °C 6,4 km/h (2 Bft)
14.03.2026 14:33 21,6 °C 7,6 °C 49 % 85 % 1001,3 hPa 0,0 l/m² 1,5 km/h (1 Bft) W 280 ° 1 min 118 W/m² 5,2 °C 7,6 °C 3,2 km/h (1 Bft)
14.03.2026 14:35 21,6 °C 7,5 °C 49 % 85 % 1001,3 hPa 0,0 l/m² 6,4 km/h (2 Bft) W-NW 284 ° 2 min 118 W/m² 5,1 °C 7,5 °C 11,3 km/h (2 Bft)
14.03.2026 14:37 21,6 °C 7,5 °C 49 % 85 % 1001,3 hPa 0,0 l/m² 5,5 km/h (2 Bft) W 280 ° 2 min 114 W/m² 5,1 °C 7,5 °C 11,3 km/h (2 Bft)
14.03.2026 14:39 21,6 °C 7,5 °C 49 % 85 % 1001,3 hPa 0,0 l/m² 4,2 km/h (1 Bft) NW 304 ° 2 min 109 W/m² 5,1 °C 7,5 °C 9,7 km/h (2 Bft)
14.03.2026 14:41 21,6 °C 7,5 °C 49 % 85 % 1001,4 hPa 0,0 l/m² 7,7 km/h (2 Bft) W-NW 285 ° 2 min 102 W/m² 5,1 °C 6,5 °C 14,5 km/h (3 Bft)
14.03.2026 14:42 21,6 °C 7,5 °C 49 % 85 % 1001,3 hPa 0,0 l/m² 5,6 km/h (2 Bft) W 277 ° 1 min 100 W/m² 5,1 °C 7,5 °C 11,3 km/h (2 Bft)
14.03.2026 14:43 21,6 °C 7,5 °C 49 % 85 % 1001,3 hPa 0,0 l/m² 4,9 km/h (1 Bft) W-NW 287 ° 1 min 100 W/m² 5,1 °C 7,5 °C 11,3 km/h (2 Bft)
14.03.2026 14:45 21,6 °C 7,5 °C 49 % 85 % 1001,3 hPa 0,0 l/m² 4,7 km/h (1 Bft) NW 304 ° 2 min 98 W/m² 5,1 °C 7,5 °C 8,0 km/h (2 Bft)
14.03.2026 14:46 21,6 °C 7,4 °C 49 % 85 % 1001,3 hPa 0,0 l/m² 1,8 km/h (1 Bft) W-NW 302 ° 1 min 105 W/m² 5,0 °C 7,4 °C 4,8 km/h (1 Bft)
14.03.2026 14:47 21,6 °C 7,4 °C 49 % 85 % 1001,3 hPa 0,0 l/m² 5,3 km/h (1 Bft) W-NW 295 ° 1 min 111 W/m² 5,0 °C 7,4 °C 9,7 km/h (2 Bft)
14.03.2026 14:48 21,6 °C 7,4 °C 49 % 85 % 1001,3 hPa 0,0 l/m² 3,6 km/h (1 Bft) W-NW 288 ° 1 min 116 W/m² 5,0 °C 7,4 °C 4,8 km/h (1 Bft)
14.03.2026 14:50 21,6 °C 7,5 °C 49 % 86 % 1001,3 hPa 0,0 l/m² 4,4 km/h (1 Bft) W-NW 286 ° 2 min 127 W/m² 5,3 °C 7,5 °C 11,3 km/h (2 Bft)
14.03.2026 14:53 21,7 °C 7,5 °C 49 % 86 % 1001,3 hPa 0,0 l/m² 4,8 km/h (1 Bft) W 278 ° 3 min 137 W/m² 5,3 °C 7,5 °C 8,0 km/h (2 Bft)
14.03.2026 14:55 21,7 °C 7,5 °C 49 % 86 % 1001,3 hPa 0,0 l/m² 3,5 km/h (1 Bft) W 281 ° 2 min 137 W/m² 5,3 °C 7,5 °C 6,4 km/h (2 Bft)
14.03.2026 14:57 21,7 °C 7,5 °C 49 % 86 % 1001,4 hPa 0,0 l/m² 4,6 km/h (1 Bft) NW 304 ° 2 min 141 W/m² 5,3 °C 7,5 °C 9,7 km/h (2 Bft)
14.03.2026 14:59 21,7 °C 7,5 °C 49 % 86 % 1001,3 hPa 0,0 l/m² 6,6 km/h (2 Bft) W-NW 290 ° 2 min 144 W/m² 5,3 °C 7,4 °C 11,3 km/h (2 Bft)
14.03.2026 15:01 21,7 °C 7,5 °C 49 % 86 % 1001,4 hPa 0,0 l/m² 1,7 km/h (1 Bft) W 273 ° 2 min 141 W/m² 5,3 °C 7,5 °C 6,4 km/h (2 Bft)
14.03.2026 15:02 21,7 °C 7,6 °C 49 % 86 % 1001,4 hPa 0,0 l/m² 6,4 km/h (2 Bft) W-NW 289 ° 1 min 141 W/m² 5,4 °C 7,6 °C 11,3 km/h (2 Bft)
14.03.2026 15:03 21,7 °C 7,5 °C 49 % 86 % 1001,4 hPa 0,0 l/m² 4,1 km/h (1 Bft) W 269 ° 1 min 139 W/m² 5,3 °C 7,5 °C 8,0 km/h (2 Bft)
14.03.2026 15:05 21,7 °C 7,5 °C 49 % 86 % 1001,4 hPa 0,0 l/m² 8,5 km/h (2 Bft) W 267 ° 2 min 132 W/m² 5,3 °C 5,9 °C 12,9 km/h (3 Bft)
14.03.2026 15:07 21,7 °C 7,5 °C 49 % 86 % 1001,4 hPa 0,0 l/m² 5,0 km/h (1 Bft) W-NW 295 ° 2 min 125 W/m² 5,3 °C 7,5 °C 11,3 km/h (2 Bft)
14.03.2026 15:09 21,7 °C 7,5 °C 49 % 86 % 1001,5 hPa 0,0 l/m² 5,2 km/h (1 Bft) W 263 ° 2 min 116 W/m² 5,3 °C 7,5 °C 12,9 km/h (3 Bft)
14.03.2026 15:11 21,7 °C 7,5 °C 49 % 86 % 1001,5 hPa 0,0 l/m² 5,1 km/h (1 Bft) W-NW 302 ° 2 min 107 W/m² 5,3 °C 7,5 °C 9,7 km/h (2 Bft)
14.03.2026 15:12 21,7 °C 7,5 °C 49 % 86 % 1001,5 hPa 0,0 l/m² 4,0 km/h (1 Bft) W-NW 294 ° 1 min 107 W/m² 5,3 °C 7,5 °C 6,4 km/h (2 Bft)
14.03.2026 15:13 21,7 °C 7,5 °C 49 % 86 % 1001,5 hPa 0,0 l/m² 4,4 km/h (1 Bft) W-NW 284 ° 1 min 109 W/m² 5,3 °C 7,5 °C 9,7 km/h (2 Bft)
14.03.2026 15:15 21,7 °C 7,6 °C 49 % 86 % 1001,4 hPa 0,0 l/m² 5,2 km/h (1 Bft) NW 306 ° 2 min 111 W/m² 5,4 °C 7,6 °C 8,0 km/h (2 Bft)
14.03.2026 15:16 21,7 °C 7,5 °C 49 % 86 % 1001,5 hPa 0,0 l/m² 5,8 km/h (2 Bft) W 269 ° 1 min 109 W/m² 5,3 °C 7,5 °C 9,7 km/h (2 Bft)
14.03.2026 15:17 21,7 °C 7,5 °C 49 % 86 % 1001,5 hPa 0,0 l/m² 2,9 km/h (1 Bft) W 271 ° 1 min 105 W/m² 5,3 °C 7,5 °C 9,7 km/h (2 Bft)
14.03.2026 15:18 21,7 °C 7,6 °C 49 % 86 % 1001,5 hPa 0,0 l/m² 8,3 km/h (2 Bft) W 265 ° 1 min 102 W/m² 5,4 °C 6,1 °C 11,3 km/h (2 Bft)
14.03.2026 15:20 21,7 °C 7,5 °C 49 % 86 % 1001,5 hPa 0,0 l/m² 5,1 km/h (1 Bft) W 281 ° 2 min 95 W/m² 5,3 °C 7,5 °C 11,3 km/h (2 Bft)
14.03.2026 15:23 21,7 °C 7,4 °C 49 % 86 % 1001,6 hPa 0,0 l/m² 6,2 km/h (2 Bft) W 273 ° 3 min 83 W/m² 5,2 °C 7,4 °C 12,9 km/h (3 Bft)
14.03.2026 15:25 21,7 °C 7,4 °C 49 % 86 % 1001,6 hPa 0,2 l/m² 5,6 km/h (2 Bft) W-NW 296 ° 2 min 74 W/m² 5,2 °C 7,4 °C 9,7 km/h (2 Bft)
14.03.2026 15:27 21,7 °C 7,4 °C 49 % 86 % 1001,7 hPa 0,0 l/m² 3,2 km/h (1 Bft) W-NW 301 ° 2 min 67 W/m² 5,2 °C 7,4 °C 6,4 km/h (2 Bft)
14.03.2026 15:29 21,7 °C 7,4 °C 49 % 86 % 1001,7 hPa 0,0 l/m² 5,2 km/h (1 Bft) W-NW 288 ° 2 min 62 W/m² 5,2 °C 7,4 °C 12,9 km/h (3 Bft)
14.03.2026 15:31 21,6 °C 7,4 °C 49 % 86 % 1001,7 hPa 0,0 l/m² 4,6 km/h (1 Bft) NW 307 ° 2 min 58 W/m² 5,2 °C 7,4 °C 9,7 km/h (2 Bft)
14.03.2026 15:32 21,6 °C 7,4 °C 49 % 86 % 1001,7 hPa 0,0 l/m² 4,2 km/h (1 Bft) W-NW 289 ° 1 min 54 W/m² 5,2 °C 7,4 °C 6,4 km/h (2 Bft)
14.03.2026 15:33 21,6 °C 7,3 °C 49 % 86 % 1001,7 hPa 0,0 l/m² 2,2 km/h (1 Bft) W 273 ° 1 min 53 W/m² 5,1 °C 7,3 °C 4,8 km/h (1 Bft)
14.03.2026 15:35 21,6 °C 7,3 °C 49 % 86 % 1001,7 hPa 0,0 l/m² 2,3 km/h (1 Bft) W-NW 291 ° 0 min 49 W/m² 5,1 °C 7,3 °C 6,4 km/h (2 Bft)
14.03.2026 15:37 21,6 °C 7,3 °C 48 % 86 % 1001,7 hPa 0,0 l/m² 5,5 km/h (2 Bft) W-NW 285 ° 0 min 47 W/m² 5,1 °C 7,3 °C 9,7 km/h (2 Bft)
14.03.2026 15:39 21,6 °C 7,3 °C 48 % 86 % 1001,7 hPa 0,0 l/m² 3,3 km/h (1 Bft) W-NW 286 ° 0 min 47 W/m² 5,1 °C 7,3 °C 9,7 km/h (2 Bft)
14.03.2026 15:41 21,6 °C 7,3 °C 48 % 86 % 1001,7 hPa 0,0 l/m² 6,3 km/h (2 Bft) W-NW 301 ° 0 min 47 W/m² 5,1 °C 7,3 °C 11,3 km/h (2 Bft)
14.03.2026 15:42 21,6 °C 7,3 °C 48 % 86 % 1001,7 hPa 0,0 l/m² 4,1 km/h (1 Bft) W-NW 301 ° 0 min 47 W/m² 5,1 °C 7,3 °C 11,3 km/h (2 Bft)
14.03.2026 15:43 21,6 °C 7,2 °C 48 % 86 % 1001,7 hPa 0,0 l/m² 1,5 km/h (1 Bft) W-NW 300 ° 0 min 46 W/m² 5,0 °C 7,2 °C 3,2 km/h (1 Bft)
14.03.2026 15:45 21,6 °C 7,3 °C 48 % 86 % 1001,8 hPa 0,0 l/m² 0,6 km/h (0 Bft) NW 317 ° 0 min 46 W/m² 5,1 °C 7,3 °C 3,2 km/h (1 Bft)
14.03.2026 15:47 21,6 °C 7,3 °C 48 % 86 % 1001,8 hPa 0,0 l/m² 5,2 km/h (1 Bft) NW 323 ° 0 min 44 W/m² 5,1 °C 7,3 °C 9,7 km/h (2 Bft)
14.03.2026 15:49 21,6 °C 7,2 °C 49 % 86 % 1001,8 hPa 0,0 l/m² 3,3 km/h (1 Bft) W-NW 282 ° 0 min 44 W/m² 5,0 °C 7,2 °C 6,4 km/h (2 Bft)
14.03.2026 15:51 21,6 °C 7,2 °C 49 % 86 % 1001,8 hPa 0,0 l/m² 5,1 km/h (1 Bft) NW 312 ° 0 min 44 W/m² 5,0 °C 7,2 °C 8,0 km/h (2 Bft)
14.03.2026 15:52 21,6 °C 7,2 °C 49 % 86 % 1001,8 hPa 0,0 l/m² 3,0 km/h (1 Bft) NW 308 ° 0 min 42 W/m² 5,0 °C 7,2 °C 4,8 km/h (1 Bft)
14.03.2026 15:53 21,6 °C 7,2 °C 49 % 86 % 1001,8 hPa 0,0 l/m² 3,3 km/h (1 Bft) NW 309 ° 0 min 42 W/m² 5,0 °C 7,2 °C 8,0 km/h (2 Bft)
14.03.2026 15:55 21,6 °C 7,2 °C 49 % 87 % 1001,8 hPa 0,0 l/m² 3,4 km/h (1 Bft) W 271 ° 0 min 40 W/m² 5,2 °C 7,2 °C 6,4 km/h (2 Bft)
14.03.2026 15:57 21,6 °C 7,2 °C 49 % 87 % 1001,8 hPa 0,0 l/m² 2,3 km/h (1 Bft) W 281 ° 0 min 39 W/m² 5,2 °C 7,2 °C 6,4 km/h (2 Bft)
14.03.2026 15:59 21,6 °C 7,2 °C 49 % 87 % 1001,8 hPa 0,0 l/m² 5,2 km/h (1 Bft) W 276 ° 0 min 40 W/m² 5,2 °C 7,2 °C 9,7 km/h (2 Bft)
14.03.2026 16:01 21,6 °C 7,1 °C 49 % 87 % 1001,8 hPa 0,0 l/m² 2,3 km/h (1 Bft) W-NW 285 ° 0 min 42 W/m² 5,1 °C 7,1 °C 4,8 km/h (1 Bft)
14.03.2026 16:02 21,6 °C 7,1 °C 49 % 86 % 1001,8 hPa 0,0 l/m² 0,9 km/h (0 Bft) W 272 ° 0 min 42 W/m² 4,9 °C 7,1 °C 3,2 km/h (1 Bft)
14.03.2026 16:03 21,6 °C 7,1 °C 49 % 86 % 1001,8 hPa 0,0 l/m² 3,0 km/h (1 Bft) W-NW 284 ° 0 min 44 W/m² 4,9 °C 7,1 °C 4,8 km/h (1 Bft)
14.03.2026 16:05 21,6 °C 7,1 °C 49 % 87 % 1001,8 hPa 0,0 l/m² 1,9 km/h (1 Bft) W 264 ° 0 min 46 W/m² 5,1 °C 7,1 °C 4,8 km/h (1 Bft)
14.03.2026 16:07 21,6 °C 7,1 °C 49 % 87 % 1001,9 hPa 0,0 l/m² 1,3 km/h (1 Bft) W-NW 285 ° 0 min 47 W/m² 5,1 °C 7,1 °C 6,4 km/h (2 Bft)
14.03.2026 16:09 21,6 °C 7,1 °C 49 % 87 % 1001,9 hPa 0,0 l/m² 0,9 km/h (0 Bft) W-NW 290 ° 0 min 49 W/m² 5,1 °C 7,1 °C 8,0 km/h (2 Bft)
14.03.2026 16:11 21,6 °C 7,1 °C 49 % 87 % 1001,9 hPa 0,0 l/m² 2,8 km/h (1 Bft) W 273 ° 0 min 49 W/m² 5,1 °C 7,1 °C 11,3 km/h (2 Bft)
14.03.2026 16:12 21,6 °C 7,1 °C 49 % 87 % 1001,9 hPa 0,0 l/m² 5,7 km/h (2 Bft) W-NW 302 ° 0 min 49 W/m² 5,1 °C 7,1 °C 8,0 km/h (2 Bft)
14.03.2026 16:13 21,6 °C 7,1 °C 49 % 87 % 1001,9 hPa 0,0 l/m² 2,5 km/h (1 Bft) W-NW 303 ° 0 min 49 W/m² 5,1 °C 7,1 °C 6,4 km/h (2 Bft)
14.03.2026 16:15 21,6 °C 7,0 °C 50 % 87 % 1001,9 hPa 0,0 l/m² 1,8 km/h (1 Bft) W-NW 299 ° 0 min 47 W/m² 5,0 °C 7,0 °C 9,7 km/h (2 Bft)
14.03.2026 16:17 21,6 °C 7,0 °C 50 % 87 % 1001,9 hPa 0,0 l/m² 5,1 km/h (1 Bft) N-NW 329 ° 0 min 46 W/m² 5,0 °C 7,0 °C 8,0 km/h (2 Bft)
14.03.2026 16:19 21,6 °C 7,0 °C 50 % 87 % 1001,9 hPa 0,0 l/m² 5,1 km/h (1 Bft) NW 312 ° 0 min 46 W/m² 5,0 °C 7,0 °C 11,3 km/h (2 Bft)
14.03.2026 16:21 21,6 °C 7,0 °C 50 % 87 % 1002,0 hPa 0,0 l/m² 5,5 km/h (2 Bft) NW 324 ° 0 min 47 W/m² 5,0 °C 7,0 °C 8,0 km/h (2 Bft)
14.03.2026 16:22 21,6 °C 7,0 °C 50 % 87 % 1001,9 hPa 0,0 l/m² 8,1 km/h (2 Bft) W-NW 296 ° 0 min 47 W/m² 5,0 °C 5,6 °C 12,9 km/h (3 Bft)
14.03.2026 16:23 21,6 °C 6,9 °C 50 % 87 % 1001,9 hPa 0,0 l/m² 6,4 km/h (2 Bft) NW 305 ° 0 min 47 W/m² 4,9 °C 6,9 °C 11,3 km/h (2 Bft)
14.03.2026 16:25 21,6 °C 6,9 °C 50 % 87 % 1002,0 hPa 0,0 l/m² 2,4 km/h (1 Bft) NW 316 ° 0 min 47 W/m² 4,9 °C 6,9 °C 6,4 km/h (2 Bft)
14.03.2026 16:27 21,6 °C 6,9 °C 50 % 87 % 1002,0 hPa 0,0 l/m² 6,7 km/h (2 Bft) W-NW 298 ° 0 min 49 W/m² 4,9 °C 6,7 °C 14,5 km/h (3 Bft)
14.03.2026 16:29 21,6 °C 6,9 °C 50 % 88 % 1002,0 hPa 0,2 l/m² 4,4 km/h (1 Bft) NW 304 ° 0 min 49 W/m² 5,1 °C 6,9 °C 9,7 km/h (2 Bft)
14.03.2026 16:31 21,6 °C 6,9 °C 50 % 88 % 1002,0 hPa 0,0 l/m² 2,4 km/h (1 Bft) W-NW 301 ° 0 min 51 W/m² 5,1 °C 6,9 °C 6,4 km/h (2 Bft)
14.03.2026 16:32 21,6 °C 6,9 °C 50 % 88 % 1002,1 hPa 0,0 l/m² 2,5 km/h (1 Bft) N-NW 343 ° 1 min 53 W/m² 5,1 °C 6,9 °C 6,4 km/h (2 Bft)
14.03.2026 16:33 21,6 °C 6,9 °C 50 % 88 % 1002,1 hPa 0,0 l/m² 0,0 km/h (0 Bft) N-NW 340 ° 1 min 53 W/m² 5,1 °C 6,9 °C 0,0 km/h (0 Bft)
14.03.2026 16:35 21,6 °C 6,9 °C 50 % 88 % 1002,2 hPa 0,0 l/m² 1,6 km/h (1 Bft) W-NW 292 ° 2 min 53 W/m² 5,1 °C 6,9 °C 6,4 km/h (2 Bft)
14.03.2026 16:37 21,6 °C 6,9 °C 50 % 88 % 1002,1 hPa 0,0 l/m² 2,4 km/h (1 Bft) NW 312 ° 2 min 53 W/m² 5,1 °C 6,9 °C 6,4 km/h (2 Bft)
14.03.2026 16:39 21,6 °C 6,9 °C 50 % 88 % 1002,1 hPa 0,0 l/m² 0,8 km/h (0 Bft) NW 319 ° 2 min 53 W/m² 5,1 °C 6,9 °C 3,2 km/h (1 Bft)
14.03.2026 16:41 21,6 °C 6,9 °C 50 % 88 % 1002,2 hPa 0,0 l/m² 0,2 km/h (0 Bft) W-NW 287 ° 2 min 53 W/m² 5,1 °C 6,9 °C 6,4 km/h (2 Bft)
14.03.2026 16:42 21,6 °C 6,9 °C 50 % 88 % 1002,2 hPa 0,0 l/m² 5,6 km/h (2 Bft) NW 317 ° 1 min 54 W/m² 5,1 °C 6,9 °C 8,0 km/h (2 Bft)
14.03.2026 16:43 21,6 °C 6,9 °C 50 % 88 % 1002,2 hPa 0,0 l/m² 7,2 km/h (2 Bft) NW 307 ° 1 min 54 W/m² 5,1 °C 6,2 °C 11,3 km/h (2 Bft)
14.03.2026 16:45 21,6 °C 6,9 °C 50 % 88 % 1002,2 hPa 0,0 l/m² 1,4 km/h (1 Bft) NW 316 ° 2 min 54 W/m² 5,1 °C 6,9 °C 8,0 km/h (2 Bft)
14.03.2026 16:47 21,6 °C 6,9 °C 50 % 88 % 1002,1 hPa 0,0 l/m² 3,2 km/h (1 Bft) W-NW 292 ° 2 min 53 W/m² 5,1 °C 6,9 °C 6,4 km/h (2 Bft)
14.03.2026 16:49 21,6 °C 6,9 °C 50 % 88 % 1002,2 hPa 0,0 l/m² 3,1 km/h (1 Bft) W-NW 292 ° 0 min 51 W/m² 5,1 °C 6,9 °C 6,4 km/h (2 Bft)
14.03.2026 16:51 21,6 °C 6,9 °C 50 % 88 % 1002,2 hPa 0,0 l/m² 3,8 km/h (1 Bft) W-NW 284 ° 0 min 46 W/m² 5,1 °C 6,9 °C 6,4 km/h (2 Bft)
14.03.2026 16:52 21,6 °C 6,9 °C 50 % 88 % 1002,3 hPa 0,0 l/m² 2,1 km/h (1 Bft) NW 305 ° 0 min 42 W/m² 5,1 °C 6,9 °C 4,8 km/h (1 Bft)
14.03.2026 16:53 21,6 °C 6,9 °C 50 % 88 % 1002,3 hPa 0,0 l/m² 3,0 km/h (1 Bft) W-NW 303 ° 0 min 39 W/m² 5,1 °C 6,9 °C 4,8 km/h (1 Bft)
14.03.2026 16:55 21,6 °C 6,9 °C 50 % 88 % 1002,3 hPa 0,0 l/m² 3,2 km/h (1 Bft) NW 315 ° 0 min 33 W/m² 5,1 °C 6,9 °C 12,9 km/h (3 Bft)
14.03.2026 16:57 21,6 °C 6,9 °C 50 % 88 % 1002,3 hPa 0,0 l/m² 4,7 km/h (1 Bft) W 268 ° 0 min 32 W/m² 5,1 °C 6,9 °C 9,7 km/h (2 Bft)
14.03.2026 16:59 21,6 °C 6,8 °C 50 % 88 % 1002,3 hPa 0,0 l/m² 2,9 km/h (1 Bft) W 277 ° 0 min 30 W/m² 5,0 °C 6,8 °C 6,4 km/h (2 Bft)
14.03.2026 17:01 21,6 °C 6,8 °C 50 % 88 % 1002,4 hPa 0,0 l/m² 2,7 km/h (1 Bft) W-NW 291 ° 0 min 28 W/m² 5,0 °C 6,8 °C 6,4 km/h (2 Bft)
14.03.2026 17:02 21,6 °C 6,8 °C 50 % 88 % 1002,4 hPa 0,0 l/m² 1,4 km/h (1 Bft) W-NW 285 ° 0 min 26 W/m² 5,0 °C 6,8 °C 3,2 km/h (1 Bft)
14.03.2026 17:03 21,6 °C 6,8 °C 50 % 88 % 1002,4 hPa 0,0 l/m² 0,1 km/h (0 Bft) W 276 ° 0 min 25 W/m² 5,0 °C 6,8 °C 1,6 km/h (1 Bft)
14.03.2026 17:05 21,6 °C 6,8 °C 50 % 88 % 1002,4 hPa 0,0 l/m² 0,4 km/h (0 Bft) W-NW 298 ° 0 min 23 W/m² 5,0 °C 6,8 °C 1,6 km/h (1 Bft)
14.03.2026 17:07 21,6 °C 6,8 °C 50 % 88 % 1002,4 hPa 0,0 l/m² 2,8 km/h (1 Bft) W-NW 299 ° 0 min 21 W/m² 5,0 °C 6,8 °C 11,3 km/h (2 Bft)
14.03.2026 17:09 21,6 °C 6,8 °C 50 % 88 % 1002,5 hPa 0,0 l/m² 1,8 km/h (1 Bft) W 265 ° 0 min 19 W/m² 5,0 °C 6,8 °C 6,4 km/h (2 Bft)
14.03.2026 17:11 21,6 °C 6,8 °C 50 % 88 % 1002,5 hPa 0,0 l/m² 3,8 km/h (1 Bft) W-NW 296 ° 0 min 18 W/m² 5,0 °C 6,8 °C 8,0 km/h (2 Bft)
14.03.2026 17:12 21,6 °C 6,8 °C 50 % 88 % 1002,6 hPa 0,0 l/m² 0,0 km/h (0 Bft) W-NW 289 ° 0 min 16 W/m² 5,0 °C 6,8 °C 0,0 km/h (0 Bft)
14.03.2026 17:13 21,6 °C 6,8 °C 50 % 88 % 1002,6 hPa 0,0 l/m² 0,2 km/h (0 Bft) W-NW 296 ° 0 min 16 W/m² 5,0 °C 6,8 °C 1,6 km/h (1 Bft)
14.03.2026 17:15 21,6 °C 6,8 °C 50 % 88 % 1002,6 hPa 0,0 l/m² 0,5 km/h (0 Bft) N-NW 328 ° 0 min 16 W/m² 5,0 °C 6,8 °C 3,2 km/h (1 Bft)
14.03.2026 17:17 21,6 °C 6,7 °C 50 % 88 % 1002,7 hPa 0,0 l/m² 2,5 km/h (1 Bft) W-NW 297 ° 0 min 16 W/m² 4,9 °C 6,7 °C 6,4 km/h (2 Bft)
14.03.2026 17:19 21,6 °C 6,7 °C 50 % 88 % 1002,7 hPa 0,0 l/m² 0,6 km/h (0 Bft) NW 305 ° 0 min 14 W/m² 4,9 °C 6,7 °C 4,8 km/h (1 Bft)
14.03.2026 17:21 21,6 °C 6,7 °C 50 % 88 % 1002,7 hPa 0,0 l/m² 1,1 km/h (1 Bft) W 279 ° 0 min 12 W/m² 4,9 °C 6,7 °C 4,8 km/h (1 Bft)
14.03.2026 17:22 21,6 °C 6,7 °C 50 % 88 % 1002,7 hPa 0,0 l/m² 0,0 km/h (0 Bft) W 277 ° 0 min 11 W/m² 4,9 °C 6,7 °C 0,0 km/h (0 Bft)
14.03.2026 17:23 21,6 °C 6,7 °C 50 % 88 % 1002,7 hPa 0,0 l/m² 0,4 km/h (0 Bft) NW 311 ° 0 min 11 W/m² 4,9 °C 6,7 °C 3,2 km/h (1 Bft)
14.03.2026 17:25 21,6 °C 6,7 °C 51 % 88 % 1002,8 hPa 0,0 l/m² 2,8 km/h (1 Bft) W-NW 302 ° 0 min 9 W/m² 4,9 °C 6,7 °C 9,7 km/h (2 Bft)
14.03.2026 17:27 21,6 °C 6,7 °C 51 % 88 % 1002,8 hPa 0,0 l/m² 0,3 km/h (0 Bft) NW 317 ° 0 min 9 W/m² 4,9 °C 6,7 °C 4,8 km/h (1 Bft)
14.03.2026 17:29 21,6 °C 6,7 °C 51 % 88 % 1002,8 hPa 0,0 l/m² 0,0 km/h (0 Bft) NW 321 ° 0 min 9 W/m² 4,9 °C 6,7 °C 0,0 km/h (0 Bft)
14.03.2026 17:31 21,6 °C 6,7 °C 51 % 88 % 1002,8 hPa 0,0 l/m² 0,8 km/h (0 Bft) NW 313 ° 0 min 9 W/m² 4,9 °C 6,7 °C 3,2 km/h (1 Bft)
14.03.2026 17:32 21,6 °C 6,7 °C 51 % 88 % 1002,8 hPa 0,0 l/m² 0,7 km/h (0 Bft) NW 318 ° 0 min 9 W/m² 4,9 °C 6,7 °C 3,2 km/h (1 Bft)
14.03.2026 17:33 21,6 °C 6,7 °C 51 % 88 % 1002,8 hPa 0,0 l/m² 0,1 km/h (0 Bft) NW 317 ° 0 min 9 W/m² 4,9 °C 6,7 °C 1,6 km/h (1 Bft)
14.03.2026 17:35 21,7 °C 6,7 °C 51 % 89 % 1002,9 hPa 0,0 l/m² 1,7 km/h (1 Bft) NW 309 ° 0 min 9 W/m² 5,0 °C 6,7 °C 6,4 km/h (2 Bft)
14.03.2026 17:37 21,6 °C 6,7 °C 51 % 89 % 1002,9 hPa 0,0 l/m² 0,7 km/h (0 Bft) NW 319 ° 0 min 9 W/m² 5,0 °C 6,7 °C 3,2 km/h (1 Bft)
14.03.2026 17:39 21,6 °C 6,6 °C 51 % 89 % 1002,8 hPa 0,0 l/m² 0,7 km/h (0 Bft) NW 310 ° 0 min 9 W/m² 4,9 °C 6,6 °C 4,8 km/h (1 Bft)
14.03.2026 17:41 21,6 °C 6,6 °C 51 % 89 % 1002,9 hPa 0,0 l/m² 0,1 km/h (0 Bft) N-NW 343 ° 0 min 7 W/m² 4,9 °C 6,6 °C 1,6 km/h (1 Bft)
14.03.2026 17:42 21,6 °C 6,6 °C 51 % 89 % 1002,9 hPa 0,0 l/m² 0,2 km/h (0 Bft) N-NW 330 ° 0 min 7 W/m² 4,9 °C 6,6 °C 1,6 km/h (1 Bft)
14.03.2026 17:43 21,6 °C 6,6 °C 51 % 89 % 1002,9 hPa 0,0 l/m² 0,1 km/h (0 Bft) N-NW 334 ° 0 min 7 W/m² 4,9 °C 6,6 °C 1,6 km/h (1 Bft)
14.03.2026 17:45 21,6 °C 6,6 °C 51 % 89 % 1003,0 hPa 0,0 l/m² 2,0 km/h (1 Bft) N-NW 344 ° 0 min 5 W/m² 4,9 °C 6,6 °C 6,4 km/h (2 Bft)
14.03.2026 17:47 21,6 °C 6,6 °C 51 % 89 % 1002,9 hPa 0,0 l/m² 1,8 km/h (1 Bft) N-NW 336 ° 0 min 5 W/m² 4,9 °C 6,6 °C 4,8 km/h (1 Bft)
14.03.2026 17:49 21,6 °C 6,6 °C 51 % 89 % 1002,9 hPa 0,0 l/m² 0,0 km/h (0 Bft) N-NW 329 ° 0 min 0 W/m² 4,9 °C 6,6 °C 0,0 km/h (0 Bft)
14.03.2026 17:51 21,6 °C 6,6 °C 51 % 89 % 1003,0 hPa 0,0 l/m² 0,2 km/h (0 Bft) W-NW 291 ° 0 min 0 W/m² 4,9 °C 6,6 °C 1,6 km/h (1 Bft)
14.03.2026 17:52 21,6 °C 6,6 °C 51 % 89 % 1003,0 hPa 0,0 l/m² 0,0 km/h (0 Bft) W-NW 291 ° 0 min 0 W/m² 4,9 °C 6,6 °C 0,0 km/h (0 Bft)
14.03.2026 17:53 21,6 °C 6,6 °C 51 % 89 % 1003,0 hPa 0,2 l/m² 1,2 km/h (1 Bft) NW 315 ° 0 min 0 W/m² 4,9 °C 6,6 °C 3,2 km/h (1 Bft)
14.03.2026 17:55 21,6 °C 6,6 °C 51 % 89 % 1003,0 hPa 0,0 l/m² 0,7 km/h (0 Bft) NW 326 ° 0 min 0 W/m² 4,9 °C 6,6 °C 3,2 km/h (1 Bft)
14.03.2026 17:57 21,6 °C 6,5 °C 51 % 89 % 1003,1 hPa 0,0 l/m² 0,0 km/h (0 Bft) W 271 ° 0 min 0 W/m² 4,8 °C 6,5 °C 1,6 km/h (1 Bft)
14.03.2026 17:59 21,6 °C 6,5 °C 51 % 89 % 1003,1 hPa 0,0 l/m² 1,8 km/h (1 Bft) NW 314 ° 0 min 0 W/m² 4,8 °C 6,5 °C 6,4 km/h (2 Bft)
14.03.2026 18:01 21,6 °C 6,5 °C 51 % 89 % 1003,2 hPa 0,0 l/m² 1,7 km/h (1 Bft) NW 305 ° 0 min 0 W/m² 4,8 °C 6,5 °C 4,8 km/h (1 Bft)
14.03.2026 18:02 21,6 °C 6,5 °C 51 % 89 % 1003,2 hPa 0,0 l/m² 0,0 km/h (0 Bft) NW 305 ° 0 min 0 W/m² 4,8 °C 6,5 °C 0,0 km/h (0 Bft)
14.03.2026 18:04 21,6 °C 6,5 °C 51 % 89 % 1003,1 hPa 0,0 l/m² 0,0 km/h (0 Bft) N-NW 334 ° 0 min 0 W/m² 4,8 °C 6,5 °C 1,6 km/h (1 Bft)
14.03.2026 18:06 21,6 °C 6,4 °C 51 % 89 % 1003,2 hPa 0,0 l/m² 0,4 km/h (0 Bft) NW 313 ° 0 min 0 W/m² 4,7 °C 6,4 °C 3,2 km/h (1 Bft)
14.03.2026 18:08 21,6 °C 6,4 °C 50 % 89 % 1003,3 hPa 0,0 l/m² 0,7 km/h (0 Bft) NW 305 ° 0 min 0 W/m² 4,7 °C 6,4 °C 3,2 km/h (1 Bft)
14.03.2026 18:09 21,6 °C 6,4 °C 51 % 89 % 1003,1 hPa 0,0 l/m² 1,7 km/h (1 Bft) NW 313 ° 0 min 0 W/m² 4,7 °C 6,4 °C 4,8 km/h (1 Bft)
14.03.2026 18:10 21,6 °C 6,4 °C 51 % 89 % 1003,3 hPa 0,0 l/m² 0,2 km/h (0 Bft) NW 315 ° 0 min 0 W/m² 4,7 °C 6,4 °C 1,6 km/h (1 Bft)
14.03.2026 18:11 21,6 °C 6,4 °C 51 % 89 % 1003,3 hPa 0,0 l/m² 1,6 km/h (1 Bft) NW 315 ° 0 min 0 W/m² 4,7 °C 6,4 °C 4,8 km/h (1 Bft)
14.03.2026 18:12 21,6 °C 6,4 °C 51 % 89 % 1003,3 hPa 0,0 l/m² 1,6 km/h (1 Bft) NW 315 ° 0 min 0 W/m² 4,7 °C 6,4 °C 4,8 km/h (1 Bft)
14.03.2026 18:17 21,6 °C 6,4 °C 51 % 89 % 1003,3 hPa 0,0 l/m² 1,0 km/h (0 Bft) NW 315 ° 0 min 0 W/m² 4,7 °C 6,4 °C 3,2 km/h (1 Bft)
14.03.2026 18:19 21,6 °C 6,4 °C 51 % 89 % 1003,3 hPa 0,0 l/m² 0,2 km/h (0 Bft) W-NW 301 ° 0 min 0 W/m² 4,7 °C 6,4 °C 1,6 km/h (1 Bft)
14.03.2026 18:20 21,6 °C 6,4 °C 51 % 89 % 1003,3 hPa 0,0 l/m² 0,0 km/h (0 Bft) NW 310 ° 0 min 0 W/m² 4,7 °C 6,4 °C 0,0 km/h (0 Bft)
14.03.2026 18:22 21,6 °C 6,4 °C 51 % 89 % 1003,3 hPa 0,0 l/m² 0,0 km/h (0 Bft) NW 313 ° 0 min 0 W/m² 4,7 °C 6,4 °C 0,0 km/h (0 Bft)
14.03.2026 18:23 21,6 °C 6,4 °C 51 % 89 % 1003,3 hPa 0,0 l/m² 1,0 km/h (0 Bft) NW 310 ° 0 min 0 W/m² 4,7 °C 6,4 °C 3,2 km/h (1 Bft)
14.03.2026 18:25 21,6 °C 6,4 °C 51 % 89 % 1003,4 hPa 0,0 l/m² 0,0 km/h (0 Bft) NW 313 ° 0 min 0 W/m² 4,7 °C 6,4 °C 1,6 km/h (1 Bft)
14.03.2026 18:27 21,6 °C 6,3 °C 51 % 89 % 1003,3 hPa 0,2 l/m² 0,0 km/h (0 Bft) NW 313 ° 0 min 0 W/m² 4,6 °C 6,3 °C 0,0 km/h (0 Bft)
14.03.2026 18:29 21,6 °C 6,3 °C 51 % 89 % 1003,4 hPa 0,0 l/m² 0,1 km/h (0 Bft) W-NW 295 ° 0 min 0 W/m² 4,6 °C 6,3 °C 1,6 km/h (1 Bft)
14.03.2026 18:30 21,6 °C 6,3 °C 51 % 89 % 1003,4 hPa 0,0 l/m² 0,6 km/h (0 Bft) W-NW 286 ° 0 min 0 W/m² 4,6 °C 6,3 °C 1,6 km/h (1 Bft)
14.03.2026 18:32 21,6 °C 6,3 °C 51 % 89 % 1003,4 hPa 0,0 l/m² 0,0 km/h (0 Bft) W-NW 286 ° 0 min 0 W/m² 4,6 °C 6,3 °C 0,0 km/h (0 Bft)
14.03.2026 18:33 21,6 °C 6,3 °C 51 % 89 % 1003,3 hPa 0,0 l/m² 0,0 km/h (0 Bft) W-NW 286 ° 0 min 0 W/m² 4,6 °C 6,3 °C 0,0 km/h (0 Bft)
14.03.2026 18:35 21,6 °C 6,3 °C 51 % 89 % 1003,5 hPa 0,0 l/m² 0,1 km/h (0 Bft) W-NW 296 ° 0 min 0 W/m² 4,6 °C 6,3 °C 1,6 km/h (1 Bft)
14.03.2026 18:37 21,6 °C 6,3 °C 51 % 89 % 1003,5 hPa 0,0 l/m² 0,4 km/h (0 Bft) W 279 ° 0 min 0 W/m² 4,6 °C 6,3 °C 3,2 km/h (1 Bft)
14.03.2026 18:39 21,6 °C 6,3 °C 51 % 89 % 1003,5 hPa 0,0 l/m² 0,4 km/h (0 Bft) W-NW 286 ° 0 min 0 W/m² 4,6 °C 6,3 °C 1,6 km/h (1 Bft)
14.03.2026 18:40 21,6 °C 6,3 °C 51 % 89 % 1003,5 hPa 0,0 l/m² 0,1 km/h (0 Bft) W-NW 286 ° 0 min 0 W/m² 4,6 °C 6,3 °C 1,6 km/h (1 Bft)
14.03.2026 18:42 21,6 °C 6,3 °C 51 % 89 % 1003,5 hPa 0,0 l/m² 0,0 km/h (0 Bft) W 262 ° 0 min 0 W/m² 4,6 °C 6,3 °C 1,6 km/h (1 Bft)
14.03.2026 18:43 21,6 °C 6,3 °C 51 % 89 % 1003,5 hPa 0,0 l/m² 0,7 km/h (0 Bft) W 279 ° 0 min 0 W/m² 4,6 °C 6,3 °C 3,2 km/h (1 Bft)
14.03.2026 18:46 21,6 °C 6,2 °C 51 % 89 % 1003,6 hPa 0,0 l/m² 0,4 km/h (0 Bft) W 277 ° 0 min 0 W/m² 4,5 °C 6,2 °C 3,2 km/h (1 Bft)
14.03.2026 18:48 21,6 °C 6,2 °C 51 % 89 % 1003,6 hPa 0,2 l/m² 0,4 km/h (0 Bft) W-NW 291 ° 0 min 0 W/m² 4,5 °C 6,2 °C 3,2 km/h (1 Bft)
14.03.2026 18:50 21,6 °C 6,2 °C 51 % 89 % 1003,6 hPa 0,0 l/m² 0,4 km/h (0 Bft) W 275 ° 0 min 0 W/m² 4,5 °C 6,2 °C 3,2 km/h (1 Bft)
14.03.2026 18:51 21,6 °C 6,2 °C 51 % 89 % 1003,6 hPa 0,0 l/m² 0,0 km/h (0 Bft) W 274 ° 0 min 0 W/m² 4,5 °C 6,2 °C 0,0 km/h (0 Bft)
14.03.2026 18:52 21,6 °C 6,2 °C 51 % 89 % 1003,6 hPa 0,0 l/m² 0,0 km/h (0 Bft) W 277 ° 0 min 0 W/m² 4,5 °C 6,2 °C 0,0 km/h (0 Bft)
14.03.2026 18:54 21,6 °C 6,2 °C 51 % 89 % 1003,6 hPa 0,0 l/m² 0,0 km/h (0 Bft) W 276 ° 0 min 0 W/m² 4,5 °C 6,2 °C 0,0 km/h (0 Bft)
14.03.2026 18:56 21,6 °C 6,2 °C 51 % 89 % 1003,7 hPa 0,0 l/m² 0,0 km/h (0 Bft) W 272 ° 0 min 0 W/m² 4,5 °C 6,2 °C 1,6 km/h (1 Bft)
14.03.2026 18:58 21,6 °C 6,2 °C 51 % 89 % 1003,6 hPa 0,0 l/m² 0,0 km/h (0 Bft) W 269 ° 0 min 0 W/m² 4,5 °C 6,2 °C 0,0 km/h (0 Bft)
14.03.2026 19:00 21,6 °C 6,2 °C 51 % 89 % 1003,8 hPa 0,0 l/m² 0,6 km/h (0 Bft) W 269 ° 0 min 0 W/m² 4,5 °C 6,2 °C 1,6 km/h (1 Bft)
14.03.2026 19:01 21,6 °C 6,2 °C 51 % 90 % 1003,7 hPa 0,0 l/m² 0,0 km/h (0 Bft) W 274 ° 0 min 0 W/m² 4,7 °C 6,2 °C 0,0 km/h (0 Bft)
14.03.2026 19:02 21,6 °C 6,2 °C 51 % 89 % 1003,7 hPa 0,0 l/m² 0,0 km/h (0 Bft) W 275 ° 0 min 0 W/m² 4,5 °C 6,2 °C 0,0 km/h (0 Bft)
14.03.2026 19:04 21,6 °C 6,2 °C 51 % 90 % 1003,7 hPa 0,0 l/m² 0,0 km/h (0 Bft) NW 304 ° 0 min 0 W/m² 4,7 °C 6,2 °C 1,6 km/h (1 Bft)
14.03.2026 19:06 21,6 °C 6,2 °C 51 % 90 % 1003,6 hPa 0,0 l/m² 0,2 km/h (0 Bft) NW 311 ° 0 min 0 W/m² 4,7 °C 6,2 °C 1,6 km/h (1 Bft)
14.03.2026 19:08 21,6 °C 6,2 °C 51 % 90 % 1003,7 hPa 0,0 l/m² 0,0 km/h (0 Bft) NW 312 ° 0 min 0 W/m² 4,7 °C 6,2 °C 1,6 km/h (1 Bft)
14.03.2026 19:10 21,6 °C 6,1 °C 51 % 90 % 1003,8 hPa 0,0 l/m² 0,0 km/h (0 Bft) NW 312 ° 0 min 0 W/m² 4,6 °C 6,1 °C 0,0 km/h (0 Bft)
14.03.2026 19:11 21,6 °C 6,1 °C 51 % 90 % 1003,8 hPa 0,2 l/m² 0,0 km/h (0 Bft) NW 312 ° 0 min 0 W/m² 4,6 °C 6,1 °C 0,0 km/h (0 Bft)
14.03.2026 19:12 21,6 °C 6,1 °C 51 % 90 % 1003,8 hPa 0,0 l/m² 0,0 km/h (0 Bft) W 279 ° 0 min 0 W/m² 4,6 °C 6,1 °C 0,0 km/h (0 Bft)
14.03.2026 19:14 21,6 °C 6,1 °C 51 % 90 % 1003,8 hPa 0,0 l/m² 0,0 km/h (0 Bft) W 279 ° 0 min 0 W/m² 4,6 °C 6,1 °C 0,0 km/h (0 Bft)
14.03.2026 19:16 21,6 °C 6,1 °C 51 % 90 % 1003,8 hPa 0,0 l/m² 0,0 km/h (0 Bft) W 279 ° 0 min 0 W/m² 4,6 °C 6,1 °C 0,0 km/h (0 Bft)
14.03.2026 19:18 21,6 °C 6,1 °C 51 % 90 % 1003,8 hPa 0,0 l/m² 0,0 km/h (0 Bft) W 279 ° 0 min 0 W/m² 4,6 °C 6,1 °C 0,0 km/h (0 Bft)
14.03.2026 19:20 21,6 °C 6,1 °C 51 % 90 % 1003,8 hPa 0,0 l/m² 0,0 km/h (0 Bft) W 279 ° 0 min 0 W/m² 4,6 °C 6,1 °C 0,0 km/h (0 Bft)
14.03.2026 19:21 21,6 °C 6,1 °C 51 % 90 % 1003,7 hPa 0,0 l/m² 0,0 km/h (0 Bft) W 279 ° 0 min 0 W/m² 4,6 °C 6,1 °C 0,0 km/h (0 Bft)
14.03.2026 19:22 21,6 °C 6,1 °C 51 % 90 % 1003,7 hPa 0,0 l/m² 0,0 km/h (0 Bft) W 279 ° 0 min 0 W/m² 4,6 °C 6,1 °C 0,0 km/h (0 Bft)
14.03.2026 19:24 21,6 °C 6,1 °C 51 % 90 % 1003,8 hPa 0,0 l/m² 0,0 km/h (0 Bft) W 279 ° 0 min 0 W/m² 4,6 °C 6,1 °C 0,0 km/h (0 Bft)
14.03.2026 19:26 21,6 °C 6,1 °C 51 % 90 % 1003,8 hPa 0,0 l/m² 0,0 km/h (0 Bft) W 279 ° 0 min 0 W/m² 4,6 °C 6,1 °C 0,0 km/h (0 Bft)
14.03.2026 19:28 21,6 °C 6,1 °C 51 % 90 % 1003,8 hPa 0,0 l/m² 0,0 km/h (0 Bft) W 279 ° 0 min 0 W/m² 4,6 °C 6,1 °C 0,0 km/h (0 Bft)
14.03.2026 19:30 21,6 °C 6,1 °C 51 % 90 % 1003,8 hPa 0,0 l/m² 0,0 km/h (0 Bft) W 279 ° 0 min 0 W/m² 4,6 °C 6,1 °C 0,0 km/h (0 Bft)
14.03.2026 19:31 21,6 °C 6,1 °C 51 % 90 % 1003,9 hPa 0,0 l/m² 0,0 km/h (0 Bft) W 279 ° 0 min 0 W/m² 4,6 °C 6,1 °C 0,0 km/h (0 Bft)
14.03.2026 19:32 21,6 °C 6,1 °C 51 % 90 % 1003,9 hPa 0,0 l/m² 0,0 km/h (0 Bft) W 279 ° 0 min 0 W/m² 4,6 °C 6,1 °C 0,0 km/h (0 Bft)
14.03.2026 19:34 21,6 °C 6,1 °C 51 % 90 % 1003,9 hPa 0,0 l/m² 0,0 km/h (0 Bft) W 279 ° 0 min 0 W/m² 4,6 °C 6,1 °C 0,0 km/h (0 Bft)
14.03.2026 19:36 21,6 °C 6,1 °C 51 % 90 % 1003,9 hPa 0,0 l/m² 0,0 km/h (0 Bft) W 279 ° 0 min 0 W/m² 4,6 °C 6,1 °C 0,0 km/h (0 Bft)
14.03.2026 19:38 21,6 °C 6,1 °C 51 % 90 % 1003,9 hPa 0,0 l/m² 0,0 km/h (0 Bft) W 279 ° 0 min 0 W/m² 4,6 °C 6,1 °C 0,0 km/h (0 Bft)
14.03.2026 19:40 21,6 °C 6,1 °C 51 % 90 % 1004,0 hPa 0,0 l/m² 0,0 km/h (0 Bft) W 279 ° 0 min 0 W/m² 4,6 °C 6,1 °C 0,0 km/h (0 Bft)
14.03.2026 19:41 21,6 °C 6,1 °C 51 % 90 % 1004,0 hPa 0,0 l/m² 0,0 km/h (0 Bft) W 279 ° 0 min 0 W/m² 4,6 °C 6,1 °C 0,0 km/h (0 Bft)
14.03.2026 19:42 21,6 °C 6,0 °C 51 % 90 % 1004,0 hPa 0,0 l/m² 0,0 km/h (0 Bft) W 279 ° 0 min 0 W/m² 4,5 °C 6,0 °C 0,0 km/h (0 Bft)
14.03.2026 19:44 21,6 °C 6,1 °C 51 % 90 % 1004,0 hPa 0,2 l/m² 0,0 km/h (0 Bft) W 279 ° 0 min 0 W/m² 4,6 °C 6,1 °C 0,0 km/h (0 Bft)
14.03.2026 19:46 21,6 °C 6,1 °C 52 % 90 % 1004,0 hPa 0,0 l/m² 0,0 km/h (0 Bft) W 279 ° 0 min 0 W/m² 4,6 °C 6,1 °C 0,0 km/h (0 Bft)
14.03.2026 19:48 21,6 °C 6,1 °C 51 % 90 % 1004,0 hPa 0,0 l/m² 0,0 km/h (0 Bft) W 279 ° 0 min 0 W/m² 4,6 °C 6,1 °C 0,0 km/h (0 Bft)
14.03.2026 19:50 21,6 °C 6,0 °C 52 % 90 % 1004,1 hPa 0,0 l/m² 0,0 km/h (0 Bft) W 279 ° 0 min 0 W/m² 4,5 °C 6,0 °C 0,0 km/h (0 Bft)
14.03.2026 19:51 21,6 °C 6,0 °C 52 % 90 % 1004,1 hPa 0,0 l/m² 0,0 km/h (0 Bft) W 279 ° 0 min 0 W/m² 4,5 °C 6,0 °C 0,0 km/h (0 Bft)
14.03.2026 19:52 21,6 °C 6,0 °C 52 % 90 % 1004,1 hPa 0,0 l/m² 0,0 km/h (0 Bft) W 279 ° 0 min 0 W/m² 4,5 °C 6,0 °C 0,0 km/h (0 Bft)
14.03.2026 19:54 21,6 °C 6,0 °C 52 % 90 % 1004,1 hPa 0,0 l/m² 0,0 km/h (0 Bft) W 279 ° 0 min 0 W/m² 4,5 °C 6,0 °C 0,0 km/h (0 Bft)
14.03.2026 19:56 21,6 °C 5,9 °C 52 % 90 % 1004,0 hPa 0,0 l/m² 0,0 km/h (0 Bft) W 279 ° 0 min 0 W/m² 4,4 °C 5,9 °C 0,0 km/h (0 Bft)
14.03.2026 19:58 21,6 °C 6,0 °C 52 % 90 % 1004,1 hPa 0,0 l/m² 0,0 km/h (0 Bft) W 279 ° 0 min 0 W/m² 4,5 °C 6,0 °C 0,0 km/h (0 Bft)
14.03.2026 20:00 21,5 °C 5,9 °C 52 % 90 % 1004,2 hPa 0,0 l/m² 0,0 km/h (0 Bft) W 279 ° 0 min 0 W/m² 4,4 °C 5,9 °C 0,0 km/h (0 Bft)
14.03.2026 20:01 21,6 °C 5,9 °C 52 % 90 % 1004,2 hPa 0,0 l/m² 0,0 km/h (0 Bft) W 279 ° 0 min 0 W/m² 4,4 °C 5,9 °C 0,0 km/h (0 Bft)
14.03.2026 20:02 21,6 °C 5,9 °C 52 % 90 % 1004,2 hPa 0,0 l/m² 0,0 km/h (0 Bft) W 279 ° 0 min 0 W/m² 4,4 °C 5,9 °C 0,0 km/h (0 Bft)
14.03.2026 20:04 21,6 °C 5,9 °C 52 % 90 % 1004,2 hPa 0,0 l/m² 0,0 km/h (0 Bft) W 279 ° 0 min 0 W/m² 4,4 °C 5,9 °C 0,0 km/h (0 Bft)
14.03.2026 20:05 21,6 °C 5,9 °C 52 % 90 % 1004,2 hPa 0,0 l/m² 0,0 km/h (0 Bft) W 279 ° 0 min 0 W/m² 4,4 °C 5,9 °C 0,0 km/h (0 Bft)
14.03.2026 20:07 21,6 °C 5,9 °C 52 % 90 % 1004,3 hPa 0,0 l/m² 0,0 km/h (0 Bft) W 279 ° 0 min 0 W/m² 4,4 °C 5,9 °C 0,0 km/h (0 Bft)
14.03.2026 20:09 21,6 °C 5,9 °C 52 % 90 % 1004,3 hPa 0,0 l/m² 0,0 km/h (0 Bft) W 279 ° 0 min 0 W/m² 4,4 °C 5,9 °C 0,0 km/h (0 Bft)
14.03.2026 20:11 21,6 °C 5,9 °C 52 % 90 % 1004,3 hPa 0,0 l/m² 0,0 km/h (0 Bft) W 279 ° 0 min 0 W/m² 4,4 °C 5,9 °C 0,0 km/h (0 Bft)
14.03.2026 20:12 21,6 °C 5,9 °C 52 % 90 % 1004,3 hPa 0,0 l/m² 0,0 km/h (0 Bft) W 279 ° 0 min 0 W/m² 4,4 °C 5,9 °C 0,0 km/h (0 Bft)
14.03.2026 20:14 21,6 °C 5,9 °C 52 % 90 % 1004,3 hPa 0,0 l/m² 0,0 km/h (0 Bft) W 279 ° 0 min 0 W/m² 4,4 °C 5,9 °C 0,0 km/h (0 Bft)
14.03.2026 20:16 21,6 °C 5,9 °C 52 % 90 % 1004,3 hPa 0,0 l/m² 0,0 km/h (0 Bft) W 279 ° 0 min 0 W/m² 4,4 °C 5,9 °C 0,0 km/h (0 Bft)
14.03.2026 20:18 21,6 °C 5,9 °C 52 % 90 % 1004,3 hPa 0,0 l/m² 0,0 km/h (0 Bft) W 279 ° 0 min 0 W/m² 4,4 °C 5,9 °C 0,0 km/h (0 Bft)
14.03.2026 20:20 21,5 °C 5,9 °C 52 % 90 % 1004,3 hPa 0,0 l/m² 0,0 km/h (0 Bft) W 279 ° 0 min 0 W/m² 4,4 °C 5,9 °C 0,0 km/h (0 Bft)
14.03.2026 20:21 21,5 °C 5,9 °C 52 % 90 % 1004,4 hPa 0,0 l/m² 0,0 km/h (0 Bft) W 279 ° 0 min 0 W/m² 4,4 °C 5,9 °C 0,0 km/h (0 Bft)
14.03.2026 20:22 21,5 °C 5,9 °C 52 % 90 % 1004,4 hPa 0,0 l/m² 0,0 km/h (0 Bft) W 278 ° 0 min 0 W/m² 4,4 °C 5,9 °C 0,0 km/h (0 Bft)
14.03.2026 20:24 21,5 °C 5,9 °C 52 % 90 % 1004,4 hPa 0,0 l/m² 0,0 km/h (0 Bft) W 267 ° 0 min 0 W/m² 4,4 °C 5,9 °C 0,0 km/h (0 Bft)
14.03.2026 20:26 21,6 °C 5,9 °C 52 % 90 % 1004,4 hPa 0,0 l/m² 0,0 km/h (0 Bft) W 273 ° 0 min 0 W/m² 4,4 °C 5,9 °C 1,6 km/h (1 Bft)
14.03.2026 20:28 21,6 °C 5,9 °C 52 % 90 % 1004,4 hPa 0,0 l/m² 0,0 km/h (0 Bft) W 273 ° 0 min 0 W/m² 4,4 °C 5,9 °C 0,0 km/h (0 Bft)
14.03.2026 20:30 21,5 °C 5,9 °C 52 % 90 % 1004,4 hPa 0,0 l/m² 0,0 km/h (0 Bft) W 277 ° 0 min 0 W/m² 4,4 °C 5,9 °C 0,0 km/h (0 Bft)
14.03.2026 20:31 21,6 °C 5,9 °C 52 % 90 % 1004,3 hPa 0,0 l/m² 0,0 km/h (0 Bft) W 277 ° 0 min 0 W/m² 4,4 °C 5,9 °C 0,0 km/h (0 Bft)
14.03.2026 20:32 21,6 °C 5,9 °C 52 % 90 % 1004,3 hPa 0,0 l/m² 0,0 km/h (0 Bft) W 277 ° 0 min 0 W/m² 4,4 °C 5,9 °C 0,0 km/h (0 Bft)
14.03.2026 20:34 21,6 °C 5,9 °C 52 % 90 % 1004,4 hPa 0,0 l/m² 0,0 km/h (0 Bft) W 277 ° 0 min 0 W/m² 4,4 °C 5,9 °C 0,0 km/h (0 Bft)
14.03.2026 20:36 21,6 °C 5,9 °C 52 % 91 % 1004,4 hPa 0,2 l/m² 0,0 km/h (0 Bft) W-NW 283 ° 0 min 0 W/m² 4,5 °C 5,9 °C 0,0 km/h (0 Bft)
14.03.2026 20:38 21,6 °C 5,9 °C 51 % 91 % 1004,5 hPa 0,0 l/m² 0,0 km/h (0 Bft) W-NW 285 ° 0 min 0 W/m² 4,5 °C 5,9 °C 0,0 km/h (0 Bft)
14.03.2026 20:40 21,6 °C 5,9 °C 52 % 90 % 1004,5 hPa 0,0 l/m² 0,0 km/h (0 Bft) W-NW 285 ° 0 min 0 W/m² 4,4 °C 5,9 °C 0,0 km/h (0 Bft)
14.03.2026 20:41 21,5 °C 5,9 °C 52 % 91 % 1004,5 hPa 0,0 l/m² 0,0 km/h (0 Bft) W 271 ° 0 min 0 W/m² 4,5 °C 5,9 °C 0,0 km/h (0 Bft)
14.03.2026 20:42 21,5 °C 5,9 °C 52 % 91 % 1004,5 hPa 0,0 l/m² 0,0 km/h (0 Bft) W 271 ° 0 min 0 W/m² 4,5 °C 5,9 °C 0,0 km/h (0 Bft)
14.03.2026 20:44 21,6 °C 5,9 °C 51 % 91 % 1004,6 hPa 0,0 l/m² 0,6 km/h (0 Bft) W 269 ° 0 min 0 W/m² 4,5 °C 5,9 °C 1,6 km/h (1 Bft)
14.03.2026 20:46 21,5 °C 5,9 °C 51 % 90 % 1004,5 hPa 0,0 l/m² 0,0 km/h (0 Bft) W 269 ° 0 min 0 W/m² 4,4 °C 5,9 °C 0,0 km/h (0 Bft)
14.03.2026 20:48 21,6 °C 5,8 °C 51 % 91 % 1004,6 hPa 0,0 l/m² 0,2 km/h (0 Bft) W 276 ° 0 min 0 W/m² 4,4 °C 5,8 °C 3,2 km/h (1 Bft)
14.03.2026 20:50 21,5 °C 5,9 °C 51 % 91 % 1004,6 hPa 0,0 l/m² 1,8 km/h (1 Bft) W 275 ° 0 min 0 W/m² 4,5 °C 5,9 °C 4,8 km/h (1 Bft)
14.03.2026 20:51 21,6 °C 5,8 °C 51 % 91 % 1004,6 hPa 0,0 l/m² 0,1 km/h (0 Bft) W-NW 286 ° 0 min 0 W/m² 4,4 °C 5,8 °C 1,6 km/h (1 Bft)
14.03.2026 20:52 21,6 °C 5,9 °C 51 % 91 % 1004,6 hPa 0,0 l/m² 0,1 km/h (0 Bft) W 273 ° 0 min 0 W/m² 4,5 °C 5,9 °C 1,6 km/h (1 Bft)
14.03.2026 20:54 21,6 °C 5,8 °C 51 % 91 % 1004,7 hPa 0,0 l/m² 0,2 km/h (0 Bft) W-NW 301 ° 0 min 0 W/m² 4,4 °C 5,8 °C 3,2 km/h (1 Bft)
14.03.2026 20:56 21,6 °C 5,8 °C 51 % 91 % 1004,7 hPa 0,0 l/m² 0,2 km/h (0 Bft) W 267 ° 0 min 0 W/m² 4,4 °C 5,8 °C 1,6 km/h (1 Bft)
14.03.2026 20:58 21,6 °C 5,8 °C 51 % 91 % 1004,7 hPa 0,0 l/m² 0,2 km/h (0 Bft) W 277 ° 0 min 0 W/m² 4,4 °C 5,8 °C 1,6 km/h (1 Bft)
14.03.2026 21:00 21,6 °C 5,8 °C 51 % 91 % 1004,7 hPa 0,0 l/m² 1,3 km/h (1 Bft) W-NW 288 ° 0 min 0 W/m² 4,4 °C 5,8 °C 4,8 km/h (1 Bft)
14.03.2026 21:01 21,6 °C 5,8 °C 51 % 91 % 1004,7 hPa 0,0 l/m² 1,9 km/h (1 Bft) W 280 ° 0 min 0 W/m² 4,4 °C 5,8 °C 4,8 km/h (1 Bft)
14.03.2026 21:02 21,6 °C 5,8 °C 51 % 91 % 1004,6 hPa 0,0 l/m² 1,8 km/h (1 Bft) W-NW 294 ° 0 min 0 W/m² 4,4 °C 5,8 °C 4,8 km/h (1 Bft)
14.03.2026 21:03 21,6 °C 5,8 °C 51 % 91 % 1004,7 hPa 0,0 l/m² 0,0 km/h (0 Bft) W-NW 292 ° 0 min 0 W/m² 4,4 °C 5,8 °C 0,0 km/h (0 Bft)
14.03.2026 21:04 21,6 °C 5,8 °C 51 % 91 % 1004,8 hPa 0,0 l/m² 0,0 km/h (0 Bft) W-NW 292 ° 0 min 0 W/m² 4,4 °C 5,8 °C 0,0 km/h (0 Bft)
14.03.2026 21:06 21,6 °C 5,8 °C 51 % 91 % 1004,7 hPa 0,0 l/m² 1,4 km/h (1 Bft) W 265 ° 0 min 0 W/m² 4,4 °C 5,8 °C 4,8 km/h (1 Bft)
14.03.2026 21:08 21,6 °C 5,8 °C 51 % 91 % 1004,9 hPa 0,0 l/m² 0,5 km/h (0 Bft) W 270 ° 0 min 0 W/m² 4,4 °C 5,8 °C 1,6 km/h (1 Bft)
14.03.2026 21:10 21,6 °C 5,8 °C 51 % 91 % 1004,9 hPa 0,0 l/m² 0,4 km/h (0 Bft) W 277 ° 0 min 0 W/m² 4,4 °C 5,8 °C 3,2 km/h (1 Bft)
14.03.2026 21:11 21,6 °C 5,8 °C 51 % 91 % 1004,9 hPa 0,0 l/m² 0,0 km/h (0 Bft) W-NW 283 ° 0 min 0 W/m² 4,4 °C 5,8 °C 0,0 km/h (0 Bft)
14.03.2026 21:12 21,6 °C 5,8 °C 51 % 91 % 1004,9 hPa 0,0 l/m² 0,0 km/h (0 Bft) W 281 ° 0 min 0 W/m² 4,4 °C 5,8 °C 0,0 km/h (0 Bft)
14.03.2026 21:14 21,6 °C 5,8 °C 51 % 91 % 1004,9 hPa 0,0 l/m² 0,1 km/h (0 Bft) W-NW 294 ° 0 min 0 W/m² 4,4 °C 5,8 °C 1,6 km/h (1 Bft)
14.03.2026 21:16 21,6 °C 5,8 °C 51 % 91 % 1004,9 hPa 0,0 l/m² 0,0 km/h (0 Bft) W-NW 296 ° 0 min 0 W/m² 4,4 °C 5,8 °C 0,0 km/h (0 Bft)
14.03.2026 21:18 21,6 °C 5,7 °C 51 % 91 % 1005,0 hPa 0,0 l/m² 0,0 km/h (0 Bft) W-NW 296 ° 0 min 0 W/m² 4,3 °C 5,7 °C 0,0 km/h (0 Bft)
14.03.2026 21:20 21,6 °C 5,7 °C 51 % 91 % 1005,0 hPa 0,0 l/m² 0,0 km/h (0 Bft) W-NW 296 ° 0 min 0 W/m² 4,3 °C 5,7 °C 0,0 km/h (0 Bft)
14.03.2026 21:21 21,6 °C 5,7 °C 52 % 91 % 1005,0 hPa 0,0 l/m² 0,0 km/h (0 Bft) W-NW 296 ° 0 min 0 W/m² 4,3 °C 5,7 °C 0,0 km/h (0 Bft)
14.03.2026 21:22 21,6 °C 5,7 °C 52 % 91 % 1005,0 hPa 0,0 l/m² 0,0 km/h (0 Bft) N-NW 336 ° 0 min 0 W/m² 4,3 °C 5,7 °C 0,0 km/h (0 Bft)
14.03.2026 21:23 21,6 °C 5,7 °C 52 % 91 % 1005,0 hPa 0,0 l/m² 0,0 km/h (0 Bft) N-NW 336 ° 0 min 0 W/m² 4,3 °C 5,7 °C 0,0 km/h (0 Bft)
14.03.2026 21:24 21,6 °C 5,7 °C 52 % 91 % 1005,1 hPa 0,0 l/m² 0,0 km/h (0 Bft) N-NW 336 ° 0 min 0 W/m² 4,3 °C 5,7 °C 0,0 km/h (0 Bft)
14.03.2026 21:25 21,6 °C 5,7 °C 52 % 91 % 1005,1 hPa 0,0 l/m² 0,0 km/h (0 Bft) N-NW 336 ° 0 min 0 W/m² 4,3 °C 5,7 °C 0,0 km/h (0 Bft)
14.03.2026 21:27 21,6 °C 5,7 °C 52 % 91 % 1005,1 hPa 0,0 l/m² 0,0 km/h (0 Bft) N-NW 336 ° 0 min 0 W/m² 4,3 °C 5,7 °C 0,0 km/h (0 Bft)
14.03.2026 21:29 21,6 °C 5,7 °C 52 % 91 % 1005,2 hPa 0,0 l/m² 0,0 km/h (0 Bft) N-NW 336 ° 0 min 0 W/m² 4,3 °C 5,7 °C 0,0 km/h (0 Bft)
14.03.2026 21:30 21,6 °C 5,7 °C 52 % 91 % 1005,2 hPa 0,0 l/m² 0,0 km/h (0 Bft) N-NW 336 ° 0 min 0 W/m² 4,3 °C 5,7 °C 0,0 km/h (0 Bft)
14.03.2026 21:32 21,6 °C 5,7 °C 52 % 91 % 1005,2 hPa 0,0 l/m² 0,0 km/h (0 Bft) N-NW 336 ° 0 min 0 W/m² 4,3 °C 5,7 °C 0,0 km/h (0 Bft)
14.03.2026 21:33 21,6 °C 5,7 °C 52 % 91 % 1005,3 hPa 0,0 l/m² 0,0 km/h (0 Bft) N-NW 336 ° 0 min 0 W/m² 4,3 °C 5,7 °C 0,0 km/h (0 Bft)
14.03.2026 21:35 21,6 °C 5,7 °C 52 % 91 % 1005,3 hPa 0,0 l/m² 0,0 km/h (0 Bft) N-NW 335 ° 0 min 0 W/m² 4,3 °C 5,7 °C 0,0 km/h (0 Bft)
14.03.2026 21:37 21,7 °C 5,7 °C 52 % 91 % 1005,4 hPa 0,0 l/m² 0,0 km/h (0 Bft) N-NW 335 ° 0 min 0 W/m² 4,3 °C 5,7 °C 0,0 km/h (0 Bft)
14.03.2026 21:39 21,7 °C 5,7 °C 52 % 91 % 1005,3 hPa 0,0 l/m² 0,0 km/h (0 Bft) N-NW 335 ° 0 min 0 W/m² 4,3 °C 5,7 °C 0,0 km/h (0 Bft)
14.03.2026 21:40 21,7 °C 5,7 °C 52 % 91 % 1005,4 hPa 0,0 l/m² 0,0 km/h (0 Bft) N-NW 335 ° 0 min 0 W/m² 4,3 °C 5,7 °C 0,0 km/h (0 Bft)
14.03.2026 21:41 21,7 °C 5,7 °C 52 % 91 % 1005,3 hPa 0,0 l/m² 0,0 km/h (0 Bft) N-NW 335 ° 0 min 0 W/m² 4,3 °C 5,7 °C 0,0 km/h (0 Bft)
14.03.2026 21:42 21,7 °C 5,6 °C 52 % 91 % 1005,3 hPa 0,0 l/m² 0,0 km/h (0 Bft) N-NW 335 ° 0 min 0 W/m² 4,2 °C 5,6 °C 0,0 km/h (0 Bft)
14.03.2026 21:44 21,7 °C 5,7 °C 52 % 91 % 1005,3 hPa 0,0 l/m² 0,0 km/h (0 Bft) N-NW 335 ° 0 min 0 W/m² 4,3 °C 5,7 °C 0,0 km/h (0 Bft)
14.03.2026 21:47 21,7 °C 5,6 °C 52 % 91 % 1005,4 hPa 0,0 l/m² 0,0 km/h (0 Bft) N-NW 335 ° 0 min 0 W/m² 4,2 °C 5,6 °C 0,0 km/h (0 Bft)
14.03.2026 21:49 21,7 °C 5,6 °C 52 % 91 % 1005,5 hPa 0,0 l/m² 0,0 km/h (0 Bft) N-NW 335 ° 0 min 0 W/m² 4,2 °C 5,6 °C 0,0 km/h (0 Bft)
14.03.2026 21:50 21,7 °C 5,6 °C 52 % 91 % 1005,4 hPa 0,0 l/m² 0,0 km/h (0 Bft) N-NW 335 ° 0 min 0 W/m² 4,2 °C 5,6 °C 0,0 km/h (0 Bft)
14.03.2026 21:51 21,7 °C 5,6 °C 52 % 91 % 1005,4 hPa 0,0 l/m² 0,0 km/h (0 Bft) N-NW 335 ° 0 min 0 W/m² 4,2 °C 5,6 °C 0,0 km/h (0 Bft)
14.03.2026 21:53 21,7 °C 5,6 °C 52 % 91 % 1005,4 hPa 0,0 l/m² 0,0 km/h (0 Bft) N-NW 335 ° 0 min 0 W/m² 4,2 °C 5,6 °C 0,0 km/h (0 Bft)
14.03.2026 21:54 21,7 °C 5,6 °C 52 % 91 % 1005,5 hPa 0,0 l/m² 0,0 km/h (0 Bft) N-NW 335 ° 0 min 0 W/m² 4,2 °C 5,6 °C 0,0 km/h (0 Bft)
14.03.2026 21:56 21,7 °C 5,6 °C 52 % 91 % 1005,4 hPa 0,0 l/m² 0,0 km/h (0 Bft) N-NW 335 ° 0 min 0 W/m² 4,2 °C 5,6 °C 0,0 km/h (0 Bft)
14.03.2026 21:58 21,7 °C 5,6 °C 52 % 91 % 1005,5 hPa 0,0 l/m² 0,0 km/h (0 Bft) N-NW 335 ° 0 min 0 W/m² 4,2 °C 5,6 °C 0,0 km/h (0 Bft)
14.03.2026 22:00 21,7 °C 5,6 °C 52 % 91 % 1005,6 hPa 0,0 l/m² 0,0 km/h (0 Bft) N-NW 334 ° 0 min 0 W/m² 4,2 °C 5,6 °C 0,0 km/h (0 Bft)
14.03.2026 22:01 21,7 °C 5,6 °C 52 % 91 % 1005,5 hPa 0,0 l/m² 0,0 km/h (0 Bft) N-NW 334 ° 0 min 0 W/m² 4,2 °C 5,6 °C 0,0 km/h (0 Bft)
14.03.2026 22:02 21,7 °C 5,6 °C 52 % 91 % 1005,5 hPa 0,0 l/m² 0,0 km/h (0 Bft) N-NW 334 ° 0 min 0 W/m² 4,2 °C 5,6 °C 0,0 km/h (0 Bft)
14.03.2026 22:04 21,7 °C 5,6 °C 52 % 91 % 1005,5 hPa 0,0 l/m² 0,0 km/h (0 Bft) N-NW 334 ° 0 min 0 W/m² 4,2 °C 5,6 °C 0,0 km/h (0 Bft)
14.03.2026 22:06 21,7 °C 5,6 °C 52 % 91 % 1005,6 hPa 0,0 l/m² 0,0 km/h (0 Bft) N-NW 333 ° 0 min 0 W/m² 4,2 °C 5,6 °C 0,0 km/h (0 Bft)
14.03.2026 22:08 21,7 °C 5,6 °C 52 % 91 % 1005,7 hPa 0,0 l/m² 0,0 km/h (0 Bft) N-NW 333 ° 0 min 0 W/m² 4,2 °C 5,6 °C 0,0 km/h (0 Bft)
14.03.2026 22:10 21,7 °C 5,6 °C 52 % 91 % 1005,7 hPa 0,0 l/m² 0,0 km/h (0 Bft) N-NW 333 ° 0 min 0 W/m² 4,2 °C 5,6 °C 0,0 km/h (0 Bft)
14.03.2026 22:11 21,7 °C 5,6 °C 51 % 91 % 1005,7 hPa 0,0 l/m² 0,1 km/h (0 Bft) NW 310 ° 0 min 0 W/m² 4,2 °C 5,6 °C 1,6 km/h (1 Bft)
14.03.2026 22:12 21,7 °C 5,6 °C 51 % 91 % 1005,7 hPa 0,0 l/m² 0,0 km/h (0 Bft) NW 311 ° 0 min 0 W/m² 4,2 °C 5,6 °C 0,0 km/h (0 Bft)
14.03.2026 22:13 21,7 °C 5,6 °C 51 % 91 % 1005,7 hPa 0,0 l/m² 0,0 km/h (0 Bft) NW 310 ° 0 min 0 W/m² 4,2 °C 5,6 °C 0,0 km/h (0 Bft)
14.03.2026 22:14 21,7 °C 5,6 °C 51 % 91 % 1005,6 hPa 0,0 l/m² 0,0 km/h (0 Bft) NW 310 ° 0 min 0 W/m² 4,2 °C 5,6 °C 0,0 km/h (0 Bft)
14.03.2026 22:15 21,7 °C 5,6 °C 51 % 91 % 1005,7 hPa 0,0 l/m² 0,0 km/h (0 Bft) NW 311 ° 0 min 0 W/m² 4,2 °C 5,6 °C 0,0 km/h (0 Bft)
14.03.2026 22:17 21,7 °C 5,5 °C 51 % 91 % 1005,6 hPa 0,0 l/m² 0,0 km/h (0 Bft) NW 308 ° 0 min 0 W/m² 4,2 °C 5,5 °C 0,0 km/h (0 Bft)
14.03.2026 22:19 21,7 °C 5,6 °C 51 % 91 % 1005,7 hPa 0,0 l/m² 0,0 km/h (0 Bft) NW 308 ° 0 min 0 W/m² 4,2 °C 5,6 °C 0,0 km/h (0 Bft)
14.03.2026 22:20 21,7 °C 5,6 °C 51 % 91 % 1005,7 hPa 0,0 l/m² 0,0 km/h (0 Bft) NW 308 ° 0 min 0 W/m² 4,2 °C 5,6 °C 0,0 km/h (0 Bft)
14.03.2026 22:21 21,7 °C 5,5 °C 51 % 91 % 1005,7 hPa 0,0 l/m² 0,0 km/h (0 Bft) NW 308 ° 0 min 0 W/m² 4,2 °C 5,5 °C 0,0 km/h (0 Bft)
14.03.2026 22:22 21,7 °C 5,6 °C 51 % 91 % 1005,7 hPa 0,0 l/m² 0,0 km/h (0 Bft) NW 308 ° 0 min 0 W/m² 4,2 °C 5,6 °C 0,0 km/h (0 Bft)
14.03.2026 22:24 21,7 °C 5,6 °C 51 % 91 % 1005,8 hPa 0,2 l/m² 0,0 km/h (0 Bft) NW 308 ° 0 min 0 W/m² 4,2 °C 5,6 °C 0,0 km/h (0 Bft)
14.03.2026 22:26 21,7 °C 5,5 °C 51 % 91 % 1005,8 hPa 0,0 l/m² 0,0 km/h (0 Bft) NW 308 ° 0 min 0 W/m² 4,2 °C 5,5 °C 0,0 km/h (0 Bft)
14.03.2026 22:28 21,7 °C 5,5 °C 51 % 91 % 1005,9 hPa 0,0 l/m² 0,0 km/h (0 Bft) NW 308 ° 0 min 0 W/m² 4,2 °C 5,5 °C 0,0 km/h (0 Bft)
14.03.2026 22:30 21,7 °C 5,5 °C 51 % 91 % 1005,9 hPa 0,0 l/m² 0,0 km/h (0 Bft) NW 308 ° 0 min 0 W/m² 4,2 °C 5,5 °C 0,0 km/h (0 Bft)
14.03.2026 22:31 21,7 °C 5,5 °C 51 % 91 % 1005,9 hPa 0,0 l/m² 0,0 km/h (0 Bft) NW 308 ° 0 min 0 W/m² 4,2 °C 5,5 °C 0,0 km/h (0 Bft)
14.03.2026 22:32 21,7 °C 5,5 °C 51 % 91 % 1005,9 hPa 0,0 l/m² 0,0 km/h (0 Bft) NW 308 ° 0 min 0 W/m² 4,2 °C 5,5 °C 0,0 km/h (0 Bft)
14.03.2026 22:33 21,7 °C 5,6 °C 51 % 91 % 1005,8 hPa 0,0 l/m² 0,0 km/h (0 Bft) NW 308 ° 0 min 0 W/m² 4,2 °C 5,6 °C 0,0 km/h (0 Bft)
14.03.2026 22:35 21,7 °C 5,5 °C 51 % 91 % 1005,8 hPa 0,0 l/m² 0,0 km/h (0 Bft) NW 308 ° 0 min 0 W/m² 4,2 °C 5,5 °C 0,0 km/h (0 Bft)
14.03.2026 22:36 21,7 °C 5,5 °C 51 % 91 % 1005,9 hPa 0,0 l/m² 0,0 km/h (0 Bft) NW 308 ° 0 min 0 W/m² 4,2 °C 5,5 °C 0,0 km/h (0 Bft)
14.03.2026 22:38 21,7 °C 5,5 °C 51 % 91 % 1005,9 hPa 0,0 l/m² 0,0 km/h (0 Bft) NW 308 ° 0 min 0 W/m² 4,2 °C 5,5 °C 0,0 km/h (0 Bft)
14.03.2026 22:40 21,6 °C 5,5 °C 51 % 91 % 1006,0 hPa 0,0 l/m² 0,0 km/h (0 Bft) NW 308 ° 0 min 0 W/m² 4,2 °C 5,5 °C 0,0 km/h (0 Bft)
14.03.2026 22:41 21,7 °C 5,5 °C 51 % 91 % 1006,0 hPa 0,0 l/m² 0,0 km/h (0 Bft) NW 308 ° 0 min 0 W/m² 4,2 °C 5,5 °C 0,0 km/h (0 Bft)
14.03.2026 22:42 21,7 °C 5,5 °C 51 % 91 % 1006,0 hPa 0,0 l/m² 0,0 km/h (0 Bft) NW 308 ° 0 min 0 W/m² 4,2 °C 5,5 °C 0,0 km/h (0 Bft)
14.03.2026 22:43 21,6 °C 5,5 °C 51 % 91 % 1005,9 hPa 0,0 l/m² 0,0 km/h (0 Bft) NW 308 ° 0 min 0 W/m² 4,2 °C 5,5 °C 0,0 km/h (0 Bft)
14.03.2026 22:45 21,7 °C 5,5 °C 51 % 92 % 1005,9 hPa 0,0 l/m² 0,0 km/h (0 Bft) NW 308 ° 0 min 0 W/m² 4,3 °C 5,5 °C 0,0 km/h (0 Bft)
14.03.2026 22:47 21,6 °C 5,4 °C 51 % 92 % 1006,0 hPa 0,0 l/m² 0,0 km/h (0 Bft) NW 308 ° 0 min 0 W/m² 4,2 °C 5,4 °C 0,0 km/h (0 Bft)
14.03.2026 22:49 21,6 °C 5,5 °C 51 % 92 % 1006,0 hPa 0,0 l/m² 0,0 km/h (0 Bft) NW 308 ° 0 min 0 W/m² 4,3 °C 5,5 °C 0,0 km/h (0 Bft)
14.03.2026 22:51 21,6 °C 5,5 °C 51 % 92 % 1006,0 hPa 0,0 l/m² 0,0 km/h (0 Bft) NW 308 ° 0 min 0 W/m² 4,3 °C 5,5 °C 0,0 km/h (0 Bft)
14.03.2026 22:52 21,6 °C 5,5 °C 51 % 92 % 1006,0 hPa 0,0 l/m² 0,0 km/h (0 Bft) NW 308 ° 0 min 0 W/m² 4,3 °C 5,5 °C 0,0 km/h (0 Bft)
14.03.2026 22:53 21,6 °C 5,5 °C 51 % 92 % 1006,0 hPa 0,0 l/m² 0,0 km/h (0 Bft) NW 308 ° 0 min 0 W/m² 4,3 °C 5,5 °C 0,0 km/h (0 Bft)
14.03.2026 22:54 21,6 °C 5,5 °C 51 % 92 % 1006,0 hPa 0,0 l/m² 0,0 km/h (0 Bft) NW 308 ° 0 min 0 W/m² 4,3 °C 5,5 °C 0,0 km/h (0 Bft)
14.03.2026 22:56 21,6 °C 5,5 °C 51 % 92 % 1006,1 hPa 0,0 l/m² 0,0 km/h (0 Bft) NW 308 ° 0 min 0 W/m² 4,3 °C 5,5 °C 0,0 km/h (0 Bft)
14.03.2026 22:58 21,6 °C 5,5 °C 51 % 92 % 1006,2 hPa 0,0 l/m² 0,0 km/h (0 Bft) NW 308 ° 0 min 0 W/m² 4,3 °C 5,5 °C 0,0 km/h (0 Bft)
14.03.2026 23:00 21,6 °C 5,5 °C 51 % 92 % 1006,2 hPa 0,0 l/m² 0,0 km/h (0 Bft) NW 308 ° 0 min 0 W/m² 4,3 °C 5,5 °C 0,0 km/h (0 Bft)
14.03.2026 23:01 21,6 °C 5,5 °C 51 % 92 % 1006,2 hPa 0,0 l/m² 0,0 km/h (0 Bft) NW 308 ° 0 min 0 W/m² 4,3 °C 5,5 °C 0,0 km/h (0 Bft)
14.03.2026 23:02 21,6 °C 5,5 °C 51 % 92 % 1006,2 hPa 0,0 l/m² 0,0 km/h (0 Bft) NW 308 ° 0 min 0 W/m² 4,3 °C 5,5 °C 0,0 km/h (0 Bft)
14.03.2026 23:03 21,6 °C 5,5 °C 51 % 92 % 1006,2 hPa 0,0 l/m² 0,0 km/h (0 Bft) NW 308 ° 0 min 0 W/m² 4,3 °C 5,5 °C 0,0 km/h (0 Bft)
14.03.2026 23:05 21,6 °C 5,5 °C 51 % 92 % 1006,2 hPa 0,0 l/m² 0,0 km/h (0 Bft) NW 308 ° 0 min 0 W/m² 4,3 °C 5,5 °C 0,0 km/h (0 Bft)
14.03.2026 23:07 21,6 °C 5,5 °C 51 % 92 % 1006,2 hPa 0,0 l/m² 0,0 km/h (0 Bft) NW 308 ° 0 min 0 W/m² 4,3 °C 5,5 °C 0,0 km/h (0 Bft)
14.03.2026 23:09 21,6 °C 5,5 °C 51 % 92 % 1006,2 hPa 0,0 l/m² 0,0 km/h (0 Bft) NW 308 ° 0 min 0 W/m² 4,3 °C 5,5 °C 0,0 km/h (0 Bft)
14.03.2026 23:10 21,6 °C 5,4 °C 51 % 92 % 1006,2 hPa 0,0 l/m² 0,0 km/h (0 Bft) NW 308 ° 0 min 0 W/m² 4,2 °C 5,4 °C 0,0 km/h (0 Bft)
14.03.2026 23:11 21,6 °C 5,5 °C 51 % 92 % 1006,2 hPa 0,0 l/m² 0,0 km/h (0 Bft) NW 308 ° 0 min 0 W/m² 4,3 °C 5,5 °C 0,0 km/h (0 Bft)
14.03.2026 23:12 21,6 °C 5,4 °C 51 % 92 % 1006,2 hPa 0,0 l/m² 0,0 km/h (0 Bft) NW 308 ° 0 min 0 W/m² 4,2 °C 5,4 °C 0,0 km/h (0 Bft)
14.03.2026 23:14 21,6 °C 5,4 °C 51 % 92 % 1006,3 hPa 0,0 l/m² 0,0 km/h (0 Bft) NW 308 ° 0 min 0 W/m² 4,2 °C 5,4 °C 0,0 km/h (0 Bft)
14.03.2026 23:15 21,6 °C 5,4 °C 51 % 92 % 1006,3 hPa 0,0 l/m² 0,0 km/h (0 Bft) N 0 ° 0 min 0 W/m² 4,2 °C 5,4 °C 0,0 km/h (0 Bft)
14.03.2026 23:16 21,6 °C 5,4 °C 51 % 92 % 1006,3 hPa 0,0 l/m² 0,0 km/h (0 Bft) N 0 ° 0 min 0 W/m² 4,2 °C 5,4 °C 0,0 km/h (0 Bft)
14.03.2026 23:22 21,6 °C 5,4 °C 51 % 92 % 1006,3 hPa 0,0 l/m² 0,0 km/h (0 Bft) NW 308 ° 0 min 0 W/m² 4,2 °C 5,4 °C 0,0 km/h (0 Bft)
14.03.2026 23:23 21,6 °C 5,4 °C 51 % 92 % 1006,2 hPa 0,0 l/m² 0,0 km/h (0 Bft) NW 308 ° 0 min 0 W/m² 4,2 °C 5,4 °C 0,0 km/h (0 Bft)
14.03.2026 23:24 21,6 °C 5,4 °C 51 % 92 % 1006,2 hPa 0,0 l/m² 0,0 km/h (0 Bft) NW 308 ° 0 min 0 W/m² 4,2 °C 5,4 °C 0,0 km/h (0 Bft)
14.03.2026 23:26 21,6 °C 5,4 °C 51 % 92 % 1006,4 hPa 0,0 l/m² 0,0 km/h (0 Bft) NW 308 ° 0 min 0 W/m² 4,2 °C 5,4 °C 0,0 km/h (0 Bft)
14.03.2026 23:28 21,6 °C 5,4 °C 51 % 92 % 1006,5 hPa 0,0 l/m² 0,0 km/h (0 Bft) NW 308 ° 0 min 0 W/m² 4,2 °C 5,4 °C 0,0 km/h (0 Bft)
14.03.2026 23:30 21,6 °C 5,4 °C 51 % 92 % 1006,5 hPa 0,0 l/m² 0,0 km/h (0 Bft) NW 308 ° 0 min 0 W/m² 4,2 °C 5,4 °C 0,0 km/h (0 Bft)
14.03.2026 23:31 21,6 °C 5,4 °C 51 % 92 % 1006,6 hPa 0,0 l/m² 0,0 km/h (0 Bft) NW 306 ° 0 min 0 W/m² 4,2 °C 5,4 °C 0,0 km/h (0 Bft)
14.03.2026 23:32 21,6 °C 5,4 °C 51 % 92 % 1006,6 hPa 0,0 l/m² 0,0 km/h (0 Bft) NW 306 ° 0 min 0 W/m² 4,2 °C 5,4 °C 0,0 km/h (0 Bft)
14.03.2026 23:34 21,6 °C 5,4 °C 51 % 92 % 1006,6 hPa 0,0 l/m² 0,0 km/h (0 Bft) W-NW 302 ° 0 min 0 W/m² 4,2 °C 5,4 °C 0,0 km/h (0 Bft)
14.03.2026 23:36 21,6 °C 5,4 °C 51 % 92 % 1006,6 hPa 0,0 l/m² 0,0 km/h (0 Bft) W-NW 302 ° 0 min 0 W/m² 4,2 °C 5,4 °C 0,0 km/h (0 Bft)
14.03.2026 23:38 21,6 °C 5,4 °C 51 % 92 % 1006,6 hPa 0,0 l/m² 0,0 km/h (0 Bft) W-NW 300 ° 0 min 0 W/m² 4,2 °C 5,4 °C 0,0 km/h (0 Bft)
14.03.2026 23:40 21,6 °C 5,4 °C 51 % 92 % 1006,6 hPa 0,0 l/m² 0,0 km/h (0 Bft) W-NW 300 ° 0 min 0 W/m² 4,2 °C 5,4 °C 0,0 km/h (0 Bft)
14.03.2026 23:41 21,6 °C 5,4 °C 51 % 92 % 1006,5 hPa 0,0 l/m² 0,0 km/h (0 Bft) W-NW 300 ° 0 min 0 W/m² 4,2 °C 5,4 °C 0,0 km/h (0 Bft)
14.03.2026 23:42 21,6 °C 5,4 °C 51 % 92 % 1006,5 hPa 0,0 l/m² 0,0 km/h (0 Bft) W-NW 300 ° 0 min 0 W/m² 4,2 °C 5,4 °C 0,0 km/h (0 Bft)
14.03.2026 23:44 21,6 °C 5,4 °C 51 % 92 % 1006,6 hPa 0,0 l/m² 0,0 km/h (0 Bft) W-NW 300 ° 0 min 0 W/m² 4,2 °C 5,4 °C 0,0 km/h (0 Bft)
14.03.2026 23:46 21,6 °C 5,4 °C 51 % 92 % 1006,6 hPa 0,0 l/m² 0,0 km/h (0 Bft) W-NW 300 ° 0 min 0 W/m² 4,2 °C 5,4 °C 0,0 km/h (0 Bft)
14.03.2026 23:48 21,6 °C 5,4 °C 51 % 92 % 1006,7 hPa 0,0 l/m² 0,0 km/h (0 Bft) W-NW 300 ° 0 min 0 W/m² 4,2 °C 5,4 °C 0,0 km/h (0 Bft)
14.03.2026 23:50 21,6 °C 5,4 °C 51 % 92 % 1006,8 hPa 0,0 l/m² 0,0 km/h (0 Bft) W-NW 300 ° 0 min 0 W/m² 4,2 °C 5,4 °C 0,0 km/h (0 Bft)
14.03.2026 23:51 21,6 °C 5,4 °C 51 % 92 % 1006,8 hPa 0,0 l/m² 0,0 km/h (0 Bft) W-NW 300 ° 0 min 0 W/m² 4,2 °C 5,4 °C 0,0 km/h (0 Bft)
14.03.2026 23:52 21,6 °C 5,4 °C 51 % 92 % 1006,8 hPa 0,0 l/m² 0,0 km/h (0 Bft) W-NW 300 ° 0 min 0 W/m² 4,2 °C 5,4 °C 0,0 km/h (0 Bft)
14.03.2026 23:55 21,6 °C 5,5 °C 51 % 92 % 1006,8 hPa 0,0 l/m² 0,0 km/h (0 Bft) W-NW 300 ° 0 min 0 W/m² 4,3 °C 5,5 °C 0,0 km/h (0 Bft)
14.03.2026 23:57 21,6 °C 5,4 °C 51 % 92 % 1006,9 hPa 0,0 l/m² 0,0 km/h (0 Bft) W-NW 300 ° 0 min 0 W/m² 4,2 °C 5,4 °C 0,0 km/h (0 Bft)
14.03.2026 23:59 21,5 °C 5,5 °C 51 % 92 % 1006,9 hPa 0,0 l/m² 0,0 km/h (0 Bft) W-NW 300 ° 0 min 0 W/m² 4,3 °C 5,5 °C 0,0 km/h (0 Bft)
_ Min-Zeit 08:15 23:57 07:50 03:55 05:27 - 23:59 - - - - 22:43 07:55 23:59
Minimum _ 21,3 °C 5,4 °C 47 % 66 % 996,8 hPa - 0,0 km/h (0 Bft) - - - - 4,2 °C 2,5 °C 0,0 km/h (0 Bft)
_ Max-Zeit 22:45 00:28 22:10 23:59 23:59 22:24 01:58 - - 12:06 10:10 01:14 07:43 07:53
Maximum _ 21,7 °C 12,3 °C 52 % 92 % 1006,9 hPa 0,2 l/m² 21,7 km/h
SO (4 Bft)
- - 5 min 241 W/m² 6,7 °C 11,0 °C 30,6 km/h
W-NW (5 Bft)
Durchschnitt _ 21,5 °C 8,3 °C 49 % 82 % 1000,9 hPa #2,0 l/m² 6,8 km/h (2 Bft) NW - #6:31 h 42 W/m² 5,2 °C 6,7 °C 10,7 km/h (2 Bft)
© 2009 Mathias Hoßbach